[[{"header":{"parameterUnit":"m.s-1","parameterCategory":1,"la1":31.0,"la2":29.5877,"lo1":-88.7671,"lo2":-86.6584,"dy":0.0162,"dx":0.0185,"nx":115,"ny":88,"refTime":"2023-04-20T06:00:00:Z","depth":0,"parameterNumber":2,"parameterNumberName":"U-component_of_WINDS"},"data":[0.0,0.0,0.0,0.0,0.0,0.0,0.0,0.0,0.0,0.0,0.0,0.0,0.0,0.0,0.0,0.0,0.0,0.0,0.0,0.0,0.0,0.0,0.0,0.0,0.0,0.0,0.0,0.0,0.0,0.0,0.0,0.0,0.0,0.0,0.0,0.0,0.0,0.0,0.0,0.0,0.0,0.0,0.0,0.0,0.0,0.0,0.0,0.0,0.0,0.0,0.0,0.0,0.0,0.0,0.0,0.0,0.0,0.0,0.0,0.0,0.0,0.0,0.0,0.0,0.0,0.0,0.0,0.0,0.0,0.0,0.0,0.0,0.0,0.0,0.0,0.0,0.0,0.0,0.0,0.0,0.0,0.0,0.0,0.0,0.0,0.0,0.0,0.0,0.0,0.0,0.0,0.0,0.0,0.0,0.0,0.0,0.0,0.0,0.0,0.0,0.0,0.0,0.0,0.0,0.0,0.0,0.0,0.0,0.0,0.0,0.0,0.0,0.0,0.0,0.0,0.0,0.0,0.0,0.0,0.0,0.0,0.0,0.0,0.0,0.0,0.0,0.0,0.0,0.0,0.0,0.0,0.0,0.0,0.0,0.0,0.0,0.0,0.0,0.0,0.0,0.0,0.0,0.0,0.0,0.0,0.0,0.0,0.0,0.0,0.0,0.0,0.0,0.0,0.0,0.0,0.0,0.0,0.0,0.0,0.0,0.0,0.0,0.0,0.0,0.0,0.0,0.0,0.0,0.0,0.0,0.0,0.0,0.0,0.0,0.0,0.0,0.0,0.0,0.0,0.0,0.0,0.0,0.0,0.0,0.0,0.0,0.0,0.0,0.0,0.0,0.0,0.0,0.0,0.0,0.0,0.0,0.0,0.0,0.0,0.0,0.0,0.0,0.0,0.0,0.0,0.0,0.0,0.0,0.0,0.0,0.0,0.0,0.0,0.0,0.0,0.0,0.0,0.0,0.0,0.0,0.0,0.0,0.0,0.0,0.0,0.0,0.0,0.0,0.0,0.0,0.0,0.0,0.0,0.0,0.0,0.0,0.0,0.0,0.0,0.0,0.0,0.0,0.0,0.0,0.0,0.0,0.0,0.0,0.0,0.0,0.0,0.0,0.0,0.0,0.0,0.0,0.0,0.0,0.0,0.0,0.0,0.0,0.0,0.0,0.0,0.0,0.0,0.0,0.0,0.0,0.0,0.0,0.0,0.0,0.0,0.0,0.0,0.0,0.0,0.0,0.0,0.0,0.0,0.0,0.0,0.0,0.0,0.0,0.0,0.0,0.0,0.0,0.0,0.0,0.0,0.0,0.0,0.0,0.0,0.0,0.0,0.0,0.0,0.0,0.0,0.0,0.0,0.0,0.0,0.0,0.0,0.0,0.0,0.0,0.0,0.0,0.0,0.0,0.0,0.0,0.0,0.0,0.0,0.0,0.0,0.0,0.0,0.0,0.0,0.0,0.0,0.0,0.0,0.0,0.0,0.0,0.0,0.0,0.0,0.0,0.0,0.0,0.0,0.0,0.0,0.0,0.0,0.0,0.0,0.0,0.0,0.0,0.0,0.0,0.0,0.0,0.0,0.0,0.0,0.0,0.0,0.0,0.0,0.0,0.0,0.0,0.0,0.0,0.0,0.0,0.0,0.0,0.0,0.0,0.0,0.0,0.0,0.0,0.0,0.0,0.0,0.0,0.0,0.0,0.0,0.0,0.0,0.0,0.0,0.0,0.0,0.0,0.0,0.0,0.0,0.0,0.0,0.0,0.0,0.0,0.0,0.0,0.0,0.0,0.0,0.0,0.0,0.0,0.0,0.0,0.0,0.0,0.0,0.0,0.0,0.0,0.0,0.0,0.0,0.0,0.0,0.0,0.0,0.0,0.0,0.0,0.0,0.0,0.0,0.0,0.0,0.0,0.0,0.0,0.0,0.0,0.0,0.0,0.0,0.0,0.0,0.0,0.0,0.0,0.0,0.0,0.0,0.0,0.0,0.0,0.0,0.0,0.0,0.0,0.0,0.0,0.0,0.0,0.0,0.0,0.0,0.0,0.0,0.0,0.0,0.0,0.0,0.0,0.0,0.0,0.0,0.0,0.0,0.0,0.0,0.0,0.0,0.0,0.0,0.0,0.0,0.0,0.0,0.0,0.0,0.0,0.0,0.0,0.0,0.0,0.0,0.0,0.0,0.0,0.0,0.0,0.0,0.0,0.0,0.0,0.0,0.0,0.0,0.0,0.0,0.0,0.0,0.0,0.0,0.0,0.0,0.0,0.0,0.0,0.0,0.0,0.0,0.0,0.0,0.0,0.0,0.0,0.0,0.0,0.0,0.0,0.0,0.0,0.0,0.0,0.0,0.0,0.0,0.0,0.0,0.0,0.0,0.0,0.0,0.0,0.0,0.0,0.0,0.0,0.0,0.0,0.0,0.0,0.0,0.0,0.0,0.0,0.0,0.0,0.0,0.0,0.0,0.0,0.0,0.0,0.0,0.0,0.0,0.0,0.0,0.0,0.0,0.0,0.0,0.0,0.0,0.0,0.0,0.0,0.0,0.0,0.0,0.0,0.0,0.0,0.0,0.0,0.0,0.0,0.0,0.0,0.0,0.0,0.0,0.0,0.0,0.0,0.0,0.0,0.0,0.0,0.0,0.0,0.0,0.0,0.0,0.0,0.0,0.0,0.0,0.0,0.0,0.0,0.0,0.0,0.0,0.0,0.0,0.0,0.0,0.0,0.0,0.0,0.0,0.0,0.0,0.0,0.0,0.0,0.0,0.0,0.0,0.0,0.0,0.0,0.0,0.0,0.0,0.0,0.0,0.0,0.0,0.0,0.0,0.0,0.0,0.0,0.0,0.0,0.0,0.0,0.0,0.0,0.0,0.0,0.0,0.0,0.0,0.0,0.0,0.0,0.0,0.0,0.0,0.0,0.0,0.0,0.0,0.0,0.0,0.0,0.0,0.0,0.0,0.0,0.0,0.0,0.0,0.0,0.0,0.0,0.0,0.0,0.0,0.0,0.0,0.0,0.0,0.0,0.0,0.0,0.0,0.0,0.0,0.0,0.0,0.0,0.0,0.0,0.0,0.0,0.0,0.0,0.0,0.0,0.0,0.0,0.0,0.0,0.0,0.0,0.0,0.0,0.0,0.0,0.0,0.0,0.0,0.0,0.0,0.0,0.0,0.0,0.0,0.0,0.0,0.0,0.0,0.0,0.0,0.0,0.0,0.0,0.0,0.0,0.0,0.0,0.0,0.0,0.0,0.0,0.0,0.0,0.0,0.0,0.0,0.0,0.0,0.0,0.0,0.0,0.0,0.0,0.0,0.0,0.0,0.0,0.0,0.0,0.0,0.0,0.0,0.0,0.0,0.0,0.0,0.0,0.0,0.0,0.0,0.0,0.0,0.0,0.0,0.0,0.0,0.0,0.0,0.0,0.0,0.0,0.0,0.0,0.0,0.0,0.0,0.0,0.0,0.0,0.0,0.0,0.0,0.0,0.0,0.0,0.0,0.0,0.0,0.0,0.0,0.0,0.0,0.0,0.0,0.0,0.0,0.0,0.0,0.0,0.0,0.0,0.0,0.0,0.0,0.0,0.0,0.0,0.0,0.0,0.0,0.0,0.0,0.0,0.0,0.0,0.0,0.0,0.0,0.0,0.0,0.0,0.0,0.0,0.0,0.0,0.0,0.0,0.0,0.0,0.0,0.0,0.0,0.0,0.0,0.0,0.0,0.0,0.0,0.0,0.0,0.0,0.0,0.0,0.0,0.0,0.0,0.0,0.0,0.0,0.0,0.0,0.0,0.0,0.0,0.0,0.0,0.0,0.0,0.0,0.0,0.0,0.0,0.0,0.0,0.0,0.0,0.0,0.0,0.0,0.0,0.0,0.0,0.0,0.0,0.0,0.0,0.0,0.0,0.0,0.0,0.0,0.0,0.0,0.0,0.0,0.0,0.0,0.0,0.0,0.0,0.0,0.0,0.0,0.0,0.0,0.0,0.0,0.0,0.0,0.0,0.0,0.0,0.0,0.0,0.0,0.0,0.0,0.0,0.0,0.0,0.0,0.0,0.0,0.0,0.0,0.0,0.0,0.0,0.0,0.0,0.0,0.0,0.0,0.0,0.0,0.0,0.0,0.0,0.0,0.0,0.0,0.0,0.0,0.0,0.0,0.0,0.0,0.0,0.0,0.0,0.0,0.0,0.0,0.0,0.0,0.0,0.0,0.0,0.0,0.0,0.0,0.0,0.0,0.0,0.0,0.0,0.0,0.0,0.0,0.0,0.0,-1.9578,0.0,0.0,0.0,0.0,0.0,0.0,0.0,0.0,0.0,0.0,0.0,0.0,0.0,0.0,0.0,0.0,0.0,0.0,0.0,0.0,0.0,0.0,0.0,0.0,0.0,0.0,0.0,0.0,0.0,0.0,0.0,0.0,0.0,0.0,0.0,0.0,0.0,0.0,0.0,0.0,0.0,0.0,0.0,0.0,0.0,0.0,0.0,0.0,0.0,0.0,0.0,0.0,0.0,0.0,0.0,0.0,0.0,0.0,0.0,0.0,0.0,0.0,0.0,0.0,0.0,0.0,0.0,0.0,0.0,0.0,0.0,0.0,0.0,0.0,0.0,0.0,0.0,0.0,0.0,0.0,0.0,0.0,0.0,0.0,0.0,0.0,0.0,0.0,0.0,0.0,0.0,0.0,0.0,0.0,0.0,0.0,0.0,0.0,0.0,0.0,0.0,0.0,0.0,0.0,0.0,0.0,0.0,0.0,0.0,0.0,-2.2123,-2.2022,-2.1996,-2.1747,-2.1169,0.0,0.0,0.0,0.0,0.0,0.0,0.0,0.0,0.0,0.0,0.0,0.0,0.0,0.0,0.0,0.0,0.0,0.0,0.0,0.0,0.0,0.0,0.0,0.0,0.0,0.0,0.0,0.0,0.0,0.0,0.0,0.0,0.0,0.0,0.0,0.0,0.0,0.0,0.0,0.0,0.0,0.0,0.0,0.0,0.0,0.0,0.0,0.0,0.0,0.0,0.0,0.0,0.0,0.0,0.0,0.0,0.0,0.0,0.0,0.0,0.0,0.0,0.0,0.0,0.0,0.0,0.0,0.0,0.0,0.0,0.0,0.0,0.0,0.0,0.0,0.0,0.0,0.0,0.0,0.0,0.0,0.0,0.0,0.0,0.0,0.0,0.0,0.0,0.0,0.0,0.0,0.0,0.0,0.0,0.0,0.0,0.0,0.0,0.0,0.0,0.0,0.0,0.0,0.0,0.0,0.0,0.0,0.0,0.0,0.0,0.0,0.0,-2.3536,-2.3193,-2.2492,0.0,0.0,0.0,0.0,0.0,0.0,0.0,0.0,0.0,0.0,0.0,0.0,0.0,0.0,0.0,0.0,0.0,0.0,0.0,0.0,0.0,0.0,0.0,0.0,0.0,0.0,0.0,0.0,0.0,0.0,0.0,0.0,0.0,0.0,0.0,0.0,0.0,0.0,0.0,0.0,0.0,0.0,0.0,0.0,0.0,0.0,0.0,0.0,0.0,0.0,0.0,0.0,0.0,0.0,0.0,0.0,0.0,0.0,0.0,0.0,0.0,0.0,0.0,0.0,0.0,0.0,0.0,0.0,0.0,0.0,0.0,0.0,0.0,0.0,0.0,0.0,0.0,0.0,0.0,0.0,0.0,0.0,0.0,0.0,0.0,0.0,0.0,0.0,0.0,0.0,0.0,0.0,0.0,0.0,0.0,0.0,0.0,0.0,0.0,0.0,0.0,0.0,0.0,0.0,0.0,0.0,0.0,0.0,0.0,0.0,-2.5242,-2.4845,-2.4817,0.0,-2.3108,0.0,0.0,0.0,0.0,0.0,0.0,0.0,0.0,0.0,0.0,0.0,0.0,0.0,0.0,0.0,0.0,0.0,0.0,0.0,0.0,0.0,0.0,0.0,0.0,0.0,0.0,0.0,0.0,0.0,0.0,0.0,0.0,0.0,0.0,0.0,0.0,0.0,0.0,0.0,0.0,0.0,0.0,0.0,0.0,0.0,0.0,0.0,0.0,0.0,0.0,0.0,0.0,0.0,0.0,0.0,0.0,0.0,0.0,0.0,0.0,0.0,0.0,0.0,0.0,0.0,0.0,0.0,0.0,0.0,0.0,0.0,0.0,0.0,0.0,0.0,0.0,0.0,0.0,0.0,0.0,0.0,0.0,0.0,0.0,0.0,0.0,0.0,0.0,0.0,0.0,0.0,0.0,0.0,0.0,0.0,0.0,0.0,0.0,0.0,0.0,0.0,0.0,0.0,0.0,0.0,0.0,0.0,0.0,0.0,0.0,-2.625,-2.6179,-2.5882,-2.5434,0.0,0.0,0.0,0.0,0.0,0.0,0.0,0.0,0.0,0.0,0.0,0.0,0.0,0.0,0.0,0.0,0.0,0.0,0.0,0.0,0.0,0.0,0.0,0.0,0.0,0.0,0.0,0.0,0.0,0.0,0.0,0.0,0.0,0.0,0.0,0.0,0.0,0.0,0.0,0.0,0.0,0.0,0.0,0.0,0.0,0.0,0.0,0.0,0.0,0.0,0.0,0.0,0.0,0.0,0.0,0.0,0.0,0.0,0.0,0.0,0.0,0.0,0.0,0.0,0.0,0.0,0.0,0.0,0.0,0.0,0.0,0.0,0.0,0.0,0.0,0.0,0.0,0.0,0.0,0.0,0.0,0.0,0.0,0.0,0.0,0.0,0.0,0.0,0.0,0.0,0.0,0.0,0.0,0.0,0.0,0.0,0.0,0.0,0.0,0.0,0.0,0.0,0.0,0.0,0.0,0.0,0.0,0.0,0.0,0.0,-2.6736,-2.6907,-2.7026,-2.6688,-2.6335,-2.6059,0.0,0.0,0.0,0.0,0.0,0.0,0.0,0.0,0.0,0.0,0.0,0.0,0.0,0.0,0.0,0.0,0.0,0.0,0.0,0.0,0.0,0.0,0.0,0.0,0.0,0.0,0.0,0.0,0.0,0.0,0.0,0.0,0.0,0.0,0.0,0.0,0.0,0.0,0.0,0.0,0.0,0.0,0.0,0.0,0.0,0.0,0.0,0.0,0.0,0.0,0.0,0.0,0.0,0.0,0.0,0.0,0.0,0.0,0.0,0.0,0.0,0.0,0.0,0.0,0.0,0.0,0.0,0.0,0.0,0.0,0.0,0.0,0.0,0.0,0.0,0.0,0.0,0.0,0.0,0.0,0.0,0.0,0.0,0.0,0.0,0.0,0.0,0.0,0.0,0.0,0.0,0.0,0.0,0.0,0.0,0.0,0.0,0.0,0.0,0.0,0.0,0.0,0.0,0.0,0.0,0.0,0.0,0.0,-2.7141,-2.7181,-2.7167,-2.7207,-2.7152,-2.6842,0.0,0.0,0.0,0.0,0.0,0.0,0.0,0.0,0.0,0.0,0.0,0.0,0.0,0.0,0.0,0.0,0.0,0.0,0.0,0.0,0.0,0.0,0.0,0.0,0.0,0.0,0.0,0.0,0.0,0.0,0.0,0.0,0.0,0.0,0.0,0.0,0.0,0.0,0.0,0.0,0.0,0.0,0.0,0.0,0.0,0.0,0.0,0.0,0.0,0.0,0.0,0.0,0.0,0.0,0.0,0.0,0.0,0.0,0.0,0.0,0.0,0.0,0.0,0.0,0.0,0.0,0.0,0.0,0.0,0.0,0.0,0.0,0.0,0.0,0.0,0.0,0.0,0.0,0.0,0.0,0.0,0.0,0.0,0.0,0.0,0.0,0.0,0.0,0.0,0.0,0.0,0.0,0.0,0.0,0.0,0.0,0.0,0.0,0.0,0.0,0.0,0.0,0.0,0.0,0.0,0.0,0.0,0.0,0.0,-2.7335,-2.7397,-2.7448,-2.7473,-2.7448,-2.7344,0.0,0.0,0.0,0.0,0.0,0.0,0.0,0.0,0.0,0.0,0.0,0.0,0.0,0.0,0.0,0.0,0.0,0.0,0.0,0.0,0.0,0.0,0.0,0.0,0.0,0.0,0.0,0.0,0.0,0.0,0.0,0.0,0.0,0.0,0.0,0.0,0.0,0.0,0.0,0.0,0.0,0.0,0.0,0.0,0.0,0.0,0.0,0.0,0.0,0.0,0.0,0.0,0.0,0.0,0.0,0.0,0.0,0.0,0.0,0.0,0.0,0.0,0.0,0.0,0.0,0.0,0.0,0.0,0.0,0.0,0.0,0.0,0.0,0.0,0.0,0.0,0.0,0.0,0.0,0.0,0.0,0.0,0.0,0.0,0.0,0.0,0.0,0.0,0.0,0.0,0.0,0.0,0.0,0.0,0.0,0.0,0.0,0.0,0.0,0.0,0.0,0.0,0.0,0.0,0.0,0.0,0.0,0.0,0.0,-2.8196,0.0,-2.8216,-2.7991,-2.7991,-2.7875,0.0,0.0,0.0,0.0,0.0,0.0,0.0,0.0,0.0,0.0,0.0,0.0,0.0,0.0,0.0,0.0,0.0,0.0,0.0,0.0,0.0,0.0,0.0,0.0,0.0,0.0,0.0,0.0,0.0,0.0,0.0,0.0,0.0,0.0,0.0,0.0,0.0,0.0,0.0,0.0,0.0,0.0,0.0,0.0,0.0,0.0,0.0,0.0,0.0,0.0,0.0,0.0,0.0,0.0,0.0,0.0,0.0,0.0,0.0,0.0,0.0,0.0,0.0,0.0,0.0,0.0,0.0,0.0,0.0,0.0,0.0,0.0,0.0,0.0,0.0,0.0,0.0,0.0,0.0,0.0,0.0,0.0,0.0,0.0,0.0,0.0,0.0,0.0,0.0,0.0,0.0,0.0,0.0,0.0,0.0,0.0,0.0,0.0,0.0,0.0,0.0,0.0,0.0,0.0,0.0,0.0,0.0,0.0,-2.966,-2.9776,-2.9746,-2.9403,-2.8826,-2.8785,-2.8432,0.0,0.0,0.0,0.0,0.0,0.0,0.0,0.0,0.0,0.0,0.0,0.0,0.0,0.0,0.0,0.0,0.0,0.0,0.0,0.0,0.0,0.0,0.0,0.0,0.0,0.0,0.0,0.0,0.0,0.0,0.0,0.0,0.0,0.0,0.0,0.0,0.0,0.0,0.0,0.0,0.0,0.0,0.0,0.0,0.0,0.0,0.0,0.0,0.0,0.0,0.0,0.0,0.0,0.0,0.0,0.0,0.0,0.0,0.0,0.0,0.0,0.0,0.0,0.0,0.0,0.0,0.0,0.0,0.0,0.0,0.0,0.0,0.0,0.0,0.0,0.0,0.0,0.0,0.0,0.0,0.0,0.0,0.0,0.0,0.0,0.0,0.0,0.0,0.0,0.0,0.0,0.0,0.0,0.0,0.0,0.0,0.0,0.0,0.0,0.0,0.0,0.0,0.0,0.0,0.0,0.0,0.0,0.0,0.0,-2.9675,-2.966,-2.9555,-2.936,-2.9345,-2.9255,0.0,0.0,0.0,0.0,0.0,0.0,0.0,0.0,0.0,0.0,0.0,0.0,0.0,0.0,0.0,0.0,0.0,0.0,0.0,0.0,0.0,0.0,0.0,0.0,0.0,0.0,0.0,0.0,0.0,0.0,0.0,0.0,0.0,0.0,0.0,0.0,0.0,0.0,0.0,0.0,0.0,0.0,0.0,0.0,0.0,0.0,0.0,0.0,0.0,0.0,0.0,0.0,0.0,0.0,0.0,0.0,0.0,0.0,0.0,0.0,0.0,0.0,0.0,0.0,0.0,0.0,0.0,0.0,0.0,0.0,0.0,0.0,0.0,0.0,0.0,0.0,0.0,0.0,0.0,0.0,0.0,0.0,0.0,0.0,0.0,0.0,0.0,0.0,0.0,0.0,0.0,0.0,0.0,0.0,0.0,0.0,0.0,0.0,0.0,0.0,0.0,0.0,0.0,0.0,0.0,0.0,0.0,0.0,0.0,-3.0342,-3.0368,-3.0303,-3.0063,-3.0048,-2.9901,-2.9606,0.0,0.0,0.0,0.0,0.0,0.0,0.0,0.0,0.0,0.0,0.0,0.0,0.0,0.0,0.0,0.0,0.0,0.0,0.0,0.0,0.0,0.0,0.0,0.0,0.0,0.0,0.0,0.0,0.0,0.0,0.0,0.0,0.0,0.0,0.0,0.0,0.0,0.0,0.0,0.0,0.0,0.0,0.0,0.0,0.0,0.0,0.0,0.0,0.0,0.0,0.0,0.0,0.0,0.0,0.0,0.0,0.0,0.0,0.0,0.0,0.0,0.0,0.0,0.0,0.0,0.0,0.0,0.0,0.0,0.0,0.0,0.0,0.0,0.0,0.0,0.0,0.0,0.0,0.0,0.0,0.0,0.0,0.0,0.0,0.0,0.0,0.0,0.0,0.0,0.0,0.0,0.0,0.0,0.0,0.0,0.0,0.0,0.0,0.0,0.0,0.0,0.0,0.0,0.0,0.0,0.0,0.0,0.0,-3.1496,-3.1683,-3.1468,-3.0862,-3.0847,-3.0478,0.0,0.0,0.0,0.0,0.0,0.0,0.0,0.0,0.0,0.0,0.0,0.0,0.0,0.0,0.0,0.0,0.0,0.0,0.0,0.0,0.0,0.0,0.0,0.0,0.0,0.0,0.0,0.0,0.0,0.0,0.0,0.0,0.0,0.0,0.0,0.0,0.0,0.0,0.0,0.0,0.0,0.0,0.0,0.0,0.0,0.0,0.0,0.0,0.0,0.0,0.0,0.0,0.0,0.0,0.0,0.0,0.0,0.0,0.0,0.0,0.0,0.0,0.0,0.0,0.0,0.0,0.0,0.0,0.0,0.0,0.0,0.0,0.0,0.0,0.0,0.0,0.0,0.0,0.0,0.0,0.0,0.0,0.0,0.0,0.0,0.0,0.0,0.0,0.0,0.0,0.0,0.0,0.0,0.0,0.0,0.0,0.0,0.0,0.0,0.0,0.0,0.0,0.0,0.0,0.0,0.0,0.0,0.0,0.0,-3.1496,-3.1524,-3.1478,-3.1342,-3.1327,-3.1209,0.0,0.0,0.0,0.0,0.0,0.0,0.0,0.0,0.0,0.0,0.0,0.0,0.0,0.0,0.0,0.0,0.0,0.0,0.0,0.0,0.0,0.0,0.0,0.0,0.0,0.0,0.0,0.0,0.0,0.0,0.0,0.0,0.0,0.0,0.0,0.0,0.0,0.0,0.0,0.0,0.0,0.0,0.0,0.0,0.0,0.0,0.0,0.0,0.0,0.0,0.0,0.0,0.0,0.0,0.0,0.0,0.0,0.0,0.0,0.0,0.0,0.0,0.0,0.0,0.0,0.0,0.0,0.0,0.0,0.0,0.0,0.0,0.0,0.0,0.0,0.0,0.0,0.0,0.0,0.0,0.0,0.0,0.0,0.0,0.0,0.0,0.0,0.0,0.0,0.0,0.0,0.0,0.0,0.0,0.0,0.0,0.0,0.0,0.0,0.0,0.0,0.0,0.0,0.0,0.0,0.0,0.0,0.0,-3.1496,-3.1496,-3.1496,-3.1496,-3.1496,-3.1496,-3.1496,0.0,0.0,0.0,0.0,0.0,0.0,0.0,0.0,0.0,0.0,0.0,0.0,0.0,0.0,0.0,0.0,0.0,0.0,0.0,0.0,0.0,0.0,0.0,0.0,0.0,0.0,0.0,0.0,0.0,0.0,0.0,0.0,0.0,0.0,0.0,0.0,0.0,0.0,0.0,0.0,0.0,0.0,0.0,0.0,0.0,0.0,0.0,0.0,0.0,0.0,0.0,0.0,0.0,0.0,0.0,0.0,0.0,0.0,0.0,0.0,0.0,0.0,0.0,0.0,0.0,0.0,0.0,0.0,0.0,0.0,0.0,0.0,0.0,0.0,0.0,0.0,0.0,0.0,0.0,0.0,0.0,0.0,0.0,0.0,0.0,0.0,0.0,0.0,0.0,0.0,0.0,0.0,0.0,0.0,0.0,0.0,0.0,0.0,0.0,0.0,0.0,0.0,0.0,0.0,0.0,0.0,0.0,0.0,-3.1482,-3.1496,-3.1496,-3.1496,-3.1496,-3.1496,-3.1511,0.0,0.0,0.0,0.0,0.0,0.0,0.0,0.0,0.0,0.0,0.0,0.0,0.0,0.0,0.0,0.0,0.0,0.0,0.0,0.0,0.0,0.0,0.0,0.0,0.0,0.0,0.0,0.0,0.0,0.0,0.0,0.0,0.0,0.0,0.0,0.0,0.0,0.0,0.0,0.0,0.0,0.0,0.0,0.0,0.0,0.0,0.0,0.0,0.0,0.0,0.0,0.0,0.0,0.0,0.0,0.0,0.0,0.0,0.0,0.0,0.0,0.0,0.0,0.0,0.0,0.0,0.0,0.0,0.0,0.0,0.0,0.0,0.0,0.0,0.0,0.0,0.0,0.0,0.0,0.0,0.0,0.0,0.0,0.0,0.0,0.0,0.0,0.0,0.0,0.0,0.0,0.0,0.0,0.0,0.0,0.0,0.0,0.0,0.0,0.0,0.0,0.0,0.0,0.0,0.0,0.0,0.0,0.0,-3.1424,-3.1496,-3.1496,-3.1496,-3.1496,-3.1496,-3.1453,0.0,0.0,0.0,0.0,0.0,0.0,0.0,0.0,0.0,0.0,0.0,0.0,0.0,0.0,0.0,0.0,0.0,0.0,0.0,0.0,0.0,0.0,0.0,0.0,0.0,0.0,0.0,0.0,0.0,0.0,0.0,0.0,0.0,0.0,0.0,0.0,0.0,0.0,0.0,0.0,0.0,0.0,0.0,0.0,0.0,0.0,0.0,0.0,-2.7815,0.0,0.0,0.0,0.0,0.0,0.0,0.0,0.0,0.0,0.0,0.0,0.0,0.0,0.0,0.0,0.0,0.0,0.0,0.0,0.0,0.0,0.0,0.0,0.0,0.0,0.0,0.0,0.0,0.0,0.0,0.0,0.0,0.0,0.0,0.0,0.0,0.0,0.0,0.0,0.0,0.0,0.0,0.0,0.0,0.0,0.0,0.0,0.0,0.0,0.0,0.0,0.0,0.0,0.0,0.0,0.0,0.0,0.0,0.0,-3.1278,-3.1496,-3.1496,-3.1496,-3.1496,-3.1496,-3.1438,0.0,0.0,0.0,0.0,0.0,0.0,0.0,0.0,0.0,0.0,0.0,0.0,0.0,0.0,0.0,0.0,0.0,0.0,0.0,0.0,0.0,0.0,0.0,0.0,0.0,0.0,0.0,0.0,0.0,0.0,0.0,0.0,0.0,0.0,0.0,0.0,0.0,0.0,0.0,0.0,0.0,0.0,0.0,0.0,0.0,0.0,0.0,0.0,0.0,0.0,0.0,0.0,0.0,0.0,0.0,0.0,0.0,0.0,0.0,0.0,0.0,0.0,0.0,0.0,0.0,0.0,0.0,0.0,0.0,0.0,0.0,0.0,0.0,0.0,0.0,0.0,0.0,0.0,0.0,0.0,0.0,0.0,0.0,0.0,0.0,0.0,0.0,0.0,0.0,0.0,0.0,0.0,0.0,0.0,0.0,0.0,0.0,0.0,0.0,0.0,0.0,0.0,0.0,0.0,0.0,0.0,0.0,-3.0732,-3.1073,-3.1307,-3.1307,-3.138,-3.1496,-3.1322,-3.1234,-3.119,0.0,0.0,0.0,0.0,0.0,0.0,0.0,0.0,0.0,0.0,0.0,0.0,0.0,0.0,0.0,0.0,0.0,0.0,0.0,0.0,0.0,0.0,0.0,0.0,0.0,0.0,0.0,0.0,0.0,0.0,0.0,0.0,0.0,0.0,0.0,0.0,0.0,0.0,-2.7314,-2.7432,0.0,0.0,0.0,0.0,0.0,0.0,0.0,0.0,-2.7899,0.0,0.0,0.0,0.0,0.0,0.0,0.0,0.0,0.0,0.0,0.0,0.0,0.0,0.0,0.0,0.0,0.0,0.0,0.0,0.0,0.0,0.0,0.0,0.0,0.0,0.0,0.0,0.0,0.0,0.0,0.0,0.0,0.0,0.0,0.0,0.0,0.0,0.0,0.0,0.0,0.0,0.0,0.0,0.0,0.0,0.0,0.0,0.0,0.0,0.0,0.0,0.0,0.0,0.0,0.0,0.0,-2.9107,-3.0115,-3.0613,-3.0494,-3.0494,-3.0807,-3.1438,-3.0583,-3.0282,-3.0687,0.0,0.0,0.0,0.0,0.0,0.0,0.0,0.0,0.0,0.0,0.0,0.0,0.0,0.0,0.0,0.0,0.0,0.0,0.0,0.0,0.0,0.0,0.0,0.0,0.0,0.0,0.0,0.0,0.0,0.0,0.0,0.0,0.0,0.0,0.0,0.0,0.0,0.0,0.0,-2.7924,-2.8047,0.0,0.0,0.0,0.0,0.0,0.0,0.0,0.0,-2.9056,0.0,0.0,0.0,0.0,0.0,0.0,0.0,0.0,0.0,0.0,0.0,0.0,0.0,0.0,0.0,0.0,0.0,0.0,0.0,0.0,0.0,0.0,0.0,0.0,0.0,0.0,0.0,0.0,0.0,0.0,0.0,0.0,0.0,0.0,0.0,0.0,0.0,0.0,0.0,0.0,0.0,0.0,0.0,0.0,0.0,0.0,0.0,0.0,0.0,0.0,0.0,0.0,0.0,0.0,0.0,-2.8633,-2.9188,-2.9563,-2.9642,-2.9628,-2.9782,-3.0178,-2.9763,-2.9591,0.0,0.0,0.0,0.0,0.0,0.0,0.0,0.0,0.0,0.0,0.0,0.0,0.0,0.0,0.0,0.0,0.0,0.0,0.0,0.0,0.0,0.0,0.0,0.0,0.0,0.0,0.0,0.0,0.0,0.0,0.0,0.0,0.0,0.0,0.0,0.0,0.0,0.0,0.0,0.0,-2.7539,-2.767,-2.8097,0.0,0.0,0.0,0.0,0.0,0.0,-2.9471,-2.9502,0.0,0.0,0.0,0.0,0.0,0.0,0.0,0.0,0.0,0.0,0.0,0.0,0.0,0.0,0.0,0.0,0.0,0.0,0.0,0.0,0.0,0.0,0.0,0.0,0.0,0.0,0.0,0.0,0.0,0.0,0.0,0.0,0.0,0.0,0.0,0.0,0.0,0.0,0.0,0.0,0.0,0.0,0.0,0.0,0.0,0.0,0.0,0.0,0.0,0.0,0.0,0.0,0.0,0.0,0.0,-2.8046,-2.8293,-2.8538,-2.8716,-2.8748,-2.8812,-2.8989,-2.8935,-2.8821,0.0,0.0,0.0,0.0,0.0,0.0,0.0,0.0,0.0,0.0,0.0,0.0,0.0,0.0,0.0,0.0,0.0,0.0,0.0,0.0,0.0,0.0,0.0,0.0,0.0,0.0,0.0,0.0,0.0,0.0,0.0,0.0,0.0,0.0,0.0,0.0,0.0,0.0,0.0,0.0,0.0,-2.7278,-2.7552,-2.7459,0.0,0.0,0.0,0.0,-2.9468,-2.9803,0.0,0.0,0.0,0.0,0.0,0.0,0.0,0.0,0.0,0.0,0.0,0.0,0.0,0.0,0.0,0.0,0.0,0.0,0.0,0.0,0.0,0.0,0.0,0.0,0.0,0.0,0.0,0.0,0.0,0.0,0.0,0.0,0.0,0.0,0.0,0.0,0.0,0.0,0.0,0.0,0.0,0.0,0.0,0.0,0.0,0.0,0.0,0.0,0.0,0.0,0.0,0.0,0.0,0.0,0.0,0.0,-2.6969,-2.7829,-2.8163,-2.7855,-2.7868,-2.8201,-2.8971,-2.7999,-2.765,0.0,0.0,0.0,0.0,0.0,0.0,0.0,0.0,0.0,0.0,0.0,0.0,0.0,0.0,0.0,0.0,0.0,0.0,0.0,0.0,0.0,0.0,0.0,0.0,0.0,0.0,0.0,0.0,0.0,0.0,0.0,0.0,0.0,0.0,0.0,0.0,0.0,0.0,0.0,0.0,0.0,-2.7808,-2.8502,-2.8361,-2.8265,0.0,0.0,-2.9962,-3.038,-3.0924,0.0,0.0,0.0,0.0,0.0,0.0,0.0,0.0,0.0,0.0,0.0,0.0,0.0,0.0,0.0,0.0,0.0,0.0,0.0,0.0,0.0,0.0,0.0,0.0,0.0,0.0,0.0,0.0,0.0,0.0,0.0,0.0,0.0,0.0,0.0,0.0,0.0,0.0,0.0,0.0,0.0,0.0,0.0,0.0,0.0,0.0,0.0,0.0,0.0,0.0,0.0,0.0,0.0,0.0,0.0,-2.7401,-2.633,-2.6952,-2.7209,-2.704,-2.704,-2.7196,-2.7584,-2.6947,-2.6756,0.0,0.0,0.0,0.0,0.0,0.0,0.0,0.0,0.0,0.0,0.0,0.0,0.0,0.0,0.0,0.0,0.0,0.0,0.0,0.0,0.0,0.0,0.0,0.0,0.0,0.0,0.0,0.0,0.0,0.0,0.0,0.0,0.0,0.0,0.0,0.0,0.0,0.0,0.0,0.0,0.0,0.0,-2.7756,-2.7743,0.0,0.0,0.0,-2.9456,-3.0282,0.0,0.0,0.0,0.0,0.0,0.0,0.0,0.0,0.0,0.0,0.0,0.0,0.0,0.0,0.0,0.0,0.0,0.0,0.0,0.0,0.0,0.0,0.0,0.0,0.0,0.0,0.0,0.0,0.0,0.0,0.0,0.0,0.0,0.0,0.0,0.0,0.0,0.0,0.0,0.0,0.0,0.0,0.0,0.0,0.0,0.0,0.0,0.0,0.0,0.0,0.0,0.0,0.0,0.0,0.0,0.0,0.0,-2.5489,-2.5886,-2.6094,-2.6129,-2.6383,-2.6383,-2.6129,-2.5978,0.0,0.0,0.0,0.0,0.0,0.0,0.0,0.0,0.0,0.0,0.0,0.0,0.0,0.0,0.0,0.0,0.0,0.0,0.0,0.0,0.0,0.0,0.0,0.0,0.0,0.0,0.0,-2.4023,0.0,0.0,0.0,0.0,0.0,0.0,0.0,0.0,0.0,0.0,0.0,0.0,0.0,0.0,-2.7087,-2.6952,-2.7053,-2.7255,0.0,0.0,-2.8698,-2.9639,-2.9903,-3.0103,0.0,0.0,0.0,0.0,0.0,0.0,0.0,0.0,0.0,0.0,0.0,0.0,0.0,0.0,0.0,0.0,0.0,0.0,0.0,0.0,0.0,0.0,0.0,0.0,0.0,0.0,0.0,0.0,0.0,0.0,0.0,0.0,0.0,0.0,0.0,0.0,0.0,0.0,0.0,0.0,0.0,0.0,0.0,0.0,0.0,0.0,0.0,0.0,0.0,0.0,0.0,0.0,0.0,0.0,-2.5115,-2.4263,-2.4826,-2.5087,-2.5123,-2.6013,-2.606,-2.5158,-2.5075,-2.4636,0.0,0.0,0.0,0.0,0.0,0.0,0.0,0.0,0.0,0.0,0.0,0.0,0.0,0.0,0.0,0.0,0.0,0.0,0.0,0.0,0.0,0.0,0.0,0.0,0.0,0.0,0.0,0.0,0.0,0.0,0.0,0.0,0.0,0.0,0.0,0.0,0.0,0.0,0.0,0.0,0.0,-2.6748,-2.6714,-2.6714,-2.6816,0.0,0.0,-2.813,-2.8371,-2.8807,-2.916,-2.939,0.0,0.0,0.0,0.0,0.0,0.0,0.0,0.0,0.0,0.0,0.0,0.0,0.0,0.0,0.0,0.0,0.0,0.0,0.0,0.0,0.0,0.0,0.0,0.0,0.0,0.0,0.0,0.0,0.0,0.0,0.0,0.0,0.0,0.0,0.0,0.0,0.0,0.0,0.0,0.0,0.0,0.0,0.0,0.0,0.0,0.0,0.0,0.0,0.0,0.0,0.0,0.0,0.0,-2.4545,-2.3632,-2.3902,-2.4072,-2.4072,-2.4445,-2.4469,-2.4084,-2.3854,-2.3599,0.0,0.0,0.0,0.0,0.0,0.0,0.0,0.0,0.0,0.0,0.0,0.0,0.0,0.0,0.0,0.0,0.0,0.0,0.0,0.0,0.0,0.0,0.0,0.0,0.0,0.0,0.0,0.0,-2.4228,-2.4011,-2.4227,0.0,0.0,0.0,0.0,0.0,0.0,0.0,0.0,0.0,0.0,-2.6679,-2.6589,-2.6658,0.0,0.0,-2.704,-2.7417,-2.8032,-2.8149,-2.8344,-2.873,-2.8917,0.0,0.0,0.0,0.0,0.0,0.0,0.0,0.0,0.0,0.0,0.0,0.0,0.0,0.0,0.0,0.0,0.0,0.0,0.0,0.0,0.0,0.0,0.0,0.0,0.0,0.0,0.0,0.0,0.0,0.0,0.0,0.0,0.0,0.0,0.0,0.0,0.0,0.0,0.0,0.0,0.0,0.0,0.0,0.0,0.0,0.0,0.0,0.0,0.0,0.0,0.0,0.0,-2.3569,-2.2681,-2.2936,-2.3036,-2.3073,-2.3368,-2.3368,-2.3036,-2.2776,-2.2601,0.0,0.0,0.0,0.0,0.0,0.0,0.0,0.0,0.0,0.0,0.0,0.0,0.0,0.0,0.0,0.0,0.0,0.0,0.0,0.0,0.0,0.0,0.0,0.0,0.0,0.0,0.0,0.0,-2.3585,-2.3375,-2.3556,0.0,0.0,0.0,0.0,0.0,0.0,0.0,0.0,0.0,0.0,-2.6602,-2.643,-2.6487,-2.6521,-2.6487,-2.6521,-2.6748,-2.7271,-2.7351,-2.7471,-2.7887,0.0,0.0,0.0,0.0,0.0,0.0,0.0,0.0,0.0,0.0,0.0,0.0,0.0,0.0,0.0,0.0,0.0,0.0,0.0,0.0,0.0,0.0,0.0,0.0,0.0,0.0,0.0,0.0,0.0,0.0,-2.2794,0.0,0.0,0.0,0.0,0.0,0.0,0.0,0.0,0.0,0.0,0.0,0.0,0.0,0.0,0.0,0.0,0.0,0.0,0.0,0.0,0.0,0.0,-2.214,-2.1264,-2.1814,-2.2048,-2.2038,-2.2962,-2.3021,-2.2075,-2.2038,-2.168,-2.1012,0.0,0.0,0.0,0.0,0.0,0.0,0.0,0.0,0.0,0.0,0.0,0.0,0.0,0.0,0.0,0.0,0.0,0.0,0.0,0.0,0.0,0.0,0.0,0.0,0.0,0.0,-2.244,-2.23,-2.2166,0.0,0.0,0.0,0.0,0.0,0.0,0.0,0.0,0.0,0.0,-2.6258,-2.643,-2.6236,-2.6213,-2.6131,-2.5945,-2.6097,-2.6154,-2.6002,-2.628,-2.6568,0.0,0.0,0.0,0.0,0.0,0.0,0.0,0.0,0.0,0.0,0.0,0.0,0.0,0.0,0.0,0.0,0.0,0.0,0.0,0.0,0.0,0.0,0.0,0.0,0.0,0.0,0.0,-2.253,-2.253,0.0,0.0,0.0,0.0,0.0,0.0,0.0,0.0,0.0,0.0,0.0,-2.1414,-2.1143,0.0,0.0,0.0,0.0,0.0,0.0,0.0,0.0,0.0,0.0,0.0,0.0,-2.1988,-2.1431,-2.1431,-2.146,-2.147,-2.2098,-2.2147,-2.151,-2.15,-2.1291,-2.0916,0.0,0.0,0.0,0.0,0.0,0.0,0.0,0.0,0.0,0.0,0.0,0.0,0.0,0.0,0.0,0.0,0.0,0.0,0.0,0.0,0.0,0.0,0.0,0.0,0.0,-2.1425,0.0,0.0,0.0,0.0,0.0,0.0,0.0,0.0,0.0,0.0,0.0,-2.448,-2.4671,-2.5146,-2.5523,-2.5571,-2.5618,-2.5688,0.0,0.0,0.0,0.0,0.0,0.0,0.0,0.0,0.0,0.0,0.0,0.0,0.0,0.0,-2.802,-2.83,-2.861,-2.9012,-2.9656,0.0,0.0,0.0,0.0,0.0,0.0,0.0,0.0,0.0,0.0,0.0,0.0,0.0,0.0,-2.1293,0.0,-2.1293,0.0,0.0,0.0,0.0,0.0,0.0,0.0,0.0,-2.0931,-2.103,-2.1414,-2.1162,-2.1182,0.0,-2.1465,-2.1693,0.0,0.0,0.0,0.0,0.0,0.0,0.0,0.0,-2.2091,-2.1637,-2.1496,-2.1465,-2.1475,-2.1738,-2.1748,-2.1465,-2.1268,-2.1075,-2.08,-2.0925,-2.1002,0.0,0.0,0.0,0.0,0.0,0.0,0.0,0.0,0.0,0.0,0.0,0.0,0.0,0.0,0.0,0.0,0.0,0.0,0.0,0.0,0.0,0.0,0.0,-2.1022,0.0,0.0,0.0,0.0,0.0,0.0,0.0,0.0,0.0,-2.2628,-2.318,-2.3599,-2.3793,-2.4276,-2.4636,-2.4802,0.0,0.0,0.0,0.0,0.0,0.0,0.0,-2.5312,-2.5465,-2.5721,-2.6035,-2.6358,-2.6692,-2.6897,-2.6897,0.0,0.0,-2.7689,-2.7973,-2.8306,-2.8876,-2.9487,-3.0117,-3.0718,-3.1322,-3.1698,0.0,0.0,0.0,0.0,0.0,0.0,0.0,0.0,-1.9188,-1.9325,0.0,-1.9309,0.0,0.0,0.0,0.0,0.0,-1.9077,0.0,0.0,-2.0056,-2.0596,-2.1758,-2.1729,-2.177,-2.177,-2.1709,-2.1709,-2.1761,-2.1802,0.0,0.0,0.0,0.0,0.0,0.0,-2.2314,-2.1955,-2.1904,-2.1904,-2.1904,-2.1924,-2.1934,-2.1894,-2.1484,-2.1055,-2.0654,-2.0644,-2.0625,-2.0605,-2.0605,0.0,0.0,0.0,0.0,0.0,0.0,0.0,0.0,0.0,0.0,0.0,0.0,0.0,0.0,0.0,0.0,0.0,0.0,0.0,0.0,-2.078,0.0,0.0,0.0,0.0,0.0,0.0,0.0,0.0,0.0,0.0,-2.1949,-2.2569,-2.3032,-2.3217,0.0,0.0,0.0,0.0,-2.3768,-2.3886,-2.4202,-2.4383,-2.4189,-2.4154,-2.4409,-2.5123,0.0,0.0,-2.6267,-2.6589,-2.6679,-2.6692,-2.6692,-2.6816,-2.7201,-2.7536,-2.7796,-2.7999,-2.8903,-2.9732,-2.9981,-3.0748,-3.1424,-2.119,0.0,0.0,0.0,0.0,-1.9064,-1.9148,-1.9239,-1.9431,-1.9439,-1.9294,-1.92,0.0,0.0,0.0,0.0,0.0,0.0,-1.8653,-1.922,-1.906,-1.9379,-2.0031,-1.972,-1.9539,-1.9539,-1.9368,-1.9281,-1.9281,-2.0138,-2.1203,-2.2467,0.0,0.0,0.0,0.0,-2.2451,-2.2344,-2.2334,-2.2334,-2.2324,-2.2627,-2.2637,-2.2344,-2.1924,-2.1494,-2.1064,-2.1045,-2.0889,-2.0625,-2.0615,0.0,0.0,0.0,0.0,0.0,0.0,0.0,0.0,0.0,0.0,0.0,0.0,0.0,0.0,0.0,0.0,0.0,0.0,0.0,-2.0615,-2.0644,-2.0741,0.0,0.0,0.0,0.0,0.0,0.0,0.0,0.0,0.0,-2.1031,-2.1415,-2.1797,0.0,0.0,-2.2644,-2.2804,-2.283,-2.2905,-2.3132,0.0,0.0,0.0,-2.3902,-2.4337,-2.442,-2.5241,-2.5758,-2.5476,-2.6047,-2.6555,-2.6555,-2.6555,-2.6602,-2.6692,-2.6794,-2.7087,-2.7637,-2.8084,-2.8538,-2.916,-3.0011,-3.0644,-1.9818,-1.9015,-1.9613,-1.9331,-1.852,-1.8564,-1.8418,-1.8277,-1.8417,-1.8453,-1.8364,-1.8268,-1.8067,-1.7864,-1.7857,0.0,0.0,0.0,-1.804,-1.8682,-1.8587,-1.8957,-1.9676,-1.9464,-1.9312,-1.9304,-1.9146,-1.9093,-1.9085,-1.9715,-2.0543,-2.1679,0.0,0.0,-2.3081,-2.2838,-2.2721,-2.2721,-2.2721,-2.2721,-2.2764,-2.2964,-2.2896,-2.2487,-2.1815,-2.1188,-2.0731,-2.025,-2.0131,-2.0325,-2.0214,-2.0089,0.0,0.0,0.0,0.0,0.0,0.0,0.0,0.0,0.0,0.0,0.0,-2.0644,-2.0508,0.0,0.0,0.0,-2.0615,-2.0615,-2.0615,-2.0615,0.0,0.0,0.0,0.0,0.0,0.0,0.0,-2.0819,-2.078,-2.0741,-2.0605,-2.0799,-2.1051,-2.1244,-2.1474,-2.1693,-2.1921,0.0,-2.2025,-2.2285,-2.2344,-2.2392,-2.2531,-2.2846,-2.3132,-2.3257,-2.4301,-2.4957,-2.4564,-2.5264,-2.5873,-2.5955,-2.6211,-2.6487,-2.6487,-2.6487,-2.6611,-2.7129,-2.7484,-2.7887,-2.8395,-2.9456,-3.0313,-1.8798,-1.8675,-1.9382,-1.9182,-1.8401,-1.8138,-1.7621,-1.6854,-1.6854,-1.6935,-1.718,-1.6914,-1.7032,-1.7491,-1.7491,0.0,-1.7406,-1.7164,-1.7548,-1.8368,-1.839,-1.903,-2.0136,-2.0136,-2.0127,-2.0136,-2.0103,-2.0095,-2.0071,-1.9934,-2.0006,-2.0304,-2.1643,-2.2496,-2.2851,-2.288,-2.2871,-2.288,-2.2871,-2.288,-2.288,-2.2842,-2.265,-2.2274,-2.1188,-2.0399,-1.9887,-1.8844,-1.8741,-1.9765,-1.9487,-1.9333,-1.9474,0.0,0.0,0.0,0.0,0.0,0.0,0.0,0.0,0.0,0.0,0.0,0.0,0.0,0.0,0.0,-2.0527,0.0,-2.0615,-2.0615,0.0,0.0,0.0,-2.0615,-2.0615,-2.0615,-2.0615,-2.0615,0.0,0.0,-2.0615,-2.0605,-2.0693,-2.0867,-2.0858,-2.0945,-2.1128,-2.1167,-2.1195,-2.1436,-2.1617,-2.1693,-2.1721,-2.1568,-2.1662,-2.2075,-2.284,-2.3514,-2.3489,-2.4217,-2.4814,-2.4898,-2.5616,-2.6267,-2.6336,-2.6314,-2.6418,-2.6487,-2.7095,-2.7571,-2.7683,-2.8844,-2.9919,-1.9219,-1.9223,-1.9388,-1.9093,-1.8496,-1.8386,-1.8251,-1.807,-1.807,-1.7996,-1.7789,-1.7729,-1.7527,-1.7296,-1.7252,-1.7123,-1.69,-1.6807,-1.6907,-1.7114,-1.7383,-1.7638,-1.7936,-1.7936,-1.7936,-1.7922,-1.7696,-1.7584,-1.7626,-1.8452,-1.8894,-1.9025,-2.0266,-2.0938,-2.1024,-2.1024,-2.1032,-2.1032,-2.1032,-2.1024,-2.1024,-2.0797,-2.0591,-2.0514,-2.0051,-1.955,-1.91,-1.882,-1.8652,-1.8647,-1.8547,-1.8454,-1.8326,-1.8978,0.0,0.0,0.0,0.0,0.0,0.0,0.0,0.0,0.0,-1.9953,-1.9576,0.0,-1.939,0.0,-1.9863,-2.0216,-2.0566,-2.0615,0.0,0.0,-2.0615,-2.0615,-2.0615,-2.0615,-2.0615,-2.0615,-2.0615,-2.0615,-2.0615,-2.0615,-2.0644,-2.0683,-2.0654,-2.0693,-2.0722,-2.076,-2.077,-2.0799,-2.0876,-2.0876,-2.0954,-2.1423,-2.1821,-2.2,-2.2802,-2.322,-2.2478,-2.3184,-2.3854,-2.3843,-2.4036,-2.4516,-2.5217,-2.537,-2.5664,-2.6314,-2.6658,-2.6782,-2.6816,-2.7637,-2.833,-1.9424,-1.9424,-1.9424,-1.9178,-1.8871,-1.8738,-1.8611,-1.8497,-1.8497,-1.8397,-1.8243,-1.8189,-1.8063,-1.7749,-1.7795,-1.7655,-1.7502,-1.7502,-1.7502,-1.7508,-1.7669,-1.7795,-1.7802,-1.7795,-1.7749,-1.7795,-1.7575,-1.7428,-1.7308,-1.796,-1.8242,-1.8094,-1.883,-1.9182,-1.9217,-1.9955,-2.0377,-2.0377,-2.0377,-2.0377,-2.0377,-2.0181,-2.0122,-2.0114,-1.9318,-1.8768,-1.8487,-1.7835,-1.7621,-1.794,-1.7775,-1.7637,-1.7593,-1.8181,-1.8406,0.0,0.0,0.0,0.0,0.0,0.0,0.0,0.0,0.0,0.0,0.0,-1.8287,-1.8278,-1.9006,-1.9608,-1.9883,-2.0323,-2.0683,-2.084,-2.0859,-2.0937,-2.1173,-2.1202,-2.1192,-2.1152,-2.1192,-2.1192,-2.1192,-2.1192,-2.1192,-2.1152,-2.0986,-2.0791,-2.0654,-2.0615,-2.0615,-2.0615,-2.0615,-2.0615,-2.0615,-2.1049,-2.1375,-2.1413,-2.1859,-2.201,-2.1489,-2.2188,-2.285,-2.285,-2.3184,-2.3661,-2.4228,-2.4337,-2.466,-2.5511,-2.5838,-2.6025,-2.643,-2.7142,-2.7716,-1.9419,-1.9419,-1.9444,-1.9424,-1.9403,-1.9092,-1.8838,-1.8604,-1.8597,-1.8597,-1.8604,-1.8604,-1.8584,-1.8544,-1.8551,-1.8524,-1.8497,-1.8497,-1.8497,-1.8497,-1.8497,-1.8497,-1.8497,-1.8497,-1.8497,-1.8497,-1.8497,-1.8357,-1.8055,-1.8055,-1.7963,-1.7709,-1.7695,-1.7702,-1.7775,-1.933,-2.0125,-2.0029,-2.0029,-2.0029,-2.0037,-1.9989,-1.9965,-1.9949,-1.8636,-1.7949,-1.7893,-1.6642,-1.6408,-1.7475,-1.716,-1.6969,-1.7106,-1.7591,-1.7576,0.0,-1.778,0.0,0.0,0.0,0.0,0.0,0.0,0.0,0.0,-1.7507,-1.7188,-1.7056,-1.8117,-1.882,-1.8861,-1.9757,-2.0434,-2.0757,-2.0814,-2.1039,-2.1559,-2.1534,-2.1492,-2.1617,-2.1534,-2.1451,-2.1546,-2.1658,-2.1658,-2.1765,-2.1533,-2.1172,-2.0791,-2.0644,-2.0615,-2.0615,-2.0615,-2.0615,-2.0615,-2.0605,-2.0644,-2.0644,-2.0722,-2.0615,-2.0683,-2.1298,-2.1811,-2.1886,-2.244,-2.3073,-2.3257,-2.3294,-2.3672,-2.46,-2.4814,-2.5182,-2.6233,-2.7007,-2.7517,-1.972,-1.97,-1.9524,-1.9424,-1.9417,-1.9305,-1.9252,-1.9205,-1.9199,-1.9199,-1.9263,-1.9256,-1.9065,-1.8844,-1.8844,-1.8718,-1.8497,-1.8497,-1.8497,-1.8497,-1.8497,-1.8497,-1.8497,-1.8497,-1.8497,-1.8497,-1.8497,-1.8464,-1.841,-1.841,-1.8377,-1.8317,-1.8323,-1.8317,-1.8365,0.0,0.0,0.0,-1.8123,-1.8123,-1.8116,-1.7937,-1.7812,-1.7798,-1.7268,0.0,-1.6961,-1.6666,-1.6632,-1.6873,-1.6593,0.0,0.0,0.0,0.0,0.0,0.0,0.0,0.0,0.0,0.0,0.0,-1.7084,-1.6951,-1.6862,-1.69,-1.7023,-1.7153,-1.7575,-1.8004,-1.8294,-1.8515,-1.871,-1.8735,-1.8786,-1.9212,-2.0171,-1.9536,-1.9272,-2.0214,-1.9536,-1.9324,-2.025,-2.0382,-2.0755,-2.1624,-2.1816,-2.1592,-2.1142,-2.0781,-2.0625,-2.0615,-2.0615,-2.0615,-2.0615,-2.0615,-2.0615,-2.0615,-2.0615,-2.0615,-2.0605,-2.0712,-2.0905,-2.0895,-2.1011,-2.1451,-2.214,-2.2291,-2.259,-2.3588,-2.3781,-2.4325,-2.6094,-2.6589,-2.6714,-2.0013,0.0,-1.9853,-1.9713,0.0,-1.9579,-1.9499,-1.9424,-1.9424,-1.9424,-1.9424,-1.9424,-1.9285,-1.9138,-1.9145,-1.9065,-1.8925,-1.8925,-1.8925,-1.8925,-1.8925,-1.8925,-1.8918,-1.8925,-1.8988,-1.8918,-1.8918,-1.8844,-1.8704,-1.8704,-1.8631,-1.8497,-1.8497,-1.8497,-1.8497,-1.8497,-1.8263,-1.7816,-1.7662,-1.7589,-1.7582,-1.7435,-1.7361,-1.74,0.0,0.0,0.0,0.0,0.0,0.0,0.0,0.0,0.0,0.0,0.0,-1.6414,-1.6636,-1.6784,-1.6777,-1.673,-1.6659,-1.6364,-1.6125,-1.5938,-1.5893,-1.5964,-1.6006,-1.6094,-1.669,-1.7208,-1.7419,-1.7897,-1.8273,-1.848,-1.8496,-1.8869,-1.9519,-1.9209,-1.9076,-1.9562,-1.9253,-1.9121,-1.965,-1.9737,-2.0,-2.0576,-2.0553,-2.0586,-2.0894,-2.0926,-2.083,-2.0654,-2.0615,-2.0615,-2.0615,-2.0615,-2.0615,-2.0615,-2.0615,-2.0615,-2.0615,-2.0615,-2.0615,-2.0615,-2.0615,-2.0789,-2.1155,-2.1298,-2.1583,-2.2478,-2.2776,-2.322,-2.4719,-2.5394,-2.5921,-2.0314,-2.0307,-2.0261,-2.0094,-1.988,-1.988,-1.9713,-1.9504,0.0,0.0,0.0,-1.9424,-1.9424,-1.9424,-1.9424,-1.9424,-1.9424,-1.9424,-1.9424,-1.9424,-1.9424,-1.9424,-1.9424,-1.9424,-1.9424,-1.9424,-1.9424,-1.9239,-1.9011,-1.8998,-1.8878,-1.8664,-1.8651,-1.8651,-1.8644,-1.8597,-1.8444,-1.8149,-1.7896,-1.7742,-1.7742,-1.7689,-1.7669,-1.7662,-1.7434,-1.728,-1.728,-1.6994,-1.686,-1.686,-1.6807,-1.6673,-1.6489,-1.6632,-1.6593,-1.6307,-1.6511,-1.6511,-1.6327,-1.6286,-1.613,-1.5645,-1.5631,-1.5577,-1.5422,-1.53,-1.5243,-1.5243,-1.6073,-1.6637,-1.6622,-1.7331,-1.7987,-1.8308,-1.8322,-1.8491,-1.9029,-1.8948,-1.8778,-1.9085,-1.887,-1.894,-1.9099,-1.9136,-1.9268,-1.941,-1.9396,-1.9276,-2.0201,-2.0833,-2.1045,-2.0693,-2.0615,-2.0615,-2.0615,-2.0615,-2.0615,-2.0615,-2.0615,-2.0615,-2.0615,-2.0615,-2.0615,-2.0615,-2.0615,-2.0605,-2.0605,-2.0683,-2.0867,-2.1593,-2.1773,-2.2038,-2.3036,-2.3902,-2.4779,-2.0608,-2.0595,-2.0341,-2.0147,-2.0174,-2.0113,-2.0007,-1.9726,-1.9472,-1.9424,-1.9424,-1.9424,-1.9424,-1.9424,-1.9424,-1.9424,-1.9424,-1.9424,-1.9424,0.0,-1.9424,-1.9424,-1.9424,-1.9424,-1.9424,-1.9424,-1.9424,-1.941,-1.937,-1.9299,-1.9343,-1.9239,-1.9303,-1.9296,-1.9283,-1.8991,-1.8844,-1.8791,-1.851,-1.8364,-1.8364,-1.8116,-1.7929,-1.7916,-1.7682,-1.7522,-1.7522,-1.7482,-1.7462,-1.7455,-1.7273,-1.7119,-1.7072,-1.6831,-1.6677,-1.6636,-1.6679,-1.6679,-1.663,-1.6636,-1.6616,-1.6526,-1.6526,-1.6293,-1.5772,-1.5993,-1.6134,-1.6147,-1.6454,-1.6699,-1.6686,-1.6677,-1.6724,-1.6718,-1.6422,-1.6666,-1.7785,-1.7091,-1.6857,-1.7824,-1.6983,-1.6842,-1.777,-1.7963,-1.8319,-1.9131,-1.9141,-1.9298,-1.928,-2.0318,-2.0934,-2.0732,-2.0615,-2.0615,-2.0615,-2.0615,-2.0615,-2.0615,-2.0615,-2.0615,-2.0615,-2.0615,-2.0615,-2.0615,-2.0615,-2.0615,-2.0615,-2.0615,-2.0683,-2.0895,-2.0934,-2.1193,-2.2038,-2.2451,-2.311,-2.0915,-2.0895,-2.0762,-2.0615,-2.0461,-2.024,-2.0067,-1.98,-1.9666,-1.9512,-1.943,-1.9424,-1.9424,-1.9424,-1.9424,-1.9424,-1.9424,-1.9424,-1.9424,-1.9424,-1.9424,-1.9424,-1.9424,-1.9424,-1.9424,-1.9424,-1.9424,-1.9424,-1.9424,-1.9424,-1.9424,-1.9424,-1.9424,-1.9424,-1.9417,-1.9232,-1.9165,-1.9158,-1.8718,-1.8497,-1.849,-1.8357,-1.829,-1.829,-1.8143,-1.7996,-1.7836,-1.7836,-1.7756,-1.7589,-1.7462,-1.736,-1.7213,-1.7072,-1.6874,-1.672,-1.6707,-1.6707,-1.6707,-1.6707,-1.6707,-1.6707,-1.6707,-1.6593,-1.6284,-1.6426,-1.6506,-1.6513,-1.6633,-1.6707,-1.6707,-1.6587,-1.6506,-1.6506,-1.638,-1.6482,-1.6759,-1.6498,-1.6238,-1.6562,-1.6157,-1.6015,-1.6567,-1.6669,-1.6803,-1.7483,-1.8033,-1.8317,-1.7936,-1.9028,-1.9907,-1.9975,-2.032,-2.0586,-2.0566,-2.0615,-2.0615,-2.0615,-2.0615,-2.0615,-2.0615,-2.0615,-2.0615,-2.0615,-2.0615,-2.0615,-2.0615,-2.0615,-2.0615,-2.0615,-2.0615,-2.0828,-2.1155,-2.1593,-2.2702,-2.1102,-2.1102,-2.1102,-2.0982,-2.0748,-2.0454,-2.0207,-1.9993,-1.9867,-1.9673,-1.9472,-1.9399,-1.9424,-1.9424,-1.9424,-1.9424,-1.9424,-1.9424,-1.9424,-1.9424,-1.9424,-1.9424,-1.9424,-1.9424,-1.9424,-1.9424,-1.9424,-1.9424,-1.9424,-1.9424,-1.9424,-1.9424,-1.9424,-1.9424,-1.9424,-1.9424,-1.9424,-1.9397,-1.8918,-1.8684,-1.8691,-1.8631,-1.8584,-1.8584,-1.8524,-1.8377,-1.8109,-1.8143,-1.8036,-1.7802,-1.7722,-1.7582,-1.742,-1.7333,-1.7199,-1.6934,-1.6907,-1.6901,-1.6901,-1.6907,-1.6907,-1.6907,-1.6901,-1.6901,-1.6907,-1.6907,-1.6874,-1.682,-1.6881,-1.6921,-1.6921,-1.684,-1.6807,-1.6807,-1.674,-1.6643,-1.6462,-1.6422,-1.6253,-1.5992,-1.5925,-1.5912,-1.5798,-1.5825,-1.5872,-1.6055,-1.6662,-1.7062,-1.6921,-1.7718,-1.8461,-1.8871,-1.948,-1.976,-1.9872,-1.9786,-1.9756,-1.9874,-2.004,-2.0089,-2.0206,-2.0372,-2.0615,-2.0615,-2.0615,-2.0615,-2.0615,-2.0615,-2.0615,-2.0615,-2.0615,-2.0605,-2.0683,-2.1155,-2.214,-2.1102,-2.1102,-2.1102,-2.1096,-2.1029,-2.0755,-2.0608,-2.0508,-2.004,-1.9793,-1.9726,-1.9492,-1.943,-1.9424,-1.9424,-1.9424,-1.9424,-1.9424,-1.9424,-1.9424,-1.9424,-1.9424,-1.9424,-1.9424,-1.9424,-1.9424,-1.9424,-1.9424,-1.9424,-1.9424,-1.9424,-1.9424,-1.9424,-1.9424,-1.9424,-1.9424,-1.9424,-1.9424,-1.937,-1.9285,-1.9336,-1.9025,-1.8828,-1.8885,-1.8631,-1.8477,-1.8457,-1.845,-1.8437,-1.839,-1.8143,-1.7942,-1.7936,-1.7695,-1.7535,-1.7508,-1.7495,-1.7502,-1.7495,-1.7502,-1.7482,-1.7502,-1.7475,-1.7468,-1.7475,-1.7488,-1.7382,-1.7259,-1.7393,-1.7448,-1.7488,-1.7313,-1.7166,-1.7146,-1.6901,-1.6693,-1.668,-1.6667,-1.6553,-1.6315,-1.6233,-1.6139,-1.5925,-1.5845,-1.5825,-1.5825,-1.6015,-1.6183,-1.6148,-1.6689,-1.7221,-1.7323,-1.7717,-1.7954,-1.7874,-1.7617,-1.7908,-1.7908,-1.8519,-1.8997,-1.9274,-1.9883,-2.0566,-2.0294,-2.0615,-2.0615,-2.0615,-2.0615,-2.0615,-2.0615,-2.0615,-2.0615,-2.0605,-2.0712,-2.1346,-2.1102,-2.1102,-2.1102,-2.1102,-2.1082,-2.0982,-2.0828,-2.0648,-2.0428,-2.0134,-1.9806,-1.9673,-1.9526,-1.943,-1.9424,-1.9424,-1.9424,-1.9424,-1.9424,-1.9424,-1.9424,-1.9424,-1.9424,-1.9424,-1.9424,-1.9424,-1.9424,-1.9424,-1.9424,-1.9424,-1.9424,-1.9424,-1.9424,-1.9424,-1.9424,-1.9424,-1.9424,-1.9424,-1.9424,-1.9424,-1.9417,-1.9252,-1.9185,-1.9178,-1.9072,-1.8918,-1.8764,-1.8751,-1.8671,-1.8504,-1.8377,-1.8303,-1.831,-1.819,-1.8123,-1.8103,-1.7949,-1.7856,-1.7802,-1.7689,-1.7589,-1.7589,-1.7589,-1.7589,-1.7589,-1.7589,-1.7528,-1.7501,-1.7568,-1.7589,-1.7569,-1.7475,-1.7454,-1.744,-1.7288,-1.7154,-1.7032,-1.7018,-1.6904,-1.6587,-1.6526,-1.642,-1.6139,-1.5932,-1.5838,-1.5825,-1.5825,-1.5825,-1.5859,-1.6081,-1.6169,-1.612,-1.6273,-1.6752,-1.7287,-1.7417,-1.7294,-1.7342,-1.7658,-1.798,-1.8149,-1.8917,-1.9648,-1.9648,-2.0089,-2.0411,-2.0615,-2.0615,-2.0615,-2.0615,-2.0615,-2.0615,-2.0615,-2.0615,-2.0828,-2.1229,-2.1216,-2.1142,-2.1102,-2.1102,-2.1102,-2.0989,-2.0802,-2.0715,-2.0434,-2.0047,-1.9873,-1.9686,-1.9558,-1.9406,-1.9424,-1.9424,-1.9424,-1.9424,-1.9424,-1.9424,-1.9424,-1.9424,-1.9424,-1.9424,-1.9424,-1.9424,-1.9424,-1.9424,-1.9424,-1.9424,-1.9424,-1.9424,-1.9424,-1.9424,-1.9424,-1.9424,-1.9424,-1.9424,-1.9424,-1.9424,-1.9424,-1.9424,-1.9424,-1.9424,-1.9265,-1.9058,-1.9052,-1.8951,-1.8744,-1.8657,-1.8611,-1.8604,-1.8537,-1.8497,-1.8477,-1.829,-1.8115,-1.8115,-1.7963,-1.7836,-1.7883,-1.7829,-1.7829,-1.7829,-1.7829,-1.7789,-1.7709,-1.7702,-1.7695,-1.7589,-1.7589,-1.7589,-1.7589,-1.7589,-1.7488,-1.7353,-1.732,-1.7206,-1.6881,-1.6827,-1.6673,-1.6339,-1.6092,-1.5945,-1.5852,-1.5825,-1.5825,-1.5825,-1.5812,-1.5738,-1.5538,-1.5458,-1.5756,-1.6675,-1.653,-1.6544,-1.6535,-1.6519,-1.6846,-1.6935,-1.7819,-1.8519,-1.8598,-1.9353,-1.9795,-1.9883,-2.004,-2.0323,-2.0527,-2.0566,-2.0527,-2.0615,-2.0615,-2.0615,-2.1601,-2.1425,-2.1166,-2.0843,-2.1039,-2.0906,-2.0976,-2.0657,-2.0615,-2.0593,-2.0275,-1.994,-1.974,-1.9648,-1.9467,-1.943,-1.9424,-1.9424,-1.9424,-1.9424,-1.9424,-1.9424,-1.9424,-1.9424,-1.9424,-1.9424,-1.9424,-1.9424,-1.9424,-1.9424,-1.9424,-1.9424,-1.9424,-1.9424,-1.9424,-1.9424,-1.9424,-1.9424,-1.9424,-1.9424,-1.9424,-1.9424,-1.9424,-1.9424,-1.9424,-1.941,-1.9332,-1.9339,-1.9383,-1.9325,-1.8994,-1.8791,-1.8828,-1.8601,-1.8419,-1.8406,-1.849,-1.8415,-1.8298,-1.8251,-1.8231,-1.8245,-1.7971,-1.8307,-1.7903,-1.7903,-1.7805,-1.7881,-1.7692,-1.7701,-1.7497,-1.7549,-1.7589,-1.7589,-1.7589,-1.7569,-1.7555,-1.7522,-1.7428,-1.7246,-1.7152,-1.6945,-1.6386,-1.6315,-1.6106,-1.5932,-1.5845,-1.5825,-1.5825,-1.5825,-1.5805,-1.5745,-1.5558,-1.5295,-1.4838,-1.5083,-1.4843,-1.4888,-1.5543,-1.5794,-1.615,-1.6552,-1.705,-1.7423,-1.7787,-1.827,-1.8789,-1.9234,-1.9599,-1.9883,-2.0245,-2.0372,-2.0527,-2.0576,-2.0615,-1.8177,-1.8085,-1.7838,-1.7795,-1.7795,-1.7789,-1.7795,-1.7789,-1.7641,-1.7506,-1.7542,-1.8303,-1.8631,-1.8458,-1.9474,-1.9713,-1.9444,-1.9424,-1.9424,-1.9424,-1.9424,-1.9424,-1.9424,-1.9424,-1.9424,-1.9424,-1.9424,-1.9424,-1.9424,-1.9424,-1.9424,-1.9424,-1.9424,-1.9424,-1.9424,-1.9424,-1.9424,-1.9424,-1.9424,-1.9424,-1.9366,-1.9424,-1.9424,-1.9424,-1.9424,-1.9424,-1.9424,-1.9424,-1.9424,-1.9424,-1.83,-1.7658,-1.771,-1.7623,-1.7516,-1.7613,-1.8285,-1.7893,-1.6194,-1.6523,-1.6484,-1.5513,-1.5457,-1.5586,-1.5401,-1.5457,-1.5361,-1.5462,-1.6285,-1.6612,-1.6644,-1.7104,-1.7589,-1.7589,-1.7589,-1.7477,-1.7589,-1.7582,-1.7588,-1.7474,-1.7326,-1.7092,-1.6871,-1.6563,-1.6246,-1.6119,-1.5952,-1.5804,-1.5825,-1.5825,-1.5825,-1.5818,-1.5738,-1.5538,-1.517,-1.4723,-1.4462,-1.4441,-1.4682,-1.4713,-1.4943,-1.5628,-1.6198,-1.6404,-1.6568,-1.7098,-1.7819,-1.8149,-1.855,-1.9204,-1.9569,-1.9844,-2.0489,-2.0128,-2.0245,-1.6375,-1.612,-1.602,-1.5914,-1.5918,-1.5913,-1.5913,-1.5913,-1.5913,-1.5768,-1.5893,-1.6767,-1.7144,-1.7117,-1.803,-1.8307,-1.8077,-1.8462,-1.8732,-1.8648,-1.8642,-1.8642,-1.8642,-1.8648,-1.8642,-1.8765,-1.9185,-1.9424,-1.9424,-1.9424,-1.9127,-1.8648,-1.8642,-1.8344,-1.7935,-1.7877,-1.787,-1.7818,-1.787,-1.8052,-1.8525,-1.8648,-1.8881,-1.9249,-1.8887,-1.8642,-1.8642,-1.8648,-1.8344,-1.7812,-1.6791,-1.6197,-1.6197,-1.6197,-1.6197,-1.6357,-1.6995,-1.6657,-1.4818,-1.5155,-1.5183,-1.4139,-1.4024,-1.3966,-1.3966,-1.4024,-1.3936,-1.4167,-1.4712,-1.5361,-1.5299,-1.583,-1.6479,-1.6715,-1.6499,-1.6227,-1.6234,-1.6174,-1.6387,-1.6738,-1.7154,-1.7268,-1.7179,-1.6851,-1.6569,-1.6313,-1.6086,-1.5959,-1.5804,-1.5825,-1.5825,-1.5825,-1.5818,-1.5732,-1.5498,-1.5105,-1.4659,-1.4586,-1.4482,-1.4291,-1.4235,-1.4922,-1.5262,-1.5379,-1.5711,-1.6281,-1.6731,-1.7058,-1.7585,-1.827,-1.8479,-1.859,-1.9036,-1.9353,-1.9481,-1.638,-1.5842,-1.5987,-1.5595,-1.5438,-1.5404,-1.5654,-1.5459,-1.5524,-1.5255,-1.5142,-1.5499,-1.5488,-1.5491,-1.5664,-1.5276,-1.5448,-1.6569,-1.7088,-1.7008,-1.7009,-1.6997,-1.7003,-1.6979,-1.6968,-1.7026,-1.8525,-1.9127,-1.8946,-1.8823,-1.8227,-1.7202,-1.6973,-1.638,-1.4777,-1.5079,-1.4901,-1.502,-1.5079,-1.5612,-1.6791,-1.6968,-1.7624,-1.8706,-1.7689,-1.6909,-1.685,-1.6909,-1.638,-1.5079,-1.4723,-1.4604,-1.4599,-1.4599,-1.4604,-1.4599,-1.4708,-1.4653,-1.4406,-1.4386,-1.4405,-1.3931,-1.4272,-1.3931,-1.3798,-1.3995,-1.3927,-1.3654,-1.3955,-1.4044,-1.3744,-1.3845,-1.4343,-1.5039,-1.4493,-1.3846,-1.3647,-1.3426,-1.3857,-1.5251,-1.6402,-1.7344,-1.7248,-1.7088,-1.6911,-1.6549,-1.6313,-1.6172,-1.5917,-1.5905,-1.5858,-1.5825,-1.5825,-1.5785,-1.5651,-1.5518,-1.5065,-1.473,-1.4563,-1.4409,-1.4235,-1.4572,-1.4587,-1.4657,-1.4692,-1.5228,-1.5636,-1.6,-1.6601,-1.7172,-1.7212,-1.7464,-1.7948,-1.831,-1.843,-1.2986,-1.2865,-1.2572,-1.2515,-1.2449,-1.2336,-1.2347,-1.2347,-1.2347,-1.2347,-1.2533,-1.3522,-1.4012,-1.4257,-1.5031,-1.4861,-1.3775,-1.4262,-1.4821,-1.5482,-1.5498,-1.5479,-1.5452,-1.5385,-1.537,-1.5435,-1.5849,-1.609,-1.6149,-1.6203,-1.579,-1.5429,-1.537,-1.5133,-1.4485,-1.4604,-1.4604,-1.4604,-1.4604,-1.4896,-1.5311,-1.537,-1.5612,-1.5972,-1.5612,-1.4896,-1.382,-1.4772,-1.5074,-1.4485,-1.3531,-1.2933,-1.2933,-1.2933,-1.2928,-1.3053,-1.4004,-1.3471,-1.1736,-1.2333,-1.2453,-1.1615,-1.1378,-1.1318,-1.1322,-1.1378,-1.1411,-1.1411,-1.212,-1.2695,-1.2476,-1.2476,-1.2936,-1.3988,-1.3717,-1.3212,-1.3088,-1.3215,-1.348,-1.397,-1.5204,-1.5907,-1.6144,-1.6463,-1.6876,-1.6671,-1.653,-1.6262,-1.6115,-1.5919,-1.6032,-1.5885,-1.5858,-1.5635,-1.5421,-1.5362,-1.5166,-1.4941,-1.4856,-1.4576,-1.4382,-1.4242,-1.4168,-1.4088,-1.4088,-1.425,-1.4657,-1.5061,-1.5628,-1.5992,-1.615,-1.6601,-1.7139,-1.7302,-1.7253,-1.144,-1.1369,-1.1189,-1.1046,-1.0877,-1.0772,-1.0702,-1.0724,-1.0721,-1.0721,-1.0979,-1.1828,-1.2347,-1.2541,-1.3517,-1.3322,-1.2252,-1.2183,-1.2637,-1.3444,-1.3932,-1.4005,-1.4048,-1.3944,-1.3825,-1.3954,-1.442,-1.4615,-1.4604,-1.4545,-1.4307,-1.3825,-1.3706,-1.3347,-1.2873,-1.2808,-1.2808,-1.2808,-1.2753,-1.3108,-1.3586,-1.3706,-1.4004,-1.4421,-1.4004,-1.3228,-1.2333,-1.2693,-1.2813,-1.2693,-1.1796,-1.1322,-1.1318,-1.1318,-1.1318,-1.1495,-1.2037,-1.1856,-1.0179,-1.0842,-1.0959,-1.0001,-0.9819,-0.9819,-0.9822,-0.9819,-0.9819,-1.0001,-1.0714,-1.1214,-1.1121,-1.1094,-1.1486,-1.1968,-1.192,-1.191,-1.1848,-1.2228,-1.2457,-1.2778,-1.375,-1.4395,-1.4837,-1.5152,-1.5664,-1.5573,-1.5369,-1.5164,-1.5033,-1.5177,-1.507,-1.4963,-1.4773,-1.4742,-1.4997,-1.5102,-1.5205,-1.5186,-1.519,-1.4792,-1.4543,-1.4409,-1.4309,-1.4142,-1.4088,-1.4088,-1.4412,-1.4328,-1.4657,-1.4894,-1.5213,-1.5345,-1.5677,-1.5801,-1.5876,-1.1535,-1.1409,-1.1392,-1.1226,-1.0938,-1.09,-1.088,-1.0751,-1.0744,-1.0738,-1.0724,-1.0916,-1.085,-1.0784,-1.124,-1.1163,-1.078,-1.0895,-1.1017,-1.1392,-1.2026,-1.2615,-1.2549,-1.2524,-1.2445,-1.253,-1.3605,-1.4181,-1.3884,-1.3837,-1.3605,-1.2195,-1.2053,-1.1378,-1.0539,-0.994,-1.0179,-1.0301,-1.0119,-1.0842,-1.1976,-1.2093,-1.2633,-1.3885,-1.2749,-1.1976,-1.1736,-1.0899,-1.0119,-0.9879,-1.0061,-1.0061,-0.9879,-0.9822,-0.994,-1.0001,-0.9883,-1.0061,-0.9819,-0.994,-0.994,-0.9819,-0.9819,-0.9819,-0.9819,-0.9819,-0.9819,-0.9819,-0.994,-0.9933,-0.9987,-0.998,-0.9968,-0.9685,-0.9971,-0.981,-0.9447,-1.0402,-1.0936,-1.1223,-1.2186,-1.3156,-1.321,-1.3406,-1.3474,-1.3355,-1.3277,-1.3268,-1.3183,-1.3577,-1.3347,-1.3396,-1.3562,-1.3611,-1.3829,-1.3776,-1.3987,-1.4722,-1.4881,-1.48,-1.463,-1.4589,-1.4355,-1.4195,-1.4088,-1.4088,-1.4088,-1.4088,-1.4088,-1.437,-1.4412,-1.4166,-1.4292,-1.4657,-1.4901,-1.1596,-1.1548,-1.144,-1.1345,-1.1257,-1.1158,-1.1023,-1.083,-1.082,-1.0756,-1.0744,-1.0721,-1.0721,-1.0721,-1.0721,-1.0721,-1.0721,-1.0721,-1.0721,-1.0707,-1.0979,-1.1106,-1.0944,-1.0971,-1.095,-1.1032,-1.1521,-1.1439,-1.1455,-1.1506,-1.1149,-1.0595,-1.0609,-1.0308,-0.9822,-0.9825,-0.9819,-0.9819,-0.9819,-0.994,-1.0358,-1.0479,-1.06,-1.0899,-1.0717,-1.0479,-1.0422,-1.0061,-0.9819,-0.9819,-0.9819,-0.9819,-0.9819,-0.9819,-0.9819,-0.9819,-0.9819,-0.9819,-0.9819,-0.9819,-0.9819,-0.9819,-0.9819,-0.9819,-0.9819,-0.9819,-0.9819,-0.9819,-0.9819,-0.9819,-0.9819,-0.9819,-0.9791,-0.9747,-0.9554,-0.9347,-0.9319,-0.9455,-0.9664,-0.9673,-1.0848,-1.1483,-1.186,-1.2453,-1.2969,-1.2915,-1.2822,-1.2777,-1.2365,-1.2551,-1.2617,-1.2505,-1.2545,-1.2529,-1.2499,-1.2452,-1.2861,-1.3914,-1.4337,-1.4603,-1.463,-1.479,-1.4469,-1.4168,-1.4102,-1.4088,-1.4088,-1.4088,-1.4088,-1.4088,-1.4088,-1.4088,-1.4088,-1.4334,-1.437,-1.1616,-1.1613,-1.1525,-1.145,-1.1385,-1.1297,-1.1175,-1.1043,-1.09,-1.0836,-1.0812,-1.0741,-1.0721,-1.0721,-1.0721,-1.0721,-1.0721,-1.0721,-1.0721,-1.0721,-1.0777,-1.0681,-1.0562,-1.0463,-1.0436,-1.0371,-1.0368,-1.0395,-1.04,-1.0185,-1.0151,-1.018,-0.9995,-0.992,-0.9917,-0.9849,-0.9822,-0.9819,-0.9819,-0.9819,-0.9819,-0.9819,-0.9819,-0.9822,-0.9819,-0.9819,-0.9822,-0.9819,-0.9819,-0.9819,-0.9819,-0.9819,-0.9819,-0.9819,-0.9819,-0.9819,-0.9819,-0.9819,-0.9819,-0.9819,-0.9819,-0.9819,-0.9819,-0.9819,-0.9819,-0.9819,-0.9819,-0.9819,-0.9819,-0.9819,-0.9819,-0.9819,-0.9819,-0.9795,-0.9663,-0.9503,-0.9357,-0.9289,-0.9187,-0.9262,-0.9688,-1.0186,-1.0186,-1.1,-1.1324,-1.137,-1.1143,-1.1092,-1.1011,-1.1518,-1.1718,-1.1324,-1.1291,-1.132,-1.1213,-1.1206,-1.1668,-1.2721,-1.4052,-1.4266,-1.461,-1.4849,-1.4616,-1.4309,-1.4182,-1.4088,-1.4088,-1.4088,-1.4088,-1.4088,-1.4088,-1.4088,-1.4088,-1.4088,-1.4088,-1.1616,-1.1616,-1.1616,-1.1538,-1.143,-1.1413,-1.1328,-1.1179,-1.1073,-1.0934,-1.0884,-1.0829,-1.0792,-1.0741,-1.0772,-1.0741,-1.0721,-1.0721,-1.0721,-1.0721,-1.0721,-1.069,-1.0677,-1.0663,-1.0612,-1.0531,-1.0514,-1.0456,-1.0385,-1.0331,-1.0304,-1.0266,-1.0148,-1.0021,-1.0046,-0.9934,-0.9856,-0.9795,-0.9832,-0.9822,-0.9819,-0.9819,-0.9819,-0.9819,-0.9819,-0.9819,-0.9819,-0.9819,-0.9819,-0.9819,-0.9819,-0.9819,-0.9819,-0.9819,-0.9819,-0.9819,-0.9819,-0.9819,-0.9819,-0.9819,-0.9819,-0.9819,-0.9819,-0.9819,-0.9819,-0.9819,-0.9819,-0.9819,-0.9819,-0.9819,-0.9819,-0.9819,-0.9819,-0.9815,-0.9802,-0.9751,-0.9618,-0.9432,-0.9248,-0.9207,-0.9088,-0.8977,-0.8885,-0.8937,-0.9047,-1.0076,-0.9915,-0.9892,-0.996,-1.0283,-1.0092,-0.9507,-0.9675,-1.0081,-0.9987,-0.9946,-1.0605,-1.1521,-1.3301,-1.4094,-1.4584,-1.4748,-1.465,-1.4459,-1.4349,-1.4195,-1.4088,-1.4088,-1.4088,-1.4088,-1.4088,-1.4088,-1.4088,-1.4088,-1.4088,-1.1616,-1.1616,-1.1616,-1.1599,-1.1572,-1.1569,-1.1484,-1.1341,-1.1304,-1.1212,-1.1128,-1.1077,-1.0995,-1.0833,-1.089,-1.0839,-1.0741,-1.0724,-1.0721,-1.0721,-1.0721,-1.0721,-1.0721,-1.0721,-1.07,-1.066,-1.0666,-1.0646,-1.0595,-1.0493,-1.0446,-1.0426,-1.031,-1.0229,-1.0205,-1.008,-0.9936,-0.992,-0.9829,-0.9836,-0.9832,-0.9822,-0.9819,-0.9819,-0.9819,-0.9819,-0.9819,-0.9819,-0.9819,-0.9819,-0.9819,-0.9819,-0.9819,-0.9819,-0.9819,-0.9819,-0.9819,-0.9819,-0.9819,-0.9819,-0.9819,-0.9819,-0.9819,-0.9819,-0.9819,-0.9819,-0.9819,-0.9819,-0.9819,-0.9819,-0.9819,-0.9819,-0.9819,-0.9819,-0.9819,-0.9808,-0.9754,-0.9608,-0.9405,-0.9289,-0.9193,-0.9066,-0.8905,-0.8957,-0.895,-0.894,-0.8937,-0.8937,-0.9082,-0.927,-0.9054,-0.8767,-0.8909,-0.9347,-0.9274,-0.9263,-0.9821,-1.0569,-1.2091,-1.3434,-1.3933,-1.4729,-1.4631,-1.4548,-1.4496,-1.4349,-1.4202,-1.4088,-1.4088,-1.4088,-1.4088,-1.4088,-1.4088,-1.4088,-1.4088,-1.1616,-1.1616,-1.1616,-1.1616,-1.1616,-1.1616,-1.1572,-1.1494,-1.1419,-1.1345,-1.1263,-1.1202,-1.1118,-1.1053,-1.104,-1.0965,-1.0836,-1.0748,-1.0721,-1.0721,-1.0721,-1.0721,-1.0721,-1.0721,-1.0721,-1.0721,-1.0717,-1.0721,-1.069,-1.0643,-1.0599,-1.0585,-1.0453,-1.0385,-1.0358,-1.0236,-1.0164,-1.0127,-1.0008,-0.9927,-0.9924,-0.9852,-0.9819,-0.9819,-0.9819,-0.9819,-0.9819,-0.9819,-0.9819,-0.9819,-0.9819,-0.9819,-0.9819,-0.9819,-0.9819,-0.9819,-0.9819,-0.9819,-0.9819,-0.9819,-0.9819,-0.9819,-0.9819,-0.9819,-0.9819,-0.9819,-0.9819,-0.9819,-0.9819,-0.9819,-0.9819,-0.9819,-0.9819,-0.9819,-0.9819,-0.9819,-0.9798,-0.9696,-0.9564,-0.9384,-0.931,-0.9251,-0.9103,-0.9042,-0.8977,-0.8974,-0.894,-0.8937,-0.8937,-0.9078,-0.901,-0.8838,-0.8754,-0.8738,-0.8664,-0.8774,-0.9086,-0.9834,-1.0877,-1.1989,-1.2705,-1.369,-1.4642,-1.4598,-1.4579,-1.4502,-1.4355,-1.4229,-1.4108,-1.4088,-1.4088,-1.4088,-1.4088,-1.4088,-1.4088,-1.1616,-1.1616,-1.1616,-1.1616,-1.1616,-1.1616,-1.1613,-1.1592,-1.1484,-1.144,-1.1409,-1.128,-1.1253,-1.1202,-1.1199,-1.1114,-1.0975,-1.0772,-1.0782,-1.0782,-1.0734,-1.0724,-1.0721,-1.0721,-1.0721,-1.0721,-1.0721,-1.0721,-1.0721,-1.0717,-1.069,-1.069,-1.0599,-1.0534,-1.0497,-1.0392,-1.031,-1.0287,-1.0161,-0.999,-0.9963,-0.9924,-0.9808,-0.9819,-0.9819,-0.9819,-0.9819,-0.9819,-0.9819,-0.9819,-0.9819,-0.9819,-0.9819,-0.9819,-0.9819,-0.9819,-0.9819,-0.9819,-0.9819,-0.9819,-0.9819,-0.9819,-0.9819,-0.9819,-0.9819,-0.9819,-0.9819,-0.9819,-0.9819,-0.9819,-0.9819,-0.9819,-0.9819,-0.9819,-0.9819,-0.9819,-0.9798,-0.971,-0.9646,-0.9574,-0.9469,-0.9354,-0.9296,-0.9207,-0.9072,-0.9005,-0.8967,-0.8937,-0.8937,-0.8933,-0.892,-0.8916,-0.8838,-0.874,-0.8615,-0.8463,-0.8744,-0.9203,-0.9999,-1.069,-1.1565,-1.2555,-1.3625,-1.4547,-1.4624,-1.4599,-1.4479,-1.4355,-1.4242,-1.4148,-1.4088,-1.4088,-1.4088,-1.4088,-1.4088,-1.1616,-1.1616,-1.1616,-1.1616,-1.1616,-1.1616,-1.1616,-1.1616,-1.1582,-1.1579,-1.1569,-1.1548,-1.145,-1.1379,-1.1355,-1.127,-1.1124,-1.0982,-1.0843,-1.082,-1.0816,-1.0758,-1.0744,-1.0748,-1.0731,-1.0721,-1.0721,-1.0721,-1.0721,-1.0721,-1.0721,-1.0714,-1.0687,-1.067,-1.0626,-1.0544,-1.046,-1.0436,-1.0314,-1.0195,-1.0044,-0.996,-0.9879,-0.9852,-0.9832,-0.9819,-0.9819,-0.9819,-0.9819,-0.9819,-0.9819,-0.9819,-0.9819,-0.9819,-0.9819,-0.9819,-0.9819,-0.9819,-0.9819,-0.9819,-0.9819,-0.9819,-0.9819,-0.9819,-0.9819,-0.9819,-0.9819,-0.9819,-0.9819,-0.9819,-0.9819,-0.9819,-0.9819,-0.9819,-0.9819,-0.9819,-0.9812,-0.9785,-0.9727,-0.9652,-0.9581,-0.9517,-0.9395,-0.9333,-0.9188,-0.91,-0.9025,-0.8971,-0.8937,-0.8937,-0.8933,-0.893,-0.8923,-0.8821,-0.8713,-0.8476,-0.8484,-0.8722,-0.9287,-0.9731,-1.06,-1.1468,-1.2422,-1.3444,-1.4398,-1.4779,-1.4663,-1.4519,-1.4409,-1.4342,-1.4229,-1.4108,-1.4135,-1.4168,-1.4088,-1.1616,-1.1616,-1.1616,-1.1616,-1.1616,-1.1616,-1.1616,-1.1616,-1.1616,-1.1616,-1.1616,-1.1616,-1.1582,-1.1521,-1.1508,-1.1423,-1.1277,-1.1128,-1.1067,-1.1036,-1.0982,-1.09,-1.0782,-1.0772,-1.0782,-1.0741,-1.0721,-1.0724,-1.0721,-1.0721,-1.0721,-1.0717,-1.0721,-1.0721,-1.0711,-1.0653,-1.0609,-1.0571,-1.0463,-1.0354,-1.0256,-1.0085,-0.9943,-0.9889,-0.9859,-0.9822,-0.9819,-0.9819,-0.9819,-0.9819,-0.9819,-0.9819,-0.9819,-0.9819,-0.9819,-0.9819,-0.9819,-0.9819,-0.9819,-0.9819,-0.9819,-0.9819,-0.9819,-0.9819,-0.9819,-0.9819,-0.9819,-0.9819,-0.9819,-0.9819,-0.9819,-0.9819,-0.9819,-0.9819,-0.9819,-0.9819,-0.9819,-0.9819,-0.9771,-0.9717,-0.9703,-0.9646,-0.954,-0.9425,-0.9317,-0.9208,-0.9103,-0.9028,-0.896,-0.8937,-0.894,-0.8937,-0.8933,-0.8811,-0.8767,-0.8598,-0.8397,-0.8573,-0.8664,-0.9122,-0.9492,-1.0314,-1.1346,-1.2411,-1.3344,-1.4062,-1.4994,-1.4917,-1.473,-1.4543,-1.4449,-1.4362,-1.4289,-1.4235,-1.4202,-1.1616,-1.1616,-1.1616,-1.1616,-1.1616,-1.1616,-1.1616,-1.1616,-1.1616,-1.1616,-1.1616,-1.1616,-1.1616,-1.1616,-1.1599,-1.1541,-1.1423,-1.128,-1.1216,-1.1196,-1.1148,-1.1084,-1.1023,-1.0907,-1.0857,-1.0806,-1.0785,-1.0751,-1.0721,-1.0721,-1.0721,-1.0721,-1.0721,-1.0721,-1.0714,-1.0704,-1.0717,-1.068,-1.0609,-1.0538,-1.0432,-1.0243,-1.0011,-0.9987,-0.9866,-0.9802,-0.9825,-0.9819,-0.9819,-0.9819,-0.9819,-0.9819,-0.9819,-0.9819,-0.9819,-0.9819,-0.9819,-0.9819,-0.9819,-0.9819,-0.9819,-0.9819,-0.9819,-0.9819,-0.9819,-0.9819,-0.9819,-0.9819,-0.9819,-0.9819,-0.9819,-0.9819,-0.9819,-0.9819,-0.9819,-0.9819,-0.9819,-0.9819,-0.9819,-0.9798,-0.9819,-0.9764,-0.9656,-0.9561,-0.9449,-0.9337,-0.9232,-0.9103,-0.9035,-0.8954,-0.8885,-0.8937,-0.8868,-0.8828,-0.8757,-0.874,-0.8574,-0.8573,-0.8484,-0.8603,-0.8775,-0.9057,-1.0194,-1.1283,-1.1781,-1.2589,-1.391,-1.5237,-1.501,-1.4823,-1.471,-1.4629,-1.4589,-1.4536,-1.4489,-1.1616,-1.1616,-1.1616,-1.1616,-1.1616,-1.1616,-1.1616,-1.1616,-1.1616,-1.1616,-1.1616,-1.1616,-1.1616,-1.1616,-1.1616,-1.1606,-1.1545,-1.1443,-1.1365,-1.1352,-1.126,-1.1192,-1.1141,-1.1138,-1.1056,-1.0934,-1.0843,-1.0839,-1.0765,-1.0734,-1.0721,-1.0721,-1.0721,-1.0721,-1.0721,-1.0721,-1.0721,-1.0714,-1.0694,-1.0626,-1.05,-1.0341,-1.0198,-1.0038,-0.996,-0.9896,-0.9795,-0.9836,-0.9819,-0.9819,-0.9819,-0.9819,-0.9819,-0.9819,-0.9819,-0.9819,-0.9819,-0.9819,-0.9819,-0.9819,-0.9819,-0.9819,-0.9819,-0.9819,-0.9819,-0.9819,-0.9819,-0.9819,-0.9819,-0.9819,-0.9819,-0.9819,-0.9819,-0.9819,-0.9819,-0.9819,-0.9819,-0.9819,-0.9819,-0.9819,-0.9819,-0.9819,-0.9768,-0.9676,-0.9581,-0.9469,-0.9354,-0.9225,-0.9093,-0.9005,-0.8888,-0.894,-0.8937,-0.8848,-0.8824,-0.8804,-0.8713,-0.8608,-0.8476,-0.8313,-0.8438,-0.8722,-0.9115,-1.0055,-1.0533,-1.1722,-1.3567,-1.4619,-1.4989,-1.5117,-1.5017,-1.5001,-1.4961,-1.4894,-1.4787,-1.1694,-1.1619,-1.1616,-1.1616,-1.1616,-1.1616,-1.1616,-1.1616,-1.1616,-1.1616,-1.1616,-1.1616,-1.1616,-1.1616,-1.1616,-1.1616,-1.1606,-1.1545,-1.1518,-1.1514,-1.1433,-1.1369,-1.1307,-1.1284,-1.1216,-1.1084,-1.0921,-1.0853,-1.0836,-1.0761,-1.0721,-1.0721,-1.0721,-1.0721,-1.0721,-1.0721,-1.0721,-1.0717,-1.0711,-1.0687,-1.0602,-1.0483,-1.0368,-1.0293,-1.0081,-0.9967,-0.9889,-0.9852,-0.9825,-0.9819,-0.9819,-0.9819,-0.9819,-0.9819,-0.9819,-0.9819,-0.9819,-0.9819,-0.9819,-0.9819,-0.9819,-0.9819,-0.9819,-0.9819,-0.9819,-0.9819,-0.9819,-0.9819,-0.9819,-0.9819,-0.9819,-0.9819,-0.9819,-0.9819,-0.9819,-0.9819,-0.9819,-0.9819,-0.9819,-0.9819,-0.9819,-0.9819,-0.9819,-0.9768,-0.9676,-0.9581,-0.9469,-0.9351,-0.9178,-0.9015,-0.8967,-0.8937,-0.8937,-0.8875,-0.8861,-0.8824,-0.8798,-0.8706,-0.8659,-0.8506,-0.8387,-0.8603,-0.8953,-0.9402,-1.0139,-1.1521,-1.325,-1.4009,-1.4365,-1.4849,-1.5324,-1.5218,-1.5099,-1.5055,-1.4968,-1.186,-1.1725,-1.1653,-1.1616,-1.1616,-1.1616,-1.1616,-1.1616,-1.1616,-1.1616,-1.1616,-1.1616,-1.1616,-1.1616,-1.1616,-1.1616,-1.1616,-1.1616,-1.1616,-1.1616,-1.1606,-1.1541,-1.1477,-1.1436,-1.1369,-1.1219,-1.1148,-1.106,-1.0968,-1.087,-1.0775,-1.0724,-1.0721,-1.0721,-1.0721,-1.0721,-1.0721,-1.0721,-1.0721,-1.0714,-1.0687,-1.0609,-1.0531,-1.0432,-1.029,-1.0061,-0.998,-0.9896,-0.9829,-0.9819,-0.9819,-0.9819,-0.9819,-0.9819,-0.9819,-0.9819,-0.9819,-0.9819,-0.9819,-0.9819,-0.9819,-0.9819,-0.9819,-0.9819,-0.9819,-0.9819,-0.9819,-0.9819,-0.9819,-0.9819,-0.9819,-0.9819,-0.9819,-0.9819,-0.9819,-0.9819,-0.9819,-0.9819,-0.9819,-0.9819,-0.9819,-0.9819,-0.9819,-0.9819,-0.9764,-0.9686,-0.9581,-0.9462,-0.9283,-0.9083,-0.9001,-0.8974,-0.8947,-0.8944,-0.8878,-0.8854,-0.8842,-0.8801,-0.8754,-0.8682,-0.8554,-0.8529,-0.8717,-0.924,-0.9712,-1.0394,-1.157,-1.27,-1.3723,-1.4277,-1.4744,-1.5152,-1.5199,-1.5205,-1.5229,-1.2172,-1.201,-1.1738,-1.163,-1.1623,-1.1616,-1.1616,-1.1616,-1.1616,-1.1616,-1.1616,-1.1616,-1.1616,-1.1616,-1.1616,-1.1616,-1.1616,-1.1616,-1.1616,-1.1616,-1.1613,-1.1603,-1.1572,-1.1552,-1.1514,-1.1392,-1.1307,-1.1233,-1.1145,-1.1006,-1.0863,-1.0744,-1.0741,-1.0727,-1.0721,-1.0721,-1.0721,-1.0721,-1.0721,-1.0721,-1.0721,-1.068,-1.0629,-1.0524,-1.0453,-1.0341,-1.0017,-0.9967,-0.9903,-0.9856,-0.9829,-0.9819,-0.9819,-0.9819,-0.9819,-0.9819,-0.9819,-0.9819,-0.9819,-0.9819,-0.9819,-0.9819,-0.9819,-0.9819,-0.9819,-0.9819,-0.9819,-0.9819,-0.9819,-0.9819,-0.9819,-0.9819,-0.9819,-0.9819,-0.9819,-0.9819,-0.9819,-0.9819,-0.9819,-0.9819,-0.9819,-0.9819,-0.9819,-0.9819,-0.9819,-0.9744,-0.9632,-0.9513,-0.9367,-0.9188,-0.9076,-0.9015,-0.8974,-0.8954,-0.894,-0.891,-0.8886,-0.8859,-0.8818,-0.8774,-0.8703,-0.8676,-0.8647,-0.8677,-0.9064,-0.9442,-0.9842,-1.0924,-1.2107,-1.3346,-1.4172,-1.4735,-1.5302,-1.5531,-1.5578,-1.2257,-1.2182,-1.1976,-1.1837,-1.1742,-1.1657,-1.1616,-1.1616,-1.1616,-1.1616,-1.1616,-1.1616,-1.1616,-1.1616,-1.1616,-1.1616,-1.1616,-1.1616,-1.1616,-1.1616,-1.1616,-1.1616,-1.1616,-1.1613,-1.1586,-1.1514,-1.1447,-1.1379,-1.1294,-1.1155,-1.1077,-1.0968,-1.0829,-1.0734,-1.0721,-1.0724,-1.0721,-1.0721,-1.0721,-1.0721,-1.0721,-1.0721,-1.069,-1.0643,-1.0514,-1.0453,-1.0314,-1.0071,-0.9977,-0.9954,-0.9873,-0.9839,-0.9819,-0.9819,-0.9819,-0.9819,-0.9819,-0.9819,-0.9819,-0.9819,-0.9819,-0.9819,-0.9819,-0.9819,-0.9819,-0.9819,-0.9819,-0.9819,-0.9819,-0.9819,-0.9819,-0.9819,-0.9819,-0.9819,-0.9819,-0.9819,-0.9819,-0.9819,-0.9819,-0.9819,-0.9819,-0.9819,-0.9819,-0.9819,-0.9819,-0.9802,-0.9683,-0.9564,-0.9432,-0.9317,-0.9215,-0.9106,-0.9062,-0.8998,-0.8981,-0.896,-0.894,-0.891,-0.8879,-0.8845,-0.8801,-0.8716,-0.8651,-0.8523,-0.8452,-0.8877,-0.9229,-0.9481,-1.0508,-1.2121,-1.3437,-1.4441,-1.508,-1.5534,-1.5581,-1.2352,-1.2335,-1.2193,-1.204,-1.1887,-1.1742,-1.1681,-1.1674,-1.1636,-1.1616,-1.1616,-1.1616,-1.1616,-1.1616,-1.1616,-1.1616,-1.1616,-1.1616,-1.1616,-1.1616,-1.1616,-1.1616,-1.1616,-1.1616,-1.1609,-1.1589,-1.1535,-1.1457,-1.145,-1.1304,-1.1236,-1.1145,-1.0992,-1.088,-1.0785,-1.0738,-1.0721,-1.0721,-1.0721,-1.0721,-1.0721,-1.0721,-1.0721,-1.07,-1.0616,-1.0531,-1.0449,-1.03,-1.0092,-0.9987,-0.9889,-0.9812,-0.9839,-0.9819,-0.9819,-0.9819,-0.9819,-0.9819,-0.9819,-0.9819,-0.9819,-0.9819,-0.9819,-0.9819,-0.9819,-0.9819,-0.9819,-0.9819,-0.9819,-0.9819,-0.9819,-0.9819,-0.9819,-0.9819,-0.9819,-0.9819,-0.9819,-0.9819,-0.9819,-0.9819,-0.9819,-0.9819,-0.9819,-0.9819,-0.9819,-0.9819,-0.9771,-0.9666,-0.9557,-0.9456,-0.9381,-0.9269,-0.9224,-0.9096,-0.9032,-0.8991,-0.8898,-0.8933,-0.891,-0.892,-0.8876,-0.8801,-0.873,-0.8638,-0.8577,-0.8537,-0.8741,-0.9035,-0.9912,-1.1033,-1.2291,-1.3454,-1.383,-1.422,-1.4854,-1.2491,-1.2481,-1.2342,-1.2199,-1.2057,-1.1894,-1.183,-1.1813,-1.1694,-1.163,-1.1619,-1.1616,-1.1616,-1.1616,-1.1616,-1.1616,-1.1616,-1.1616,-1.1616,-1.1616,-1.1616,-1.1616,-1.1616,-1.1616,-1.1616,-1.1616,-1.1586,-1.1572,-1.1592,-1.1457,-1.1396,-1.1341,-1.1206,-1.1046,-1.0873,-1.0792,-1.0724,-1.0721,-1.0721,-1.0721,-1.0721,-1.0721,-1.0721,-1.0711,-1.0694,-1.0619,-1.0534,-1.0453,-1.0307,-1.0095,-0.999,-0.9899,-0.9869,-0.9836,-0.9822,-0.9819,-0.9819,-0.9819,-0.9819,-0.9819,-0.9819,-0.9819,-0.9819,-0.9819,-0.9819,-0.9819,-0.9819,-0.9819,-0.9819,-0.9819,-0.9819,-0.9819,-0.9819,-0.9819,-0.9819,-0.9819,-0.9819,-0.9819,-0.9819,-0.9819,-0.9819,-0.9819,-0.9819,-0.9819,-0.9819,-0.9819,-0.9819,-0.9758,-0.9663,-0.9605,-0.9534,-0.9435,-0.932,-0.9245,-0.9164,-0.9028,-0.8908,-0.8895,-0.8937,-0.8937,-0.8937,-0.8893,-0.8818,-0.8743,-0.8716,-0.8693,-0.8591,-0.8594,-0.9434,-1.0263,-1.121,-1.2149,-1.2478,-1.298,-1.3696,-1.2501,-1.2498,-1.2447,-1.2403,-1.2322,-1.2084,-1.1982,-1.1955,-1.1826,-1.1711,-1.1633,-1.1616,-1.1616,-1.1616,-1.1616,-1.1616,-1.1616,-1.1616,-1.1616,-1.1616,-1.1616,-1.1616,-1.1616,-1.1616,-1.1616,-1.1616,-1.1616,-1.1616,-1.1609,-1.1541,-1.1541,-1.1504,-1.1358,-1.1182,-1.0972,-1.0809,-1.0721,-1.0721,-1.0721,-1.0721,-1.0721,-1.0721,-1.0721,-1.0721,-1.0721,-1.0687,-1.0626,-1.0558,-1.0432,-1.0297,-1.0139,-0.9987,-0.9958,-0.9914,-0.9832,-0.9825,-0.9822,-0.9819,-0.9819,-0.9819,-0.9819,-0.9819,-0.9819,-0.9819,-0.9819,-0.9819,-0.9819,-0.9819,-0.9819,-0.9819,-0.9819,-0.9819,-0.9819,-0.9819,-0.9819,-0.9819,-0.9819,-0.9819,-0.9819,-0.9819,-0.9819,-0.9819,-0.9819,-0.9819,-0.9819,-0.9819,-0.9819,-0.9819,-0.9747,-0.9741,-0.9696,-0.9598,-0.9496,-0.9415,-0.9313,-0.9178,-0.9096,-0.9089,-0.9015,-0.8937,-0.8937,-0.895,-0.8913,-0.8838,-0.879,-0.8787,-0.875,-0.8665,-0.8781,-0.9422,-1.0304,-1.118,-1.1747,-1.2194,-1.2723,-1.2501,-1.2501,-1.2501,-1.2501,-1.2464,-1.2244,-1.219,-1.2054,-1.1952,-1.183,-1.1714,-1.1694,-1.166,-1.1633,-1.1616,-1.1616,-1.1616,-1.1616,-1.1616,-1.1616,-1.1616,-1.1616,-1.1616,-1.1616,-1.1616,-1.1616,-1.1616,-1.1616,-1.1616,-1.1616,-1.1609,-1.1569,-1.1467,-1.1301,-1.1101,-1.0951,-1.0775,-1.0751,-1.0721,-1.0721,-1.0721,-1.0721,-1.0721,-1.0721,-1.0721,-1.0714,-1.069,-1.0629,-1.0544,-1.0453,-1.0327,-1.0108,-1.0103,-0.9998,-0.991,-0.99,-0.9842,-0.9832,-0.9819,-0.9819,-0.9819,-0.9819,-0.9819,-0.9819,-0.9819,-0.9819,-0.9819,-0.9819,-0.9819,-0.9819,-0.9819,-0.9819,-0.9819,-0.9819,-0.9819,-0.9819,-0.9819,-0.9819,-0.9819,-0.9819,-0.9819,-0.9819,-0.9819,-0.9819,-0.9819,-0.9819,-0.9819,-0.9819,-0.9819,-0.9808,-0.9798,-0.9713,-0.9625,-0.9537,-0.9439,-0.9327,-0.9262,-0.9292,-0.9133,-0.9022,-0.8984,-0.9001,-0.8971,-0.8937,-0.8858,-0.8844,-0.8848,-0.8855,-0.8893,-0.9014,-0.9391,-1.0229,-1.0954,-1.1399,-1.1737,-1.2501,-1.2501,-1.2501,-1.2501,-1.2474,-1.2349,-1.2216,-1.2077,-1.2071,-1.1979,-1.1767,-1.184,-1.1775,-1.1657,-1.1633,-1.163,-1.1616,-1.1616,-1.1616,-1.1616,-1.1616,-1.1616,-1.1616,-1.1616,-1.1616,-1.1616,-1.1616,-1.1616,-1.1616,-1.1616,-1.1616,-1.1592,-1.1501,-1.1389,-1.1263,-1.1118,-1.0917,-1.0822,-1.0731,-1.0727,-1.0721,-1.0721,-1.0721,-1.0721,-1.0721,-1.0721,-1.0711,-1.0687,-1.0622,-1.0551,-1.0477,-1.0388,-1.0283,-1.0137,-1.0021,-0.9943,-0.9897,-0.9839,-0.9819,-0.9819,-0.9819,-0.9819,-0.9819,-0.9819,-0.9819,-0.9819,-0.9819,-0.9819,-0.9819,-0.9819,-0.9819,-0.9819,-0.9819,-0.9819,-0.9819,-0.9819,-0.9819,-0.9819,-0.9819,-0.9819,-0.9819,-0.9819,-0.9819,-0.9819,-0.9819,-0.9819,-0.9819,-0.9819,-0.9819,-0.9819,-0.9808,-0.9798,-0.9713,-0.9646,-0.9554,-0.9469,-0.9418,-0.9388,-0.932,-0.9157,-0.9113,-0.9066,-0.9032,-0.9001,-0.8957,-0.8881,-0.8871,-0.8927,-0.8916,-0.9047,-0.9166,-0.9273,-0.9987,-1.0188,-1.0497,-1.2501,-1.2501,-1.2501,-1.2501,-1.2494,-1.2457,-1.2362,-1.2233,-1.2223,-1.2138,-1.1996,-1.1996,-1.1911,-1.1779,-1.1772,-1.1708,-1.1653,-1.1616,-1.1616,-1.1616,-1.1616,-1.1616,-1.1616,-1.1616,-1.1616,-1.1616,-1.1616,-1.1616,-1.1616,-1.1616,-1.1616,-1.1599,-1.1558,-1.1491,-1.1402,-1.1304,-1.1104,-1.0928,-1.0809,-1.0741,-1.0724,-1.0721,-1.0721,-1.0721,-1.0721,-1.0721,-1.0721,-1.0721,-1.0673,-1.0656,-1.0544,-1.0456,-1.0432,-1.029,-1.0188,-0.9977,-0.9856,-0.9819,-0.9819,-0.9819,-0.9819,-0.9819,-0.9819,-0.9819,-0.9819,-0.9819,-0.9819,-0.9819,-0.9819,-0.9819,-0.9819,-0.9819,-0.9819,-0.9819,-0.9819,-0.9819,-0.9819,-0.9819,-0.9819,-0.9819,-0.9819,-0.9819,-0.9819,-0.9819,-0.9819,-0.9819,-0.9819,-0.9819,-0.9819,-0.9819,-0.9819,-0.9812,-0.9791,-0.972,-0.9696,-0.9625,-0.9581,-0.9527,-0.9405,-0.9313,-0.9279,-0.9225,-0.9133,-0.9083,-0.9062,-0.9001,-0.8937,-0.895,-0.8984,-0.8947,-0.8958,-0.8869,-0.8937,-0.9302,-0.9539,-1.2501,-1.2501,-1.2501,-1.2501,-1.2501,-1.2501,-1.2447,-1.2379,-1.2376,-1.2288,-1.2159,-1.2152,-1.2067,-1.1925,-1.1853,-1.1709,-1.1711,-1.1643,-1.1616,-1.1616,-1.1619,-1.1616,-1.1616,-1.1616,-1.1616,-1.1616,-1.1616,-1.1616,-1.1616,-1.1616,-1.1616,-1.1616,-1.1616,-1.1565,-1.1487,-1.1402,-1.1297,-1.1111,-1.0948,-1.0809,-1.0748,-1.0724,-1.0721,-1.0721,-1.0721,-1.0721,-1.0721,-1.0721,-1.0721,-1.0721,-1.0605,-1.0585,-1.0555,-1.0443,-1.0243,-1.0034,-0.9926,-0.9825,-0.9842,-0.9822,-0.9819,-0.9819,-0.9819,-0.9819,-0.9819,-0.9819,-0.9819,-0.9819,-0.9819,-0.9819,-0.9819,-0.9819,-0.9819,-0.9819,-0.9819,-0.9819,-0.9819,-0.9819,-0.9819,-0.9819,-0.9819,-0.9819,-0.9819,-0.9819,-0.9819,-0.9819,-0.9819,-0.9819,-0.9819,-0.9819,-0.9819,-0.9815,-0.9815,-0.9795,-0.9774,-0.9747,-0.971,-0.9646,-0.9557,-0.9479,-0.9449,-0.9371,-0.9269,-0.9218,-0.9188,-0.9137,-0.91,-0.9045,-0.9045,-0.9018,-0.8988,-0.8933,-0.891,-0.8992,-0.9092,-1.2501,-1.2501,-1.2501,-1.2501,-1.2501,-1.2501,-1.2498,-1.2501,-1.2488,-1.2427,-1.2318,-1.2308,-1.222,-1.2081,-1.1982,-1.1904,-1.182,-1.1731,-1.167,-1.1633,-1.1619,-1.1619,-1.1616,-1.1616,-1.1616,-1.1616,-1.1616,-1.1616,-1.1616,-1.1616,-1.1616,-1.1616,-1.1616,-1.1596,-1.1569,-1.1491,-1.1396,-1.1294,-1.1114,-1.0955,-1.0795,-1.0741,-1.0721,-1.0721,-1.0721,-1.0721,-1.0721,-1.0721,-1.0721,-1.0721,-1.0714,-1.07,-1.0653,-1.0548,-1.0327,-1.0139,-1.0044,-0.9933,-0.9917,-0.988,-0.9842,-0.9832,-0.9819,-0.9819,-0.9819,-0.9819,-0.9819,-0.9819,-0.9819,-0.9819,-0.9819,-0.9819,-0.9819,-0.9819,-0.9819,-0.9819,-0.9819,-0.9819,-0.9819,-0.9819,-0.9819,-0.9819,-0.9819,-0.9819,-0.9819,-0.9819,-0.9819,-0.9819,-0.9819,-0.9819,-0.9819,-0.9819,-0.9819,-0.9819,-0.9812,-0.9795,-0.9805,-0.9751,-0.9673,-0.9646,-0.9612,-0.9517,-0.9401,-0.9337,-0.9279,-0.932,-0.93,-0.9232,-0.9171,-0.9161,-0.9113,-0.9011,-0.8977,-0.8984,-0.8892,-1.2501,-1.2501,-1.2501,-1.2501,-1.2501,-1.2501,-1.2501,-1.2501,-1.2501,-1.2481,-1.2454,-1.2437,-1.2369,-1.2233,-1.2172,-1.2098,-1.1982,-1.1857,-1.1792,-1.1738,-1.1694,-1.1653,-1.1619,-1.1626,-1.1619,-1.1616,-1.1616,-1.1616,-1.1616,-1.1616,-1.1616,-1.1616,-1.1616,-1.1616,-1.1616,-1.1545,-1.1501,-1.1419,-1.1301,-1.1118,-1.0877,-1.0789,-1.0721,-1.0721,-1.0721,-1.0721,-1.0721,-1.0721,-1.0721,-1.0721,-1.0721,-1.0717,-1.0711,-1.0571,-1.047,-1.0382,-1.027,-1.0148,-1.0046,-0.9988,-0.9958,-0.9869,-0.9839,-0.9825,-0.9819,-0.9819,-0.9819,-0.9819,-0.9819,-0.9819,-0.9819,-0.9819,-0.9819,-0.9819,-0.9819,-0.9819,-0.9819,-0.9819,-0.9819,-0.9819,-0.9819,-0.9819,-0.9819,-0.9819,-0.9819,-0.9819,-0.9819,-0.9819,-0.9819,-0.9819,-0.9819,-0.9819,-0.9819,-0.9819,-0.9819,-0.9819,-0.9819,-0.9819,-0.9758,-0.9754,-0.9761,-0.9656,-0.9534,-0.9425,-0.9367,-0.9435,-0.9452,-0.9371,-0.9323,-0.9313,-0.9259,-0.9171,-0.912,-0.9117,-0.9035,-1.2501,-1.2501,-1.2501,-1.2501,-1.2501,-1.2501,-1.2501,-1.2501,-1.2501,-1.2501,-1.2501,-1.2494,-1.2454,-1.2362,-1.2325,-1.2271,-1.2142,-1.2003,-1.1952,-1.1891,-1.1799,-1.1738,-1.1697,-1.1653,-1.1623,-1.1616,-1.1616,-1.1616,-1.1616,-1.1616,-1.1616,-1.1616,-1.1616,-1.1616,-1.1616,-1.1609,-1.1579,-1.1497,-1.1436,-1.1297,-1.1035,-1.0955,-1.0782,-1.0758,-1.0721,-1.0724,-1.0721,-1.0721,-1.0721,-1.0721,-1.0721,-1.0721,-1.0707,-1.0646,-1.0561,-1.0487,-1.0399,-1.031,-1.0202,-1.0134,-1.0103,-1.0025,-0.9934,-0.9947,-0.9856,-0.9849,-0.9825,-0.9819,-0.9819,-0.9819,-0.9819,-0.9819,-0.9819,-0.9819,-0.9819,-0.9819,-0.9819,-0.9819,-0.9819,-0.9819,-0.9819,-0.9819,-0.9819,-0.9819,-0.9819,-0.9819,-0.9819,-0.9819,-0.9819,-0.9819,-0.9819,-0.9819,-0.9819,-0.9819,-0.9819,-0.9819,-0.9819,-0.9819,-0.9819,-0.9808,-0.9785,-0.9744,-0.9669,-0.9585,-0.9554,-0.9602,-0.9591,-0.9517,-0.9486,-0.9476,-0.9412,-0.9334,-0.9293,-0.9303,-0.9171,-1.2501,-1.2501,-1.2501,-1.2501,-1.2501,-1.2501,-1.2501,-1.2501,-1.2501,-1.2501,-1.2501,-1.2501,-1.2501,-1.2454,-1.2386,-1.2342,-1.2271,-1.2152,-1.2104,-1.205,-1.1928,-1.1843,-1.1772,-1.1718,-1.167,-1.163,-1.1616,-1.1616,-1.1616,-1.1616,-1.1616,-1.1616,-1.1616,-1.1616,-1.1616,-1.1616,-1.1596,-1.1565,-1.1508,-1.1426,-1.128,-1.1128,-1.0934,-1.0809,-1.0748,-1.0741,-1.0731,-1.0721,-1.0721,-1.0721,-1.0721,-1.0721,-1.0721,-1.0694,-1.0639,-1.0568,-1.0544,-1.0443,-1.0344,-1.03,-1.028,-1.0236,-1.0137,-1.0073,-0.9984,-0.9913,-0.989,-0.9849,-0.9849,-0.9822,-0.9822,-0.9819,-0.9819,-0.9819,-0.9819,-0.9819,-0.9819,-0.9819,-0.9819,-0.9819,-0.9819,-0.9819,-0.9819,-0.9819,-0.9819,-0.9819,-0.9819,-0.9819,-0.9819,-0.9819,-0.9819,-0.9819,-0.9819,-0.9819,-0.9819,-0.9819,-0.9819,-0.9819,-0.9819,-0.9819,-0.9812,-0.9778,-0.9771,-0.9785,-0.9771,-0.9744,-0.973,-0.968,-0.9656,-0.9622,-0.9595,-0.9527,-0.9442,-0.9391,-0.932,-1.2501,-1.2501,-1.2501,-1.2501,-1.2501,-1.2501,-1.2501,-1.2501,-1.2501,-1.2501,-1.2501,-1.2501,-1.2501,-1.2501,-1.2484,-1.245,-1.2403,-1.2298,-1.226,-1.2223,-1.2084,-1.1959,-1.186,-1.1803,-1.1721,-1.166,-1.1616,-1.1616,-1.1616,-1.1616,-1.1616,-1.1616,-1.1616,-1.1616,-1.1616,-1.1616,-1.1613,-1.1596,-1.1582,-1.1514,-1.1382,-1.1226,-1.1067,-1.0965,-1.0836,-1.0756,-1.0761,-1.0724,-1.0721,-1.0721,-1.0721,-1.0721,-1.0721,-1.0721,-1.0683,-1.0663,-1.0643,-1.0578,-1.0493,-1.046,-1.0436,-1.0351,-1.0263,-1.0236,-1.0185,-1.01,-1.0025,-0.9899,-0.9934,-0.9846,-0.9829,-0.9822,-0.9819,-0.9819,-0.9819,-0.9819,-0.9819,-0.9819,-0.9819,-0.9819,-0.9819,-0.9819,-0.9819,-0.9819,-0.9819,-0.9819,-0.9819,-0.9819,-0.9819,-0.9819,-0.9819,-0.9819,-0.9819,-0.9819,-0.9819,-0.9819,-0.9819,-0.9819,-0.9819,-0.9819,-0.9819,-0.9819,-0.9819,-0.9819,-0.9819,-0.9795,-0.9788,-0.9771,-0.9771,-0.9741,-0.9768,-0.9727,-0.9625,-0.9544,-0.9479]},{"header":{"parameterUnit":"m.s-1","parameterCategory":1,"la1":31.0,"la2":29.5877,"lo1":-88.7671,"lo2":-86.6584,"dy":0.0162,"dx":0.0185,"nx":115,"ny":88,"refTime":"2023-04-20T06:00:00:Z","depth":0,"parameterNumber":3,"parameterNumberName":"V-component_of_WINDS"},"data":[0.0,0.0,0.0,0.0,0.0,0.0,0.0,0.0,0.0,0.0,0.0,0.0,0.0,0.0,0.0,0.0,0.0,0.0,0.0,0.0,0.0,0.0,0.0,0.0,0.0,0.0,0.0,0.0,0.0,0.0,0.0,0.0,0.0,0.0,0.0,0.0,0.0,0.0,0.0,0.0,0.0,0.0,0.0,0.0,0.0,0.0,0.0,0.0,0.0,0.0,0.0,0.0,0.0,0.0,0.0,0.0,0.0,0.0,0.0,0.0,0.0,0.0,0.0,0.0,0.0,0.0,0.0,0.0,0.0,0.0,0.0,0.0,0.0,0.0,0.0,0.0,0.0,0.0,0.0,0.0,0.0,0.0,0.0,0.0,0.0,0.0,0.0,0.0,0.0,0.0,0.0,0.0,0.0,0.0,0.0,0.0,0.0,0.0,0.0,0.0,0.0,0.0,0.0,0.0,0.0,0.0,0.0,0.0,0.0,0.0,0.0,0.0,0.0,0.0,0.0,0.0,0.0,0.0,0.0,0.0,0.0,0.0,0.0,0.0,0.0,0.0,0.0,0.0,0.0,0.0,0.0,0.0,0.0,0.0,0.0,0.0,0.0,0.0,0.0,0.0,0.0,0.0,0.0,0.0,0.0,0.0,0.0,0.0,0.0,0.0,0.0,0.0,0.0,0.0,0.0,0.0,0.0,0.0,0.0,0.0,0.0,0.0,0.0,0.0,0.0,0.0,0.0,0.0,0.0,0.0,0.0,0.0,0.0,0.0,0.0,0.0,0.0,0.0,0.0,0.0,0.0,0.0,0.0,0.0,0.0,0.0,0.0,0.0,0.0,0.0,0.0,0.0,0.0,0.0,0.0,0.0,0.0,0.0,0.0,0.0,0.0,0.0,0.0,0.0,0.0,0.0,0.0,0.0,0.0,0.0,0.0,0.0,0.0,0.0,0.0,0.0,0.0,0.0,0.0,0.0,0.0,0.0,0.0,0.0,0.0,0.0,0.0,0.0,0.0,0.0,0.0,0.0,0.0,0.0,0.0,0.0,0.0,0.0,0.0,0.0,0.0,0.0,0.0,0.0,0.0,0.0,0.0,0.0,0.0,0.0,0.0,0.0,0.0,0.0,0.0,0.0,0.0,0.0,0.0,0.0,0.0,0.0,0.0,0.0,0.0,0.0,0.0,0.0,0.0,0.0,0.0,0.0,0.0,0.0,0.0,0.0,0.0,0.0,0.0,0.0,0.0,0.0,0.0,0.0,0.0,0.0,0.0,0.0,0.0,0.0,0.0,0.0,0.0,0.0,0.0,0.0,0.0,0.0,0.0,0.0,0.0,0.0,0.0,0.0,0.0,0.0,0.0,0.0,0.0,0.0,0.0,0.0,0.0,0.0,0.0,0.0,0.0,0.0,0.0,0.0,0.0,0.0,0.0,0.0,0.0,0.0,0.0,0.0,0.0,0.0,0.0,0.0,0.0,0.0,0.0,0.0,0.0,0.0,0.0,0.0,0.0,0.0,0.0,0.0,0.0,0.0,0.0,0.0,0.0,0.0,0.0,0.0,0.0,0.0,0.0,0.0,0.0,0.0,0.0,0.0,0.0,0.0,0.0,0.0,0.0,0.0,0.0,0.0,0.0,0.0,0.0,0.0,0.0,0.0,0.0,0.0,0.0,0.0,0.0,0.0,0.0,0.0,0.0,0.0,0.0,0.0,0.0,0.0,0.0,0.0,0.0,0.0,0.0,0.0,0.0,0.0,0.0,0.0,0.0,0.0,0.0,0.0,0.0,0.0,0.0,0.0,0.0,0.0,0.0,0.0,0.0,0.0,0.0,0.0,0.0,0.0,0.0,0.0,0.0,0.0,0.0,0.0,0.0,0.0,0.0,0.0,0.0,0.0,0.0,0.0,0.0,0.0,0.0,0.0,0.0,0.0,0.0,0.0,0.0,0.0,0.0,0.0,0.0,0.0,0.0,0.0,0.0,0.0,0.0,0.0,0.0,0.0,0.0,0.0,0.0,0.0,0.0,0.0,0.0,0.0,0.0,0.0,0.0,0.0,0.0,0.0,0.0,0.0,0.0,0.0,0.0,0.0,0.0,0.0,0.0,0.0,0.0,0.0,0.0,0.0,0.0,0.0,0.0,0.0,0.0,0.0,0.0,0.0,0.0,0.0,0.0,0.0,0.0,0.0,0.0,0.0,0.0,0.0,0.0,0.0,0.0,0.0,0.0,0.0,0.0,0.0,0.0,0.0,0.0,0.0,0.0,0.0,0.0,0.0,0.0,0.0,0.0,0.0,0.0,0.0,0.0,0.0,0.0,0.0,0.0,0.0,0.0,0.0,0.0,0.0,0.0,0.0,0.0,0.0,0.0,0.0,0.0,0.0,0.0,0.0,0.0,0.0,0.0,0.0,0.0,0.0,0.0,0.0,0.0,0.0,0.0,0.0,0.0,0.0,0.0,0.0,0.0,0.0,0.0,0.0,0.0,0.0,0.0,0.0,0.0,0.0,0.0,0.0,0.0,0.0,0.0,0.0,0.0,0.0,0.0,0.0,0.0,0.0,0.0,0.0,0.0,0.0,0.0,0.0,0.0,0.0,0.0,0.0,0.0,0.0,0.0,0.0,0.0,0.0,0.0,0.0,0.0,0.0,0.0,0.0,0.0,0.0,0.0,0.0,0.0,0.0,0.0,0.0,0.0,0.0,0.0,0.0,0.0,0.0,0.0,0.0,0.0,0.0,0.0,0.0,0.0,0.0,0.0,0.0,0.0,0.0,0.0,0.0,0.0,0.0,0.0,0.0,0.0,0.0,0.0,0.0,0.0,0.0,0.0,0.0,0.0,0.0,0.0,0.0,0.0,0.0,0.0,0.0,0.0,0.0,0.0,0.0,0.0,0.0,0.0,0.0,0.0,0.0,0.0,0.0,0.0,0.0,0.0,0.0,0.0,0.0,0.0,0.0,0.0,0.0,0.0,0.0,0.0,0.0,0.0,0.0,0.0,0.0,0.0,0.0,0.0,0.0,0.0,0.0,0.0,0.0,0.0,0.0,0.0,0.0,0.0,0.0,0.0,0.0,0.0,0.0,0.0,0.0,0.0,0.0,0.0,0.0,0.0,0.0,0.0,0.0,0.0,0.0,0.0,0.0,0.0,0.0,0.0,0.0,0.0,0.0,0.0,0.0,0.0,0.0,0.0,0.0,0.0,0.0,0.0,0.0,0.0,0.0,0.0,0.0,0.0,0.0,0.0,0.0,0.0,0.0,0.0,0.0,0.0,0.0,0.0,0.0,0.0,0.0,0.0,0.0,0.0,0.0,0.0,0.0,0.0,0.0,0.0,0.0,0.0,0.0,0.0,0.0,0.0,0.0,0.0,0.0,0.0,0.0,0.0,0.0,0.0,0.0,0.0,0.0,0.0,0.0,0.0,0.0,0.0,0.0,0.0,0.0,0.0,0.0,0.0,0.0,0.0,0.0,0.0,0.0,0.0,0.0,0.0,0.0,0.0,0.0,0.0,0.0,0.0,0.0,0.0,0.0,0.0,0.0,0.0,0.0,0.0,0.0,0.0,0.0,0.0,0.0,0.0,0.0,0.0,0.0,0.0,0.0,0.0,0.0,0.0,0.0,0.0,0.0,0.0,0.0,0.0,0.0,0.0,0.0,0.0,0.0,0.0,0.0,0.0,0.0,0.0,0.0,0.0,0.0,0.0,0.0,0.0,0.0,0.0,0.0,0.0,0.0,0.0,0.0,0.0,0.0,0.0,0.0,0.0,0.0,0.0,0.0,0.0,0.0,0.0,0.0,0.0,0.0,0.0,0.0,0.0,0.0,0.0,0.0,0.0,0.0,0.0,0.0,0.0,0.0,0.0,0.0,0.0,0.0,0.0,0.0,0.0,0.0,0.0,0.0,0.0,0.0,0.0,0.0,0.0,0.0,0.0,0.0,0.0,0.0,0.0,0.0,0.0,0.0,0.0,0.0,0.0,0.0,0.0,0.0,0.0,0.0,0.0,0.0,0.0,0.0,0.0,0.0,0.0,0.0,0.0,0.0,0.0,0.0,0.0,0.0,0.0,0.0,0.0,0.0,0.0,0.0,0.0,0.0,0.0,0.0,0.0,0.0,0.0,0.0,0.0,0.0,0.0,0.0,0.0,0.0,0.0,0.0,0.0,0.0,0.0,0.0,0.0,0.0,0.0,0.0,0.0,0.0,0.0,0.0,0.0,0.0,0.0,0.0,0.0,0.0,0.0,0.0,0.0,0.0,0.0,0.0,0.0,0.0,2.3803,0.0,0.0,0.0,0.0,0.0,0.0,0.0,0.0,0.0,0.0,0.0,0.0,0.0,0.0,0.0,0.0,0.0,0.0,0.0,0.0,0.0,0.0,0.0,0.0,0.0,0.0,0.0,0.0,0.0,0.0,0.0,0.0,0.0,0.0,0.0,0.0,0.0,0.0,0.0,0.0,0.0,0.0,0.0,0.0,0.0,0.0,0.0,0.0,0.0,0.0,0.0,0.0,0.0,0.0,0.0,0.0,0.0,0.0,0.0,0.0,0.0,0.0,0.0,0.0,0.0,0.0,0.0,0.0,0.0,0.0,0.0,0.0,0.0,0.0,0.0,0.0,0.0,0.0,0.0,0.0,0.0,0.0,0.0,0.0,0.0,0.0,0.0,0.0,0.0,0.0,0.0,0.0,0.0,0.0,0.0,0.0,0.0,0.0,0.0,0.0,0.0,0.0,0.0,0.0,0.0,0.0,0.0,0.0,0.0,0.0,2.4733,2.4298,2.4269,2.3941,2.3305,0.0,0.0,0.0,0.0,0.0,0.0,0.0,0.0,0.0,0.0,0.0,0.0,0.0,0.0,0.0,0.0,0.0,0.0,0.0,0.0,0.0,0.0,0.0,0.0,0.0,0.0,0.0,0.0,0.0,0.0,0.0,0.0,0.0,0.0,0.0,0.0,0.0,0.0,0.0,0.0,0.0,0.0,0.0,0.0,0.0,0.0,0.0,0.0,0.0,0.0,0.0,0.0,0.0,0.0,0.0,0.0,0.0,0.0,0.0,0.0,0.0,0.0,0.0,0.0,0.0,0.0,0.0,0.0,0.0,0.0,0.0,0.0,0.0,0.0,0.0,0.0,0.0,0.0,0.0,0.0,0.0,0.0,0.0,0.0,0.0,0.0,0.0,0.0,0.0,0.0,0.0,0.0,0.0,0.0,0.0,0.0,0.0,0.0,0.0,0.0,0.0,0.0,0.0,0.0,0.0,0.0,0.0,0.0,0.0,0.0,0.0,0.0,2.4108,2.3705,2.2888,0.0,0.0,0.0,0.0,0.0,0.0,0.0,0.0,0.0,0.0,0.0,0.0,0.0,0.0,0.0,0.0,0.0,0.0,0.0,0.0,0.0,0.0,0.0,0.0,0.0,0.0,0.0,0.0,0.0,0.0,0.0,0.0,0.0,0.0,0.0,0.0,0.0,0.0,0.0,0.0,0.0,0.0,0.0,0.0,0.0,0.0,0.0,0.0,0.0,0.0,0.0,0.0,0.0,0.0,0.0,0.0,0.0,0.0,0.0,0.0,0.0,0.0,0.0,0.0,0.0,0.0,0.0,0.0,0.0,0.0,0.0,0.0,0.0,0.0,0.0,0.0,0.0,0.0,0.0,0.0,0.0,0.0,0.0,0.0,0.0,0.0,0.0,0.0,0.0,0.0,0.0,0.0,0.0,0.0,0.0,0.0,0.0,0.0,0.0,0.0,0.0,0.0,0.0,0.0,0.0,0.0,0.0,0.0,0.0,0.0,2.4806,2.415,2.4123,0.0,2.2462,0.0,0.0,0.0,0.0,0.0,0.0,0.0,0.0,0.0,0.0,0.0,0.0,0.0,0.0,0.0,0.0,0.0,0.0,0.0,0.0,0.0,0.0,0.0,0.0,0.0,0.0,0.0,0.0,0.0,0.0,0.0,0.0,0.0,0.0,0.0,0.0,0.0,0.0,0.0,0.0,0.0,0.0,0.0,0.0,0.0,0.0,0.0,0.0,0.0,0.0,0.0,0.0,0.0,0.0,0.0,0.0,0.0,0.0,0.0,0.0,0.0,0.0,0.0,0.0,0.0,0.0,0.0,0.0,0.0,0.0,0.0,0.0,0.0,0.0,0.0,0.0,0.0,0.0,0.0,0.0,0.0,0.0,0.0,0.0,0.0,0.0,0.0,0.0,0.0,0.0,0.0,0.0,0.0,0.0,0.0,0.0,0.0,0.0,0.0,0.0,0.0,0.0,0.0,0.0,0.0,0.0,0.0,0.0,0.0,0.0,2.4372,2.3989,2.3561,2.3153,0.0,0.0,0.0,0.0,0.0,0.0,0.0,0.0,0.0,0.0,0.0,0.0,0.0,0.0,0.0,0.0,0.0,0.0,0.0,0.0,0.0,0.0,0.0,0.0,0.0,0.0,0.0,0.0,0.0,0.0,0.0,0.0,0.0,0.0,0.0,0.0,0.0,0.0,0.0,0.0,0.0,0.0,0.0,0.0,0.0,0.0,0.0,0.0,0.0,0.0,0.0,0.0,0.0,0.0,0.0,0.0,0.0,0.0,0.0,0.0,0.0,0.0,0.0,0.0,0.0,0.0,0.0,0.0,0.0,0.0,0.0,0.0,0.0,0.0,0.0,0.0,0.0,0.0,0.0,0.0,0.0,0.0,0.0,0.0,0.0,0.0,0.0,0.0,0.0,0.0,0.0,0.0,0.0,0.0,0.0,0.0,0.0,0.0,0.0,0.0,0.0,0.0,0.0,0.0,0.0,0.0,0.0,0.0,0.0,0.0,2.4073,2.391,2.3806,2.3302,2.2994,2.2954,0.0,0.0,0.0,0.0,0.0,0.0,0.0,0.0,0.0,0.0,0.0,0.0,0.0,0.0,0.0,0.0,0.0,0.0,0.0,0.0,0.0,0.0,0.0,0.0,0.0,0.0,0.0,0.0,0.0,0.0,0.0,0.0,0.0,0.0,0.0,0.0,0.0,0.0,0.0,0.0,0.0,0.0,0.0,0.0,0.0,0.0,0.0,0.0,0.0,0.0,0.0,0.0,0.0,0.0,0.0,0.0,0.0,0.0,0.0,0.0,0.0,0.0,0.0,0.0,0.0,0.0,0.0,0.0,0.0,0.0,0.0,0.0,0.0,0.0,0.0,0.0,0.0,0.0,0.0,0.0,0.0,0.0,0.0,0.0,0.0,0.0,0.0,0.0,0.0,0.0,0.0,0.0,0.0,0.0,0.0,0.0,0.0,0.0,0.0,0.0,0.0,0.0,0.0,0.0,0.0,0.0,0.0,0.0,2.3645,2.3628,2.3616,2.3599,2.3603,2.3334,0.0,0.0,0.0,0.0,0.0,0.0,0.0,0.0,0.0,0.0,0.0,0.0,0.0,0.0,0.0,0.0,0.0,0.0,0.0,0.0,0.0,0.0,0.0,0.0,0.0,0.0,0.0,0.0,0.0,0.0,0.0,0.0,0.0,0.0,0.0,0.0,0.0,0.0,0.0,0.0,0.0,0.0,0.0,0.0,0.0,0.0,0.0,0.0,0.0,0.0,0.0,0.0,0.0,0.0,0.0,0.0,0.0,0.0,0.0,0.0,0.0,0.0,0.0,0.0,0.0,0.0,0.0,0.0,0.0,0.0,0.0,0.0,0.0,0.0,0.0,0.0,0.0,0.0,0.0,0.0,0.0,0.0,0.0,0.0,0.0,0.0,0.0,0.0,0.0,0.0,0.0,0.0,0.0,0.0,0.0,0.0,0.0,0.0,0.0,0.0,0.0,0.0,0.0,0.0,0.0,0.0,0.0,0.0,0.0,2.345,2.3348,2.3288,2.3258,2.3288,2.3199,0.0,0.0,0.0,0.0,0.0,0.0,0.0,0.0,0.0,0.0,0.0,0.0,0.0,0.0,0.0,0.0,0.0,0.0,0.0,0.0,0.0,0.0,0.0,0.0,0.0,0.0,0.0,0.0,0.0,0.0,0.0,0.0,0.0,0.0,0.0,0.0,0.0,0.0,0.0,0.0,0.0,0.0,0.0,0.0,0.0,0.0,0.0,0.0,0.0,0.0,0.0,0.0,0.0,0.0,0.0,0.0,0.0,0.0,0.0,0.0,0.0,0.0,0.0,0.0,0.0,0.0,0.0,0.0,0.0,0.0,0.0,0.0,0.0,0.0,0.0,0.0,0.0,0.0,0.0,0.0,0.0,0.0,0.0,0.0,0.0,0.0,0.0,0.0,0.0,0.0,0.0,0.0,0.0,0.0,0.0,0.0,0.0,0.0,0.0,0.0,0.0,0.0,0.0,0.0,0.0,0.0,0.0,0.0,0.0,2.3764,0.0,2.3467,2.328,2.328,2.3235,0.0,0.0,0.0,0.0,0.0,0.0,0.0,0.0,0.0,0.0,0.0,0.0,0.0,0.0,0.0,0.0,0.0,0.0,0.0,0.0,0.0,0.0,0.0,0.0,0.0,0.0,0.0,0.0,0.0,0.0,0.0,0.0,0.0,0.0,0.0,0.0,0.0,0.0,0.0,0.0,0.0,0.0,0.0,0.0,0.0,0.0,0.0,0.0,0.0,0.0,0.0,0.0,0.0,0.0,0.0,0.0,0.0,0.0,0.0,0.0,0.0,0.0,0.0,0.0,0.0,0.0,0.0,0.0,0.0,0.0,0.0,0.0,0.0,0.0,0.0,0.0,0.0,0.0,0.0,0.0,0.0,0.0,0.0,0.0,0.0,0.0,0.0,0.0,0.0,0.0,0.0,0.0,0.0,0.0,0.0,0.0,0.0,0.0,0.0,0.0,0.0,0.0,0.0,0.0,0.0,0.0,0.0,0.0,2.4723,2.4491,2.4466,2.4238,2.371,2.3729,2.3542,0.0,0.0,0.0,0.0,0.0,0.0,0.0,0.0,0.0,0.0,0.0,0.0,0.0,0.0,0.0,0.0,0.0,0.0,0.0,0.0,0.0,0.0,0.0,0.0,0.0,0.0,0.0,0.0,0.0,0.0,0.0,0.0,0.0,0.0,0.0,0.0,0.0,0.0,0.0,0.0,0.0,0.0,0.0,0.0,0.0,0.0,0.0,0.0,0.0,0.0,0.0,0.0,0.0,0.0,0.0,0.0,0.0,0.0,0.0,0.0,0.0,0.0,0.0,0.0,0.0,0.0,0.0,0.0,0.0,0.0,0.0,0.0,0.0,0.0,0.0,0.0,0.0,0.0,0.0,0.0,0.0,0.0,0.0,0.0,0.0,0.0,0.0,0.0,0.0,0.0,0.0,0.0,0.0,0.0,0.0,0.0,0.0,0.0,0.0,0.0,0.0,0.0,0.0,0.0,0.0,0.0,0.0,0.0,0.0,2.4736,2.4723,2.4636,2.4473,2.4461,2.4386,0.0,0.0,0.0,0.0,0.0,0.0,0.0,0.0,0.0,0.0,0.0,0.0,0.0,0.0,0.0,0.0,0.0,0.0,0.0,0.0,0.0,0.0,0.0,0.0,0.0,0.0,0.0,0.0,0.0,0.0,0.0,0.0,0.0,0.0,0.0,0.0,0.0,0.0,0.0,0.0,0.0,0.0,0.0,0.0,0.0,0.0,0.0,0.0,0.0,0.0,0.0,0.0,0.0,0.0,0.0,0.0,0.0,0.0,0.0,0.0,0.0,0.0,0.0,0.0,0.0,0.0,0.0,0.0,0.0,0.0,0.0,0.0,0.0,0.0,0.0,0.0,0.0,0.0,0.0,0.0,0.0,0.0,0.0,0.0,0.0,0.0,0.0,0.0,0.0,0.0,0.0,0.0,0.0,0.0,0.0,0.0,0.0,0.0,0.0,0.0,0.0,0.0,0.0,0.0,0.0,0.0,0.0,0.0,0.0,2.546,2.5369,2.5203,2.5003,2.4991,2.4923,2.4788,0.0,0.0,0.0,0.0,0.0,0.0,0.0,0.0,0.0,0.0,0.0,0.0,0.0,0.0,0.0,0.0,0.0,0.0,0.0,0.0,0.0,0.0,0.0,0.0,0.0,0.0,0.0,0.0,0.0,0.0,0.0,0.0,0.0,0.0,0.0,0.0,0.0,0.0,0.0,0.0,0.0,0.0,0.0,0.0,0.0,0.0,0.0,0.0,0.0,0.0,0.0,0.0,0.0,0.0,0.0,0.0,0.0,0.0,0.0,0.0,0.0,0.0,0.0,0.0,0.0,0.0,0.0,0.0,0.0,0.0,0.0,0.0,0.0,0.0,0.0,0.0,0.0,0.0,0.0,0.0,0.0,0.0,0.0,0.0,0.0,0.0,0.0,0.0,0.0,0.0,0.0,0.0,0.0,0.0,0.0,0.0,0.0,0.0,0.0,0.0,0.0,0.0,0.0,0.0,0.0,0.0,0.0,0.0,2.6487,2.6292,2.594,2.5385,2.5372,2.5236,0.0,0.0,0.0,0.0,0.0,0.0,0.0,0.0,0.0,0.0,0.0,0.0,0.0,0.0,0.0,0.0,0.0,0.0,0.0,0.0,0.0,0.0,0.0,0.0,0.0,0.0,0.0,0.0,0.0,0.0,0.0,0.0,0.0,0.0,0.0,0.0,0.0,0.0,0.0,0.0,0.0,0.0,0.0,0.0,0.0,0.0,0.0,0.0,0.0,0.0,0.0,0.0,0.0,0.0,0.0,0.0,0.0,0.0,0.0,0.0,0.0,0.0,0.0,0.0,0.0,0.0,0.0,0.0,0.0,0.0,0.0,0.0,0.0,0.0,0.0,0.0,0.0,0.0,0.0,0.0,0.0,0.0,0.0,0.0,0.0,0.0,0.0,0.0,0.0,0.0,0.0,0.0,0.0,0.0,0.0,0.0,0.0,0.0,0.0,0.0,0.0,0.0,0.0,0.0,0.0,0.0,0.0,0.0,0.0,2.6487,2.6452,2.6355,2.6183,2.617,2.6129,0.0,0.0,0.0,0.0,0.0,0.0,0.0,0.0,0.0,0.0,0.0,0.0,0.0,0.0,0.0,0.0,0.0,0.0,0.0,0.0,0.0,0.0,0.0,0.0,0.0,0.0,0.0,0.0,0.0,0.0,0.0,0.0,0.0,0.0,0.0,0.0,0.0,0.0,0.0,0.0,0.0,0.0,0.0,0.0,0.0,0.0,0.0,0.0,0.0,0.0,0.0,0.0,0.0,0.0,0.0,0.0,0.0,0.0,0.0,0.0,0.0,0.0,0.0,0.0,0.0,0.0,0.0,0.0,0.0,0.0,0.0,0.0,0.0,0.0,0.0,0.0,0.0,0.0,0.0,0.0,0.0,0.0,0.0,0.0,0.0,0.0,0.0,0.0,0.0,0.0,0.0,0.0,0.0,0.0,0.0,0.0,0.0,0.0,0.0,0.0,0.0,0.0,0.0,0.0,0.0,0.0,0.0,0.0,2.6487,2.6487,2.6487,2.6487,2.6487,2.6487,2.6487,0.0,0.0,0.0,0.0,0.0,0.0,0.0,0.0,0.0,0.0,0.0,0.0,0.0,0.0,0.0,0.0,0.0,0.0,0.0,0.0,0.0,0.0,0.0,0.0,0.0,0.0,0.0,0.0,0.0,0.0,0.0,0.0,0.0,0.0,0.0,0.0,0.0,0.0,0.0,0.0,0.0,0.0,0.0,0.0,0.0,0.0,0.0,0.0,0.0,0.0,0.0,0.0,0.0,0.0,0.0,0.0,0.0,0.0,0.0,0.0,0.0,0.0,0.0,0.0,0.0,0.0,0.0,0.0,0.0,0.0,0.0,0.0,0.0,0.0,0.0,0.0,0.0,0.0,0.0,0.0,0.0,0.0,0.0,0.0,0.0,0.0,0.0,0.0,0.0,0.0,0.0,0.0,0.0,0.0,0.0,0.0,0.0,0.0,0.0,0.0,0.0,0.0,0.0,0.0,0.0,0.0,0.0,0.0,2.6533,2.6487,2.6487,2.6487,2.6487,2.6487,2.6499,0.0,0.0,0.0,0.0,0.0,0.0,0.0,0.0,0.0,0.0,0.0,0.0,0.0,0.0,0.0,0.0,0.0,0.0,0.0,0.0,0.0,0.0,0.0,0.0,0.0,0.0,0.0,0.0,0.0,0.0,0.0,0.0,0.0,0.0,0.0,0.0,0.0,0.0,0.0,0.0,0.0,0.0,0.0,0.0,0.0,0.0,0.0,0.0,0.0,0.0,0.0,0.0,0.0,0.0,0.0,0.0,0.0,0.0,0.0,0.0,0.0,0.0,0.0,0.0,0.0,0.0,0.0,0.0,0.0,0.0,0.0,0.0,0.0,0.0,0.0,0.0,0.0,0.0,0.0,0.0,0.0,0.0,0.0,0.0,0.0,0.0,0.0,0.0,0.0,0.0,0.0,0.0,0.0,0.0,0.0,0.0,0.0,0.0,0.0,0.0,0.0,0.0,0.0,0.0,0.0,0.0,0.0,0.0,2.6602,2.6487,2.6487,2.6487,2.6487,2.6487,2.6568,0.0,0.0,0.0,0.0,0.0,0.0,0.0,0.0,0.0,0.0,0.0,0.0,0.0,0.0,0.0,0.0,0.0,0.0,0.0,0.0,0.0,0.0,0.0,0.0,0.0,0.0,0.0,0.0,0.0,0.0,0.0,0.0,0.0,0.0,0.0,0.0,0.0,0.0,0.0,0.0,0.0,0.0,0.0,0.0,0.0,0.0,0.0,0.0,2.2878,0.0,0.0,0.0,0.0,0.0,0.0,0.0,0.0,0.0,0.0,0.0,0.0,0.0,0.0,0.0,0.0,0.0,0.0,0.0,0.0,0.0,0.0,0.0,0.0,0.0,0.0,0.0,0.0,0.0,0.0,0.0,0.0,0.0,0.0,0.0,0.0,0.0,0.0,0.0,0.0,0.0,0.0,0.0,0.0,0.0,0.0,0.0,0.0,0.0,0.0,0.0,0.0,0.0,0.0,0.0,0.0,0.0,0.0,0.0,2.6714,2.6487,2.6487,2.6487,2.6487,2.6487,2.6555,0.0,0.0,0.0,0.0,0.0,0.0,0.0,0.0,0.0,0.0,0.0,0.0,0.0,0.0,0.0,0.0,0.0,0.0,0.0,0.0,0.0,0.0,0.0,0.0,0.0,0.0,0.0,0.0,0.0,0.0,0.0,0.0,0.0,0.0,0.0,0.0,0.0,0.0,0.0,0.0,0.0,0.0,0.0,0.0,0.0,0.0,0.0,0.0,0.0,0.0,0.0,0.0,0.0,0.0,0.0,0.0,0.0,0.0,0.0,0.0,0.0,0.0,0.0,0.0,0.0,0.0,0.0,0.0,0.0,0.0,0.0,0.0,0.0,0.0,0.0,0.0,0.0,0.0,0.0,0.0,0.0,0.0,0.0,0.0,0.0,0.0,0.0,0.0,0.0,0.0,0.0,0.0,0.0,0.0,0.0,0.0,0.0,0.0,0.0,0.0,0.0,0.0,0.0,0.0,0.0,0.0,0.0,2.731,2.6952,2.6679,2.6679,2.6624,2.6487,2.6692,2.6794,2.6816,0.0,0.0,0.0,0.0,0.0,0.0,0.0,0.0,0.0,0.0,0.0,0.0,0.0,0.0,0.0,0.0,0.0,0.0,0.0,0.0,0.0,0.0,0.0,0.0,0.0,0.0,0.0,0.0,0.0,0.0,0.0,0.0,0.0,0.0,0.0,0.0,0.0,0.0,2.3744,2.3637,0.0,0.0,0.0,0.0,0.0,0.0,0.0,0.0,2.3358,0.0,0.0,0.0,0.0,0.0,0.0,0.0,0.0,0.0,0.0,0.0,0.0,0.0,0.0,0.0,0.0,0.0,0.0,0.0,0.0,0.0,0.0,0.0,0.0,0.0,0.0,0.0,0.0,0.0,0.0,0.0,0.0,0.0,0.0,0.0,0.0,0.0,0.0,0.0,0.0,0.0,0.0,0.0,0.0,0.0,0.0,0.0,0.0,0.0,0.0,0.0,0.0,0.0,0.0,0.0,0.0,2.898,2.796,2.7443,2.7517,2.7517,2.7196,2.6555,2.7477,2.7809,2.739,0.0,0.0,0.0,0.0,0.0,0.0,0.0,0.0,0.0,0.0,0.0,0.0,0.0,0.0,0.0,0.0,0.0,0.0,0.0,0.0,0.0,0.0,0.0,0.0,0.0,0.0,0.0,0.0,0.0,0.0,0.0,0.0,0.0,0.0,0.0,0.0,0.0,0.0,0.0,2.4381,2.4597,0.0,0.0,0.0,0.0,0.0,0.0,0.0,0.0,2.4381,0.0,0.0,0.0,0.0,0.0,0.0,0.0,0.0,0.0,0.0,0.0,0.0,0.0,0.0,0.0,0.0,0.0,0.0,0.0,0.0,0.0,0.0,0.0,0.0,0.0,0.0,0.0,0.0,0.0,0.0,0.0,0.0,0.0,0.0,0.0,0.0,0.0,0.0,0.0,0.0,0.0,0.0,0.0,0.0,0.0,0.0,0.0,0.0,0.0,0.0,0.0,0.0,0.0,0.0,0.0,2.9585,2.8871,2.8487,2.8376,2.8363,2.8201,2.7835,2.8306,2.8514,0.0,0.0,0.0,0.0,0.0,0.0,0.0,0.0,0.0,0.0,0.0,0.0,0.0,0.0,0.0,0.0,0.0,0.0,0.0,0.0,0.0,0.0,0.0,0.0,0.0,0.0,0.0,0.0,0.0,0.0,0.0,0.0,0.0,0.0,0.0,0.0,0.0,0.0,0.0,0.0,2.5625,2.6086,2.6201,0.0,0.0,0.0,0.0,0.0,0.0,2.4949,2.47,0.0,0.0,0.0,0.0,0.0,0.0,0.0,0.0,0.0,0.0,0.0,0.0,0.0,0.0,0.0,0.0,0.0,0.0,0.0,0.0,0.0,0.0,0.0,0.0,0.0,0.0,0.0,0.0,0.0,0.0,0.0,0.0,0.0,0.0,0.0,0.0,0.0,0.0,0.0,0.0,0.0,0.0,0.0,0.0,0.0,0.0,0.0,0.0,0.0,0.0,0.0,0.0,0.0,0.0,0.0,3.0142,2.9749,2.9487,2.9286,2.9254,2.9192,2.8989,2.9125,2.9265,0.0,0.0,0.0,0.0,0.0,0.0,0.0,0.0,0.0,0.0,0.0,0.0,0.0,0.0,0.0,0.0,0.0,0.0,0.0,0.0,0.0,0.0,0.0,0.0,0.0,0.0,0.0,0.0,0.0,0.0,0.0,0.0,0.0,0.0,0.0,0.0,0.0,0.0,0.0,0.0,0.0,2.7577,2.7552,2.77,0.0,0.0,0.0,0.0,2.5672,2.5342,0.0,0.0,0.0,0.0,0.0,0.0,0.0,0.0,0.0,0.0,0.0,0.0,0.0,0.0,0.0,0.0,0.0,0.0,0.0,0.0,0.0,0.0,0.0,0.0,0.0,0.0,0.0,0.0,0.0,0.0,0.0,0.0,0.0,0.0,0.0,0.0,0.0,0.0,0.0,0.0,0.0,0.0,0.0,0.0,0.0,0.0,0.0,0.0,0.0,0.0,0.0,0.0,0.0,0.0,0.0,0.0,3.1161,3.0237,2.9872,3.0133,3.0147,2.9782,2.9034,3.0025,3.0374,0.0,0.0,0.0,0.0,0.0,0.0,0.0,0.0,0.0,0.0,0.0,0.0,0.0,0.0,0.0,0.0,0.0,0.0,0.0,0.0,0.0,0.0,0.0,0.0,0.0,0.0,0.0,0.0,0.0,0.0,0.0,0.0,0.0,0.0,0.0,0.0,0.0,0.0,0.0,0.0,0.0,2.8671,2.9004,2.9305,2.9397,0.0,0.0,2.7636,2.7294,2.6705,0.0,0.0,0.0,0.0,0.0,0.0,0.0,0.0,0.0,0.0,0.0,0.0,0.0,0.0,0.0,0.0,0.0,0.0,0.0,0.0,0.0,0.0,0.0,0.0,0.0,0.0,0.0,0.0,0.0,0.0,0.0,0.0,0.0,0.0,0.0,0.0,0.0,0.0,0.0,0.0,0.0,0.0,0.0,0.0,0.0,0.0,0.0,0.0,0.0,0.0,0.0,0.0,0.0,0.0,0.0,3.2946,3.1728,3.1073,3.0822,3.097,3.097,3.0807,3.0434,3.0999,3.119,0.0,0.0,0.0,0.0,0.0,0.0,0.0,0.0,0.0,0.0,0.0,0.0,0.0,0.0,0.0,0.0,0.0,0.0,0.0,0.0,0.0,0.0,0.0,0.0,0.0,0.0,0.0,0.0,0.0,0.0,0.0,0.0,0.0,0.0,0.0,0.0,0.0,0.0,0.0,0.0,0.0,0.0,3.0224,3.0342,0.0,0.0,0.0,2.857,2.7809,0.0,0.0,0.0,0.0,0.0,0.0,0.0,0.0,0.0,0.0,0.0,0.0,0.0,0.0,0.0,0.0,0.0,0.0,0.0,0.0,0.0,0.0,0.0,0.0,0.0,0.0,0.0,0.0,0.0,0.0,0.0,0.0,0.0,0.0,0.0,0.0,0.0,0.0,0.0,0.0,0.0,0.0,0.0,0.0,0.0,0.0,0.0,0.0,0.0,0.0,0.0,0.0,0.0,0.0,0.0,0.0,0.0,3.2333,3.1966,3.1796,3.1768,3.1582,3.1582,3.1768,3.1866,0.0,0.0,0.0,0.0,0.0,0.0,0.0,0.0,0.0,0.0,0.0,0.0,0.0,0.0,0.0,0.0,0.0,0.0,0.0,0.0,0.0,0.0,0.0,0.0,0.0,0.0,0.0,3.0678,0.0,0.0,0.0,0.0,0.0,0.0,0.0,0.0,0.0,0.0,0.0,0.0,0.0,0.0,3.0955,3.1073,3.0984,3.0807,0.0,0.0,2.9331,2.8436,2.813,2.7887,0.0,0.0,0.0,0.0,0.0,0.0,0.0,0.0,0.0,0.0,0.0,0.0,0.0,0.0,0.0,0.0,0.0,0.0,0.0,0.0,0.0,0.0,0.0,0.0,0.0,0.0,0.0,0.0,0.0,0.0,0.0,0.0,0.0,0.0,0.0,0.0,0.0,0.0,0.0,0.0,0.0,0.0,0.0,0.0,0.0,0.0,0.0,0.0,0.0,0.0,0.0,0.0,0.0,0.0,3.4648,3.3166,3.2722,3.2547,3.252,3.1838,3.1824,3.2492,3.2532,3.2841,0.0,0.0,0.0,0.0,0.0,0.0,0.0,0.0,0.0,0.0,0.0,0.0,0.0,0.0,0.0,0.0,0.0,0.0,0.0,0.0,0.0,0.0,0.0,0.0,0.0,0.0,0.0,0.0,0.0,0.0,0.0,0.0,0.0,0.0,0.0,0.0,0.0,0.0,0.0,0.0,0.0,3.1248,3.1278,3.1278,3.119,0.0,0.0,2.9903,2.9701,2.9251,2.8844,2.8693,0.0,0.0,0.0,0.0,0.0,0.0,0.0,0.0,0.0,0.0,0.0,0.0,0.0,0.0,0.0,0.0,0.0,0.0,0.0,0.0,0.0,0.0,0.0,0.0,0.0,0.0,0.0,0.0,0.0,0.0,0.0,0.0,0.0,0.0,0.0,0.0,0.0,0.0,0.0,0.0,0.0,0.0,0.0,0.0,0.0,0.0,0.0,0.0,0.0,0.0,0.0,0.0,0.0,3.5054,3.3594,3.3355,3.3209,3.3209,3.296,3.2917,3.3224,3.3365,3.3547,0.0,0.0,0.0,0.0,0.0,0.0,0.0,0.0,0.0,0.0,0.0,0.0,0.0,0.0,0.0,0.0,0.0,0.0,0.0,0.0,0.0,0.0,0.0,0.0,0.0,0.0,0.0,0.0,3.3119,3.3277,3.3193,0.0,0.0,0.0,0.0,0.0,0.0,0.0,0.0,0.0,0.0,3.1307,3.1409,3.1351,0.0,0.0,3.097,3.0584,2.9995,2.9858,2.9673,2.93,2.917,0.0,0.0,0.0,0.0,0.0,0.0,0.0,0.0,0.0,0.0,0.0,0.0,0.0,0.0,0.0,0.0,0.0,0.0,0.0,0.0,0.0,0.0,0.0,0.0,0.0,0.0,0.0,0.0,0.0,0.0,0.0,0.0,0.0,0.0,0.0,0.0,0.0,0.0,0.0,0.0,0.0,0.0,0.0,0.0,0.0,0.0,0.0,0.0,0.0,0.0,0.0,0.0,3.5694,3.4267,3.4003,3.3912,3.3887,3.3684,3.3684,3.3912,3.4087,3.4227,0.0,0.0,0.0,0.0,0.0,0.0,0.0,0.0,0.0,0.0,0.0,0.0,0.0,0.0,0.0,0.0,0.0,0.0,0.0,0.0,0.0,0.0,0.0,0.0,0.0,0.0,0.0,0.0,3.3604,3.3774,3.372,0.0,0.0,0.0,0.0,0.0,0.0,0.0,0.0,0.0,0.0,3.1424,3.1568,3.1496,3.1467,3.1496,3.1467,3.1248,3.0689,3.0644,3.051,3.0103,0.0,0.0,0.0,0.0,0.0,0.0,0.0,0.0,0.0,0.0,0.0,0.0,0.0,0.0,0.0,0.0,0.0,0.0,0.0,0.0,0.0,0.0,0.0,0.0,0.0,0.0,0.0,0.0,0.0,0.0,4.0288,0.0,0.0,0.0,0.0,0.0,0.0,0.0,0.0,0.0,0.0,0.0,0.0,0.0,0.0,0.0,0.0,0.0,0.0,0.0,0.0,0.0,0.0,3.6666,3.5301,3.4826,3.4609,3.4592,3.3962,3.3969,3.4568,3.4592,3.4864,3.5406,0.0,0.0,0.0,0.0,0.0,0.0,0.0,0.0,0.0,0.0,0.0,0.0,0.0,0.0,0.0,0.0,0.0,0.0,0.0,0.0,0.0,0.0,0.0,0.0,0.0,0.0,3.4472,3.4586,3.4626,0.0,0.0,0.0,0.0,0.0,0.0,0.0,0.0,0.0,0.0,3.1712,3.1568,3.1756,3.1799,3.1841,3.1968,3.187,3.1798,3.1896,3.1668,3.1453,0.0,0.0,0.0,0.0,0.0,0.0,0.0,0.0,0.0,0.0,0.0,0.0,0.0,0.0,0.0,0.0,0.0,0.0,0.0,0.0,0.0,0.0,0.0,0.0,0.0,0.0,0.0,4.0436,4.0436,0.0,0.0,0.0,0.0,0.0,0.0,0.0,0.0,0.0,0.0,0.0,3.7185,3.662,0.0,0.0,0.0,0.0,0.0,0.0,0.0,0.0,0.0,0.0,0.0,0.0,3.7143,3.6202,3.6112,3.6071,3.6088,3.6326,3.6319,3.6065,3.6048,3.5877,3.5508,0.0,0.0,0.0,0.0,0.0,0.0,0.0,0.0,0.0,0.0,0.0,0.0,0.0,0.0,0.0,0.0,0.0,0.0,0.0,0.0,0.0,0.0,0.0,0.0,0.0,3.5135,0.0,0.0,0.0,0.0,0.0,0.0,0.0,0.0,0.0,0.0,0.0,3.2933,3.2815,3.2477,3.2231,3.2219,3.2206,3.215,0.0,0.0,0.0,0.0,0.0,0.0,0.0,0.0,0.0,0.0,0.0,0.0,0.0,0.0,3.0113,2.9822,2.9498,2.9075,2.839,0.0,0.0,0.0,0.0,0.0,0.0,0.0,0.0,0.0,0.0,0.0,0.0,0.0,0.0,4.1013,0.0,4.1013,0.0,0.0,0.0,0.0,0.0,0.0,0.0,0.0,3.8751,3.794,3.7185,3.6654,3.6688,0.0,3.7178,3.7385,0.0,0.0,0.0,0.0,0.0,0.0,0.0,0.0,3.7786,3.7101,3.7138,3.7178,3.7195,3.7652,3.7669,3.7178,3.6931,3.6411,3.5577,3.5435,3.5389,0.0,0.0,0.0,0.0,0.0,0.0,0.0,0.0,0.0,0.0,0.0,0.0,0.0,0.0,0.0,0.0,0.0,0.0,0.0,0.0,0.0,0.0,0.0,3.5423,0.0,0.0,0.0,0.0,0.0,0.0,0.0,0.0,0.0,3.4349,3.3885,3.3547,3.3433,3.3108,3.2841,3.2765,0.0,0.0,0.0,0.0,0.0,0.0,0.0,3.2398,3.2302,3.2048,3.1794,3.1552,3.1322,3.1146,3.1146,0.0,0.0,3.0417,3.0129,2.9763,2.9129,2.8538,2.7901,2.7297,2.6692,2.6305,0.0,0.0,0.0,0.0,0.0,0.0,0.0,0.0,4.2103,4.204,0.0,4.2005,0.0,0.0,0.0,0.0,0.0,4.1144,0.0,0.0,3.9255,3.8532,3.8068,3.8018,3.7994,3.7994,3.7984,3.7984,3.7977,3.7953,0.0,0.0,0.0,0.0,0.0,0.0,3.865,3.7932,3.7939,3.7939,3.7939,3.7973,3.799,3.7922,3.7212,3.6468,3.5684,3.5667,3.5633,3.56,3.56,0.0,0.0,0.0,0.0,0.0,0.0,0.0,0.0,0.0,0.0,0.0,0.0,0.0,0.0,0.0,0.0,0.0,0.0,0.0,0.0,3.5543,0.0,0.0,0.0,0.0,0.0,0.0,0.0,0.0,0.0,0.0,3.4787,3.4341,3.3986,3.386,0.0,0.0,0.0,0.0,3.3475,3.3487,3.3235,3.3102,3.3293,3.3245,3.2986,3.252,0.0,0.0,3.1653,3.1409,3.1307,3.1322,3.1322,3.119,3.0881,3.0582,3.0267,3.0025,2.9156,2.8338,2.8019,2.7263,2.6602,4.6363,0.0,0.0,0.0,0.0,4.4507,4.4301,4.3984,4.39,4.3533,4.2956,4.2998,0.0,0.0,0.0,0.0,0.0,0.0,4.1895,4.1573,4.1345,4.1089,4.0731,4.021,3.995,3.995,3.9382,3.9098,3.9098,3.8685,3.8648,3.9012,0.0,0.0,0.0,0.0,3.8886,3.87,3.8684,3.8684,3.8667,3.9191,3.9208,3.87,3.7973,3.7229,3.6485,3.6451,3.618,3.5633,3.5616,0.0,0.0,0.0,0.0,0.0,0.0,0.0,0.0,0.0,0.0,0.0,0.0,0.0,0.0,0.0,0.0,0.0,0.0,0.0,3.5616,3.5577,3.5566,0.0,0.0,0.0,0.0,0.0,0.0,0.0,0.0,0.0,3.535,3.5118,3.4883,0.0,0.0,3.4292,3.4209,3.4168,3.4118,3.3894,0.0,0.0,0.0,3.3355,3.3039,3.3002,3.2453,3.2094,3.2244,3.1809,3.1438,3.1438,3.1438,3.1424,3.1322,3.1234,3.0955,3.0359,2.9919,2.9487,2.8844,2.7986,2.7351,4.9206,4.7213,4.7496,4.7105,4.6275,4.6237,4.5874,4.5236,4.5158,4.4827,4.4335,4.4375,4.4162,4.3802,4.3784,0.0,0.0,0.0,4.3687,4.3353,4.3394,4.3212,4.2803,4.2342,4.2132,4.2115,4.165,4.1416,4.1398,4.1102,4.0979,4.0987,0.0,0.0,4.0079,3.9656,3.9453,3.9453,3.9453,3.9453,3.9428,3.9876,3.9757,3.9046,3.8755,3.8322,3.7592,3.7787,3.7563,3.6857,3.6561,3.6429,0.0,0.0,0.0,0.0,0.0,0.0,0.0,0.0,0.0,0.0,0.0,3.6028,3.5701,0.0,0.0,0.0,3.5616,3.5616,3.5616,3.5616,0.0,0.0,0.0,0.0,0.0,0.0,0.0,3.552,3.5543,3.5566,3.56,3.5487,3.5383,3.5268,3.5128,3.497,3.4828,0.0,3.4739,3.448,3.4488,3.448,3.4366,3.4111,3.3894,3.3761,3.3066,3.2598,3.2895,3.241,3.1951,3.191,3.1726,3.1496,3.1496,3.1496,3.1365,3.0866,3.0524,3.0103,2.9597,2.857,2.7716,5.1646,5.0963,5.0657,4.9646,4.8251,4.835,4.7605,4.6305,4.6305,4.6214,4.6102,4.6159,4.6011,4.5713,4.5713,0.0,4.5641,4.5754,4.5566,4.5178,4.5233,4.4967,4.444,4.444,4.4422,4.444,4.4369,4.4351,4.4298,4.4381,4.4413,4.417,4.1028,3.9761,4.039,4.0441,4.0424,4.0441,4.0424,4.0441,4.0441,4.0373,4.0033,3.937,3.9744,3.9606,3.8925,3.9397,3.9403,3.879,3.8142,3.7739,3.771,0.0,0.0,0.0,0.0,0.0,0.0,0.0,0.0,0.0,0.0,0.0,0.0,0.0,0.0,0.0,3.5644,0.0,3.5616,3.5616,0.0,0.0,0.0,3.5616,3.5616,3.5616,3.5616,3.5616,0.0,0.0,3.5616,3.56,3.5571,3.5514,3.5498,3.5469,3.5337,3.5314,3.5274,3.5152,3.5018,3.497,3.493,3.5024,3.492,3.4568,3.4021,3.3582,3.3624,3.3103,3.2707,3.2668,3.2132,3.1653,3.1596,3.164,3.1553,3.1496,3.0896,3.0419,3.0343,2.916,2.8084,5.2803,5.2635,5.2553,5.158,5.0134,5.0175,4.9975,4.9646,4.9646,4.9277,4.8709,4.871,4.7993,4.6726,4.6763,4.6415,4.581,4.5865,4.5828,4.5772,4.6339,4.6556,4.6421,4.6421,4.6421,4.6385,4.5802,4.551,4.5473,4.5102,4.4919,4.4821,4.3585,4.3049,4.3225,4.3225,4.3242,4.3242,4.3242,4.3225,4.3225,4.264,4.2219,4.2061,4.1569,4.0986,4.027,4.0359,4.0114,3.9426,3.9214,3.9128,3.9188,3.9788,0.0,0.0,0.0,0.0,0.0,0.0,0.0,0.0,0.0,3.7038,3.6242,0.0,3.6276,0.0,3.6019,3.5822,3.5622,3.5616,0.0,0.0,3.5616,3.5616,3.5616,3.5616,3.5616,3.5616,3.5616,3.5616,3.5616,3.5616,3.5577,3.5554,3.5594,3.5571,3.5532,3.5509,3.5526,3.5487,3.5441,3.5441,3.5396,3.5045,3.4752,3.4616,3.4046,3.3786,3.4284,3.3811,3.3365,3.3349,3.3235,3.2906,3.2422,3.2327,3.212,3.164,3.1351,3.1219,3.119,3.0359,2.9659,5.3185,5.3185,5.3185,5.2692,5.1848,5.1481,5.1132,5.082,5.082,5.0545,5.0123,5.0143,4.9627,4.8765,4.8727,4.8508,4.8086,4.8086,4.8086,4.8104,4.8545,4.8727,4.8745,4.8727,4.8765,4.8727,4.8288,4.7884,4.7553,4.7248,4.691,4.6527,4.6171,4.6026,4.5969,4.4821,4.4201,4.4201,4.4201,4.4201,4.4201,4.3775,4.3523,4.3505,4.3009,4.2527,4.2139,4.2016,4.164,4.1014,4.0638,4.0442,4.0462,4.0715,4.0978,0.0,0.0,0.0,0.0,0.0,0.0,0.0,0.0,0.0,0.0,0.0,3.6779,3.6761,3.6412,3.6114,3.5963,3.5739,3.5735,3.6096,3.6129,3.6265,3.658,3.6631,3.6614,3.6637,3.6614,3.6614,3.6614,3.6614,3.6614,3.6637,3.6349,3.6011,3.5684,3.5616,3.5616,3.5616,3.5616,3.5616,3.5616,3.5293,3.5052,3.5028,3.4728,3.4633,3.4981,3.4496,3.4037,3.4037,3.3811,3.3479,3.3119,3.3039,3.2799,3.2216,3.1979,3.1853,3.1568,3.0881,3.0313,5.3353,5.3353,5.324,5.3185,5.313,5.2454,5.1756,5.1114,5.1096,5.1096,5.1114,5.1114,5.1059,5.0949,5.0967,5.0894,5.082,5.082,5.082,5.082,5.082,5.082,5.082,5.082,5.082,5.082,5.082,5.0435,4.9776,4.9776,4.9352,4.8655,4.8618,4.8636,4.8506,4.6239,4.4938,4.4724,4.4724,4.4724,4.4741,4.4634,4.4581,4.4545,4.4306,4.4147,4.4148,4.3926,4.3596,4.3117,4.2338,4.1868,4.1812,4.1568,4.1532,0.0,4.2272,0.0,0.0,0.0,0.0,0.0,0.0,0.0,0.0,3.7867,3.7606,3.7644,3.7145,3.6838,3.6817,3.6388,3.6394,3.7064,3.7166,3.7376,3.7912,3.8061,3.8084,3.8014,3.8061,3.8108,3.7986,3.799,3.799,3.7794,3.7297,3.6671,3.5921,3.5667,3.5616,3.5616,3.5616,3.5616,3.5616,3.56,3.5577,3.5577,3.5532,3.5616,3.5554,3.5098,3.4736,3.4688,3.4309,3.3887,3.3761,3.3735,3.3495,3.2868,3.2707,3.2449,3.1682,3.0999,3.0494,5.4179,5.4124,5.346,5.3185,5.3167,5.3041,5.2894,5.2766,5.2747,5.2747,5.2745,5.2726,5.238,5.1775,5.1775,5.1426,5.082,5.082,5.082,5.082,5.082,5.082,5.082,5.082,5.082,5.082,5.082,5.0729,5.0582,5.0582,5.049,5.0325,5.0343,5.0325,5.0286,0.0,0.0,0.0,4.7521,4.7521,4.7503,4.6881,4.6552,4.6516,4.5881,0.0,4.5517,4.548,4.5388,4.5279,4.4528,0.0,0.0,0.0,0.0,0.0,0.0,0.0,0.0,0.0,0.0,0.0,4.1758,4.0671,3.9012,3.9336,3.9623,3.9567,3.936,3.9166,3.9009,3.8926,3.8898,3.9059,3.9057,3.8958,3.8646,3.8971,3.908,3.8624,3.8971,3.9077,3.8693,3.8535,3.8425,3.8122,3.7787,3.7398,3.6711,3.6084,3.5633,3.5616,3.5616,3.5616,3.5616,3.5616,3.5616,3.5616,3.5616,3.5616,3.56,3.5515,3.5402,3.5385,3.5316,3.5005,3.4503,3.4406,3.4211,3.3531,3.3417,3.3024,3.1796,3.1409,3.1278,5.4987,0.0,5.4546,5.4161,0.0,5.3794,5.3573,5.3185,5.3185,5.3185,5.3185,5.3185,5.2986,5.2582,5.2601,5.238,5.1995,5.1995,5.1995,5.1995,5.1995,5.1995,5.1977,5.1995,5.1993,5.1977,5.1977,5.1775,5.1389,5.1389,5.1187,5.082,5.082,5.082,5.082,5.082,5.0178,4.8948,4.8526,4.8324,4.8306,4.7902,4.77,4.7645,0.0,0.0,0.0,0.0,0.0,0.0,0.0,0.0,0.0,0.0,0.0,4.3323,4.3196,4.316,4.3142,4.316,4.2978,4.2631,4.2283,4.1519,4.009,4.0398,4.0633,4.0598,4.0293,4.0053,3.9941,3.9729,3.9751,4.0086,4.0121,4.012,4.0243,4.05,4.0562,4.033,4.0479,4.0541,4.0288,4.0245,4.0115,3.9844,3.9482,3.9024,3.8283,3.7081,3.6079,3.5684,3.5616,3.5616,3.5616,3.5616,3.5616,3.5616,3.5616,3.5616,3.5616,3.5616,3.5616,3.5616,3.5616,3.547,3.5207,3.5098,3.4878,3.4284,3.4087,3.3786,3.273,3.2284,3.1938,5.5812,5.5794,5.5666,5.5207,5.462,5.462,5.4161,5.3405,0.0,0.0,0.0,5.3185,5.3185,5.3185,5.3185,5.3185,5.3185,5.3185,5.3185,5.3185,5.3185,5.3185,5.3185,5.3185,5.3185,5.3185,5.3185,5.2858,5.2234,5.2197,5.1867,5.1279,5.1242,5.1242,5.1224,5.1096,5.0674,5.0033,4.9169,4.8746,4.8746,4.86,4.8545,4.8526,4.7736,4.7314,4.7314,4.6691,4.6324,4.6324,4.6177,4.581,4.515,4.4931,4.4528,4.3905,4.3725,4.3725,4.3814,4.3851,4.3575,4.2983,4.2947,4.2509,4.1525,4.1612,4.1737,4.1737,4.1466,4.1307,4.127,4.0829,4.0758,4.1364,4.1272,4.141,4.1875,4.2062,4.2052,4.2,4.2011,4.2044,4.1908,4.1869,4.1916,4.1743,4.1124,4.0641,3.9861,3.8071,3.6451,3.5752,3.5616,3.5616,3.5616,3.5616,3.5616,3.5616,3.5616,3.5616,3.5616,3.5616,3.5616,3.5616,3.5616,3.56,3.56,3.5554,3.5424,3.4894,3.4759,3.4592,3.3912,3.3355,3.2734,5.662,5.6583,5.5886,5.5541,5.5427,5.5449,5.4968,5.4197,5.35,5.3185,5.3185,5.3185,5.3185,5.3185,5.3185,5.3185,5.3185,5.3185,5.3185,0.0,5.3185,5.3185,5.3185,5.3185,5.3185,5.3185,5.3185,5.3148,5.3038,5.3023,5.2965,5.2858,5.2855,5.2837,5.28,5.2179,5.1775,5.1628,5.0857,5.0453,5.0453,4.9774,4.9427,4.939,4.8581,4.8141,4.8141,4.8031,4.7976,4.7957,4.7296,4.6874,4.6746,4.6085,4.5663,4.5553,4.5517,4.5517,4.5535,4.5553,4.5498,4.5406,4.5406,4.4764,4.3332,4.3792,4.4177,4.4214,4.4601,4.5114,4.5077,4.4309,4.3853,4.3981,4.3487,4.2996,4.2673,4.2976,4.3069,4.2635,4.2977,4.3032,4.2637,4.2577,4.2382,4.1979,4.176,4.1386,4.0422,3.8415,3.6627,3.5819,3.5616,3.5616,3.5616,3.5616,3.5616,3.5616,3.5616,3.5616,3.5616,3.5616,3.5616,3.5616,3.5616,3.5616,3.5616,3.5616,3.5554,3.5385,3.5362,3.5184,3.4592,3.4325,3.3862,5.7464,5.7409,5.7042,5.6638,5.6216,5.5798,5.5133,5.4399,5.4032,5.361,5.3203,5.3185,5.3185,5.3185,5.3185,5.3185,5.3185,5.3185,5.3185,5.3185,5.3185,5.3185,5.3185,5.3185,5.3185,5.3185,5.3185,5.3185,5.3185,5.3185,5.3185,5.3185,5.3185,5.3185,5.3167,5.2839,5.2656,5.2637,5.1426,5.082,5.0802,5.0435,5.0251,5.0251,4.9848,4.9444,4.9003,4.9003,4.8783,4.8324,4.7976,4.7535,4.7131,4.6746,4.6361,4.5938,4.5902,4.5902,4.5902,4.5902,4.5902,4.5902,4.5902,4.559,4.4892,4.5131,4.5351,4.5369,4.57,4.5902,4.5902,4.5571,4.5351,4.5351,4.5002,4.4528,4.3944,4.398,4.3868,4.3287,4.3357,4.341,4.316,4.3142,4.3069,4.2734,4.2483,4.2,4.125,3.9893,3.8343,3.6981,3.61,3.5656,3.5622,3.5616,3.5616,3.5616,3.5616,3.5616,3.5616,3.5616,3.5616,3.5616,3.5616,3.5616,3.5616,3.5616,3.5616,3.5616,3.5616,3.5447,3.5207,3.4894,3.4137,5.7978,5.7978,5.7978,5.7648,5.7005,5.6198,5.5519,5.4932,5.4583,5.4051,5.35,5.3298,5.3185,5.3185,5.3185,5.3185,5.3185,5.3185,5.3185,5.3185,5.3185,5.3185,5.3185,5.3185,5.3185,5.3185,5.3185,5.3185,5.3185,5.3185,5.3185,5.3185,5.3185,5.3185,5.3185,5.3185,5.3185,5.3112,5.1977,5.1334,5.1353,5.1187,5.1059,5.1059,5.0894,5.049,4.9922,4.9848,4.9554,4.8912,4.8691,4.8306,4.77,4.7461,4.7094,4.6526,4.6452,4.6434,4.6434,4.6452,4.6452,4.6452,4.6434,4.6434,4.6452,4.6452,4.6361,4.6214,4.6379,4.6489,4.6489,4.6269,4.6177,4.6177,4.5993,4.5572,4.5076,4.4966,4.4654,4.3938,4.3754,4.3718,4.3551,4.3479,4.3462,4.3374,4.3124,4.263,4.2013,4.1365,4.0159,3.8799,3.7222,3.6298,3.6036,3.5972,3.6011,3.5946,3.5876,3.5871,3.5805,3.5734,3.5616,3.5616,3.5616,3.5616,3.5616,3.5616,3.5616,3.5616,3.5616,3.56,3.5554,3.5207,3.4503,5.7978,5.7978,5.7978,5.796,5.7776,5.7024,5.662,5.6345,5.506,5.4381,5.4197,5.3555,5.3203,5.3185,5.3185,5.3185,5.3185,5.3185,5.3185,5.3185,5.3185,5.3185,5.3185,5.3185,5.3185,5.3185,5.3185,5.3185,5.3185,5.3185,5.3185,5.3185,5.3185,5.3185,5.3185,5.3185,5.3185,5.3185,5.3038,5.2986,5.2947,5.227,5.1905,5.1885,5.1187,5.0765,5.071,5.0692,5.0655,5.0527,4.9848,4.9463,4.9279,4.8618,4.8177,4.8104,4.8067,4.8086,4.8067,4.8086,4.8031,4.8086,4.8012,4.7994,4.8012,4.8049,4.7755,4.7259,4.7626,4.7939,4.8049,4.7406,4.7003,4.6947,4.6434,4.5865,4.5828,4.5792,4.548,4.4673,4.4599,4.4342,4.3754,4.3534,4.3479,4.3479,4.341,4.3284,4.3047,4.2232,4.1447,4.0811,3.9446,3.796,3.7263,3.7039,3.6921,3.6921,3.6641,3.6395,3.6249,3.5963,3.5622,3.5778,3.5616,3.5616,3.5616,3.5616,3.5616,3.5616,3.5616,3.5616,3.56,3.5515,3.5091,5.7978,5.7978,5.7978,5.7978,5.7923,5.7648,5.7226,5.673,5.6124,5.5317,5.4418,5.4051,5.3647,5.3203,5.3185,5.3185,5.3185,5.3185,5.3185,5.3185,5.3185,5.3185,5.3185,5.3185,5.3185,5.3185,5.3185,5.3185,5.3185,5.3185,5.3185,5.3185,5.3185,5.3185,5.3185,5.3185,5.3185,5.3185,5.3185,5.3185,5.3167,5.2894,5.2711,5.2692,5.2399,5.1977,5.1555,5.1518,5.1298,5.0839,5.049,5.0288,5.0306,4.9976,4.9793,4.9738,4.9315,4.9058,4.9078,4.86,4.8324,4.8324,4.8324,4.8324,4.8324,4.8324,4.8159,4.792,4.8103,4.8324,4.8269,4.8012,4.7791,4.7755,4.7498,4.7131,4.6636,4.6599,4.6287,4.5571,4.5406,4.5112,4.4342,4.3773,4.3516,4.3479,4.3479,4.3479,4.3425,4.301,4.2538,4.1993,4.1179,3.995,3.8376,3.7457,3.7299,3.719,3.702,3.6865,3.6803,3.6437,3.6092,3.6092,3.5871,3.5711,3.5616,3.5616,3.5616,3.5616,3.5616,3.5616,3.5616,3.5616,3.5447,5.8327,5.829,5.8088,5.7978,5.7978,5.7978,5.7666,5.7152,5.6914,5.6143,5.5078,5.4601,5.4087,5.3552,5.3316,5.3185,5.3185,5.3185,5.3185,5.3185,5.3185,5.3185,5.3185,5.3185,5.3185,5.3185,5.3185,5.3185,5.3185,5.3185,5.3185,5.3185,5.3185,5.3185,5.3185,5.3185,5.3185,5.3185,5.3185,5.3185,5.3185,5.3185,5.3185,5.3185,5.3185,5.2931,5.2362,5.2344,5.2068,5.1499,5.1261,5.1132,5.1114,5.093,5.082,5.0765,5.0251,4.9941,4.9941,4.9352,4.9003,4.8966,4.8985,4.8985,4.8985,4.8985,4.8875,4.8655,4.8636,4.8618,4.8324,4.8324,4.8324,4.8324,4.8324,4.8049,4.7516,4.7424,4.7113,4.6379,4.6232,4.581,4.4892,4.4213,4.3809,4.3552,4.3479,4.3479,4.3479,4.3442,4.324,4.269,4.247,4.1316,3.9283,3.8474,3.7936,3.7578,3.7542,3.7396,3.7377,3.6943,3.6641,3.66,3.6207,3.5989,3.5963,3.5876,3.5739,3.5644,3.5622,3.5644,3.5616,3.5616,3.5616,5.9148,5.9066,5.835,5.8051,5.8001,5.8029,5.8024,5.7931,5.722,5.6771,5.647,5.5159,5.4421,5.435,5.3668,5.3203,5.3185,5.3185,5.3185,5.3185,5.3185,5.3185,5.3185,5.3185,5.3185,5.3185,5.3185,5.3185,5.3185,5.3185,5.3185,5.3185,5.3185,5.3185,5.3185,5.3185,5.3185,5.3185,5.3185,5.3185,5.3185,5.3185,5.3185,5.3185,5.3185,5.3148,5.3115,5.3133,5.3075,5.3096,5.2364,5.1981,5.1905,5.1281,5.0952,5.0916,5.0802,5.0767,5.0789,5.066,5.0605,5.0642,5.0574,5.064,5.0556,5.0556,5.028,4.9631,4.9616,4.9301,4.8565,4.838,4.8324,4.8324,4.8324,4.8269,4.8233,4.8141,4.7884,4.7223,4.6966,4.6397,4.5021,4.4673,4.425,4.3773,4.3534,4.3479,4.3479,4.3479,4.3424,4.3259,4.2745,4.1739,4.0221,3.942,3.9177,3.8784,3.8231,3.7895,3.7702,3.7506,3.7304,3.7152,3.698,3.6744,3.6481,3.627,3.6097,3.5963,3.5783,3.5734,3.5644,3.5639,3.5616,6.0635,6.0091,5.9268,5.8894,5.8894,5.8875,5.8894,5.8875,5.8614,5.8165,5.7603,5.675,5.6088,5.5569,5.4993,5.4161,5.324,5.3185,5.3185,5.3185,5.3185,5.3185,5.3185,5.3185,5.3185,5.3185,5.3185,5.3185,5.3185,5.3185,5.3185,5.3185,5.3185,5.3185,5.3185,5.3185,5.3185,5.3185,5.3185,5.3185,5.3206,5.3185,5.3185,5.3185,5.3185,5.3185,5.3185,5.3185,5.3185,5.3185,5.3148,5.3159,5.3122,5.2862,5.2733,5.2639,5.1996,5.1781,5.2153,5.1619,5.1303,5.1544,5.1561,5.1583,5.1578,5.1561,5.1447,5.1172,5.0875,5.0378,4.9565,4.8808,4.8324,4.8324,4.8324,4.8344,4.8324,4.8306,4.8158,4.7846,4.7443,4.6801,4.6195,4.5351,4.4635,4.4287,4.3828,4.357,4.3479,4.3479,4.3479,4.3461,4.324,4.269,4.168,4.0451,3.9735,3.941,3.9008,3.8579,3.8302,3.7964,3.7703,3.7614,3.7542,3.7303,3.6943,3.6803,3.6603,3.6308,3.6135,3.5985,3.5667,3.5849,3.5783,6.1651,6.0689,6.0048,5.9652,5.9408,5.9389,5.9389,5.9389,5.9389,5.9105,5.8545,5.7996,5.7417,5.6874,5.6325,5.5516,5.442,5.4001,5.364,5.34,5.3381,5.3381,5.3381,5.34,5.3381,5.3359,5.3251,5.3185,5.3185,5.3185,5.3272,5.34,5.3381,5.3464,5.3602,5.3622,5.3603,5.3641,5.3603,5.3563,5.3422,5.34,5.3318,5.3248,5.3336,5.3381,5.3381,5.34,5.3464,5.3623,5.3869,5.4031,5.4031,5.4031,5.4031,5.3921,5.3293,5.3031,5.3432,5.285,5.2517,5.2767,5.2798,5.2813,5.2813,5.2798,5.27,5.2416,5.2164,5.1651,5.0833,5.0016,4.925,4.8716,4.8604,4.8675,4.8693,4.8692,4.8621,4.8439,4.7941,4.7443,4.7039,4.614,4.537,4.4819,4.4195,4.3846,4.357,4.3479,4.3479,4.3479,4.3461,4.3222,4.258,4.1642,4.0412,3.9939,3.952,3.9132,3.8716,3.8372,3.8133,3.8065,3.7929,3.7667,3.7469,3.7322,3.7076,3.6744,3.6661,3.6583,3.6374,3.6207,3.6161,6.2216,6.0983,6.0724,6.0301,5.9696,5.9564,5.9458,5.9509,5.9492,5.9521,5.9349,5.861,5.831,5.8067,5.7454,5.7012,5.6662,5.5713,5.482,5.4149,5.3944,5.3907,5.3926,5.3851,5.3814,5.3796,5.3422,5.3272,5.3316,5.3339,5.3504,5.374,5.3833,5.3996,5.4436,5.4373,5.4423,5.439,5.4373,5.4223,5.3869,5.3814,5.3644,5.338,5.3643,5.3833,5.3851,5.3833,5.3996,5.4373,5.4471,5.4503,5.4484,5.4484,5.4503,5.4484,5.4414,5.4449,5.4475,5.4399,5.4233,5.4356,5.445,5.4356,5.433,5.436,5.4095,5.352,5.324,5.2874,5.2205,5.1896,5.1071,4.9382,4.9321,4.9506,4.942,4.946,4.9341,4.8928,4.8492,4.7977,4.7388,4.6948,4.6305,4.5315,4.4819,4.4433,4.3882,4.3699,4.3571,4.3479,4.3479,4.3369,4.3147,4.278,4.1532,4.0469,4.001,3.9588,3.9111,3.8716,3.8501,3.8433,3.8399,3.8168,3.7982,3.7808,3.7506,3.7248,3.7229,3.7133,3.6902,3.6724,3.6664,6.3829,6.3236,6.2139,6.1513,6.1188,6.0633,6.0351,6.0351,6.0351,6.0351,6.0253,5.9759,5.9505,5.9387,5.8913,5.8513,5.8217,5.7737,5.7052,5.6065,5.5413,5.5114,5.502,5.4552,5.4272,5.4274,5.4154,5.4103,5.4086,5.4049,5.4171,5.4255,5.4272,5.4338,5.4535,5.4503,5.4503,5.4503,5.4503,5.4404,5.4288,5.4272,5.4223,5.4138,5.4223,5.4404,5.4667,5.4417,5.4355,5.4535,5.4779,5.4924,5.4924,5.4924,5.4905,5.4895,5.464,5.4794,5.5212,5.5061,5.5034,5.5237,5.5306,5.5319,5.5338,5.5306,5.516,5.4861,5.4669,5.4177,5.3506,5.3245,5.2371,5.044,5.0312,5.0184,4.9712,4.9537,4.9445,4.9329,4.8963,4.8595,4.825,4.7811,4.7004,4.6434,4.5883,4.5294,4.4579,4.4338,4.4048,4.3644,4.3571,4.3548,4.3396,4.3231,4.2533,4.1473,4.0818,4.0047,3.9515,3.9129,3.8927,3.8707,3.8707,3.8627,3.8433,3.8234,3.7964,3.779,3.7702,3.7506,3.7284,3.7209,3.721,6.4878,6.4474,6.3455,6.2647,6.2082,6.1485,6.1081,6.0819,6.08,6.08,6.0714,6.0495,6.0351,6.0291,6.004,5.9783,5.9553,5.9548,5.9133,5.8234,5.6933,5.6433,5.6341,5.5925,5.5451,5.5197,5.5016,5.4783,5.4503,5.4519,5.4582,5.4686,5.4716,5.4804,5.4938,5.4933,5.4933,5.4933,5.4966,5.4862,5.4745,5.4716,5.464,5.4532,5.464,5.4833,5.5061,5.4979,5.4952,5.4979,5.5199,5.5338,5.5319,5.5319,5.5319,5.5262,5.5147,5.5186,5.5599,5.5454,5.5411,5.5651,5.5684,5.5684,5.5703,5.5684,5.5684,5.5651,5.5439,5.5121,5.4661,5.4527,5.3747,5.236,5.1891,5.1332,5.0564,4.9971,4.9733,4.9631,4.9371,4.9187,4.8912,4.8611,4.7853,4.7575,4.7127,4.6496,4.5758,4.5195,4.4716,4.4237,4.3992,4.3899,4.371,4.355,4.3389,4.2588,4.1735,4.0779,3.9955,3.9588,3.9313,3.8854,3.8707,3.8707,3.8546,3.8578,3.8433,3.83,3.8132,3.81,3.7965,3.7913,3.7861,6.5416,6.4705,6.4609,6.3666,6.2428,6.2216,6.1704,6.0973,6.0935,6.0896,6.0819,6.0746,6.0757,6.0769,6.0647,6.0601,6.075,6.063,6.0549,6.0002,5.8782,5.7799,5.7494,5.7379,5.7017,5.6518,5.6128,5.5583,5.5174,5.4985,5.4821,5.5292,5.5223,5.5306,5.5512,5.5662,5.5599,5.5577,5.561,5.5454,5.516,5.5115,5.4993,5.4671,5.4947,5.516,5.5212,5.5423,5.561,5.5673,5.564,5.564,5.5673,5.5703,5.5662,5.5651,5.5692,5.564,5.5684,5.5662,5.5662,5.5684,5.5684,5.5684,5.5684,5.5684,5.5684,5.5684,5.5662,5.5624,5.5575,5.5536,5.5122,5.4577,5.3473,5.2609,5.1921,5.0841,5.0369,5.0106,4.98,4.9532,4.9518,4.9385,4.9001,4.8568,4.8286,4.7843,4.7136,4.6394,4.579,4.5225,4.4707,4.4345,4.4195,4.4028,4.3859,4.337,4.2613,4.1793,4.0609,4.0084,3.9441,3.9001,3.8707,3.8707,3.8707,3.8707,3.8707,3.8562,3.8546,3.8658,3.8611,3.8433,3.8318,6.5763,6.5493,6.4878,6.4339,6.3839,6.3281,6.2512,6.1812,6.1755,6.1389,6.0935,6.08,6.08,6.08,6.08,6.08,6.08,6.08,6.08,6.0723,6.0337,5.9202,5.8338,5.8134,5.8019,5.7764,5.7589,5.7506,5.7264,5.6556,5.6369,5.6476,5.5877,5.5615,5.5703,5.5722,5.5684,5.5684,5.5684,5.5662,5.5546,5.5524,5.5501,5.5423,5.5458,5.5524,5.5554,5.564,5.5684,5.5684,5.5684,5.5684,5.5684,5.5684,5.5684,5.5684,5.5684,5.5684,5.5684,5.5684,5.5684,5.5684,5.5684,5.5684,5.5684,5.5684,5.5684,5.5684,5.5684,5.5684,5.5684,5.5684,5.553,5.528,5.4184,5.301,5.2182,5.1642,5.1205,5.0647,5.0228,4.9987,4.9879,4.9714,4.9481,4.9273,4.9136,4.8966,4.8245,4.7672,4.7089,4.6067,4.5428,4.4987,4.4691,4.4522,4.4304,4.3964,4.3478,4.3019,4.1749,4.0634,3.9753,3.8927,3.8744,3.8707,3.8707,3.8707,3.8707,3.8707,3.8707,3.8707,3.8707,3.8596,3.8562,6.5878,6.5859,6.5359,6.4936,6.457,6.407,6.3378,6.2627,6.2216,6.1851,6.132,6.0916,6.08,6.08,6.08,6.08,6.08,6.08,6.08,6.08,6.0731,6.0192,5.9519,5.9338,5.9184,5.8819,5.88,5.8577,5.8239,5.7761,5.7569,5.7365,5.6684,5.6261,5.6242,5.5857,5.5703,5.5684,5.5684,5.5684,5.5684,5.5684,5.5684,5.5703,5.5684,5.5684,5.5703,5.5684,5.5684,5.5684,5.5684,5.5684,5.5684,5.5684,5.5684,5.5684,5.5684,5.5684,5.5684,5.5684,5.5684,5.5684,5.5684,5.5684,5.5684,5.5684,5.5684,5.5684,5.5684,5.5684,5.5684,5.5684,5.5684,5.5549,5.4799,5.3895,5.3068,5.2346,5.1769,5.122,5.0724,5.0347,5.0347,5.0135,5.0043,4.9993,5.0004,4.9775,4.9413,4.8916,4.8346,4.7396,4.636,4.5829,4.5393,4.5154,4.4714,4.4364,4.3899,4.3584,4.2583,4.1215,4.0157,3.9313,3.8964,3.8707,3.8707,3.8707,3.8707,3.8707,3.8707,3.8707,3.8707,3.8707,3.8707,6.5878,6.5878,6.5878,6.5436,6.482,6.4724,6.4243,6.3397,6.2801,6.2409,6.212,6.1416,6.1204,6.0916,6.1089,6.0916,6.08,6.08,6.08,6.08,6.08,6.0627,6.055,6.0473,6.0185,5.9723,5.9627,5.93,5.8896,5.8588,5.8434,5.8223,5.755,5.7195,5.6973,5.6338,5.5895,5.5906,5.5761,5.5703,5.5684,5.5684,5.5684,5.5684,5.5684,5.5684,5.5684,5.5684,5.5684,5.5684,5.5684,5.5684,5.5684,5.5684,5.5684,5.5684,5.5684,5.5684,5.5684,5.5684,5.5684,5.5684,5.5684,5.5684,5.5684,5.5684,5.5684,5.5684,5.5684,5.5684,5.5684,5.5684,5.5684,5.5665,5.5588,5.5299,5.4549,5.3154,5.2115,5.1885,5.1212,5.0914,5.0712,5.0683,5.0663,5.0369,5.0421,5.0306,5.0074,4.9709,4.933,4.8909,4.782,4.6678,4.6238,4.5808,4.5258,4.4752,4.4194,4.3701,4.2963,4.179,4.0664,3.9861,3.9423,3.9001,3.8707,3.8707,3.8707,3.8707,3.8707,3.8707,3.8707,3.8707,3.8707,6.5878,6.5878,6.5878,6.5782,6.5628,6.5609,6.5128,6.432,6.4109,6.3589,6.3108,6.282,6.2358,6.1831,6.1762,6.1473,6.0916,6.0819,6.08,6.08,6.08,6.08,6.08,6.08,6.0685,6.0454,6.0492,6.0377,6.0089,5.9511,5.9242,5.9127,5.8473,5.8011,5.7877,5.7165,5.6714,5.6618,5.6099,5.578,5.5761,5.5703,5.5684,5.5684,5.5684,5.5684,5.5684,5.5684,5.5684,5.5684,5.5684,5.5684,5.5684,5.5684,5.5684,5.5684,5.5684,5.5684,5.5684,5.5684,5.5684,5.5684,5.5684,5.5684,5.5684,5.5684,5.5684,5.5684,5.5684,5.5684,5.5684,5.5684,5.5684,5.5684,5.5684,5.5626,5.5318,5.4491,5.3337,5.2346,5.1808,5.1414,5.0827,5.0798,5.076,5.0702,5.0683,5.0683,5.0538,5.0325,5.0067,4.9721,4.8962,4.7806,4.7163,4.6568,4.5715,4.5106,4.454,4.4113,4.3363,4.2625,4.1604,4.0659,3.9827,3.9423,3.9019,3.8707,3.8707,3.8707,3.8707,3.8707,3.8707,3.8707,3.8707,6.5878,6.5878,6.5878,6.5878,6.5878,6.5878,6.5628,6.5186,6.4762,6.4339,6.3878,6.3531,6.3051,6.2685,6.2608,6.2185,6.1454,6.0954,6.08,6.08,6.08,6.08,6.08,6.08,6.08,6.08,6.0781,6.08,6.0627,6.0358,6.0108,6.0031,5.9281,5.8896,5.8742,5.805,5.7646,5.7434,5.6761,5.6299,5.628,5.5876,5.5684,5.5684,5.5684,5.5684,5.5684,5.5684,5.5684,5.5684,5.5684,5.5684,5.5684,5.5684,5.5684,5.5684,5.5684,5.5684,5.5684,5.5684,5.5684,5.5684,5.5684,5.5684,5.5684,5.5684,5.5684,5.5684,5.5684,5.5684,5.5684,5.5684,5.5684,5.5684,5.5684,5.5684,5.5568,5.4991,5.4241,5.3222,5.2799,5.2135,5.1625,5.1279,5.0914,5.0894,5.0702,5.0683,5.0683,5.0519,5.0452,5.0125,4.9644,4.8933,4.8212,4.7338,4.6205,4.5532,4.4872,4.4548,4.4125,4.342,4.2675,4.1657,4.0607,3.9845,3.9441,3.9093,3.8762,3.8707,3.8707,3.8707,3.8707,3.8707,3.8707,6.5878,6.5878,6.5878,6.5878,6.5878,6.5878,6.5859,6.5743,6.5128,6.4878,6.4705,6.3974,6.382,6.3531,6.3512,6.3031,6.2243,6.1485,6.1146,6.1146,6.0877,6.0819,6.08,6.08,6.08,6.08,6.08,6.08,6.08,6.0781,6.0627,6.0627,6.0108,5.9742,5.9531,5.8934,5.8473,5.8338,5.7627,5.7022,5.6868,5.628,5.5983,5.5684,5.5684,5.5684,5.5684,5.5684,5.5684,5.5684,5.5684,5.5684,5.5684,5.5684,5.5684,5.5684,5.5684,5.5684,5.5684,5.5684,5.5684,5.5684,5.5684,5.5684,5.5684,5.5684,5.5684,5.5684,5.5684,5.5684,5.5684,5.5684,5.5684,5.5684,5.5684,5.5684,5.5568,5.5068,5.4703,5.4299,5.3703,5.3049,5.2385,5.1885,5.1452,5.1068,5.0856,5.0683,5.0683,5.0664,5.0587,5.0567,5.0125,4.9567,4.8856,4.7692,4.6609,4.6003,4.5336,4.4957,4.472,4.4148,4.3379,4.2398,4.1441,4.0662,3.9916,3.9441,3.9129,3.8872,3.8707,3.8707,3.8707,3.8707,3.8707,6.5878,6.5878,6.5878,6.5878,6.5878,6.5878,6.5878,6.5878,6.5686,6.5667,6.5609,6.5493,6.4936,6.4532,6.4397,6.3916,6.3089,6.2281,6.1889,6.1755,6.1339,6.1012,6.0935,6.0954,6.0858,6.08,6.08,6.08,6.08,6.08,6.08,6.0762,6.0608,6.0512,6.0262,5.98,5.9319,5.9184,5.8492,5.7819,5.733,5.6849,5.6387,5.5876,5.5761,5.5684,5.5684,5.5684,5.5684,5.5684,5.5684,5.5684,5.5684,5.5684,5.5684,5.5684,5.5684,5.5684,5.5684,5.5684,5.5684,5.5684,5.5684,5.5684,5.5684,5.5684,5.5684,5.5684,5.5684,5.5684,5.5684,5.5684,5.5684,5.5684,5.5684,5.5684,5.5645,5.5491,5.5164,5.4741,5.4337,5.3972,5.328,5.2596,5.2106,5.1606,5.1183,5.0875,5.0683,5.0683,5.0664,5.0644,5.0606,5.0029,4.9413,4.8067,4.6915,4.6494,4.5906,4.5295,4.5019,4.4745,4.4044,4.3129,4.2263,4.1448,4.0701,4.0026,3.9588,3.9405,3.9093,3.8762,3.8836,3.8927,3.8707,6.5878,6.5878,6.5878,6.5878,6.5878,6.5878,6.5878,6.5878,6.5878,6.5878,6.5878,6.5878,6.5686,6.534,6.5263,6.4782,6.3955,6.3108,6.2762,6.2589,6.2281,6.182,6.1543,6.1485,6.1146,6.0916,6.08,6.0819,6.08,6.08,6.08,6.0781,6.08,6.08,6.0742,6.0416,6.0165,5.9954,5.9338,5.8723,5.8165,5.7561,5.6753,5.6445,5.5915,5.5703,5.5684,5.5684,5.5684,5.5684,5.5684,5.5684,5.5684,5.5684,5.5684,5.5684,5.5684,5.5684,5.5684,5.5684,5.5684,5.5684,5.5684,5.5684,5.5684,5.5684,5.5684,5.5684,5.5684,5.5684,5.5684,5.5684,5.5684,5.5684,5.5684,5.5684,5.5684,5.5684,5.5415,5.5107,5.503,5.4703,5.4107,5.3453,5.2837,5.2222,5.1625,5.1202,5.0818,5.0683,5.0702,5.0683,5.0664,5.0289,4.9721,4.8759,4.7625,4.7117,4.6465,4.5859,4.5385,4.5125,4.4675,4.4006,4.314,4.2335,4.162,4.0983,4.0469,3.9955,3.9698,3.946,3.9258,3.9111,3.9019,6.5878,6.5878,6.5878,6.5878,6.5878,6.5878,6.5878,6.5878,6.5878,6.5878,6.5878,6.5878,6.5878,6.5878,6.5782,6.5455,6.4782,6.3974,6.3608,6.3493,6.3224,6.2858,6.2512,6.2255,6.1966,6.1281,6.1166,6.0973,6.08,6.08,6.08,6.08,6.08,6.08,6.0762,6.0704,6.0781,6.0569,6.0165,5.9762,5.9165,5.8088,5.7137,5.7003,5.631,5.5945,5.5722,5.5684,5.5684,5.5684,5.5684,5.5684,5.5684,5.5684,5.5684,5.5684,5.5684,5.5684,5.5684,5.5684,5.5684,5.5684,5.5684,5.5684,5.5684,5.5684,5.5684,5.5684,5.5684,5.5684,5.5684,5.5684,5.5684,5.5684,5.5684,5.5684,5.5684,5.5684,5.5684,5.5568,5.5684,5.5376,5.4761,5.4222,5.3587,5.2953,5.2356,5.1625,5.1241,5.0779,5.0712,5.0683,5.0616,5.0385,4.9981,4.9567,4.8625,4.801,4.7212,4.6416,4.5947,4.5534,4.5052,4.4631,4.4159,4.3366,4.2652,4.1864,4.124,4.0726,4.0414,4.0194,4.0084,3.9937,3.9808,6.5878,6.5878,6.5878,6.5878,6.5878,6.5878,6.5878,6.5878,6.5878,6.5878,6.5878,6.5878,6.5878,6.5878,6.5878,6.582,6.5474,6.4897,6.4455,6.4378,6.3858,6.3474,6.3185,6.3166,6.2704,6.2012,6.1889,6.1473,6.105,6.0877,6.08,6.08,6.08,6.08,6.08,6.08,6.08,6.0762,6.0646,6.0262,5.955,5.8646,5.7838,5.7291,5.6849,5.6483,5.5906,5.578,5.5684,5.5684,5.5684,5.5684,5.5684,5.5684,5.5684,5.5684,5.5684,5.5684,5.5684,5.5684,5.5684,5.5684,5.5684,5.5684,5.5684,5.5684,5.5684,5.5684,5.5684,5.5684,5.5684,5.5684,5.5684,5.5684,5.5684,5.5684,5.5684,5.5684,5.5684,5.5684,5.5684,5.5684,5.5395,5.4876,5.4337,5.3703,5.3049,5.2318,5.1568,5.1068,5.0731,5.0702,5.0683,5.05,5.0366,4.9933,4.9413,4.8817,4.8067,4.7144,4.6665,4.6215,4.5562,4.5124,4.4734,4.4134,4.3193,4.2456,4.1891,4.1534,4.1258,4.1077,4.0967,4.0783,4.049,6.632,6.5897,6.5878,6.5878,6.5878,6.5878,6.5878,6.5878,6.5878,6.5878,6.5878,6.5878,6.5878,6.5878,6.5878,6.5878,6.582,6.5474,6.532,6.5301,6.4839,6.4474,6.4128,6.3993,6.3608,6.2858,6.2332,6.1947,6.1454,6.1031,6.08,6.08,6.08,6.08,6.08,6.08,6.08,6.0781,6.0742,6.0608,6.0127,5.9454,5.88,5.8377,5.7541,5.6887,5.6445,5.5876,5.5722,5.5684,5.5684,5.5684,5.5684,5.5684,5.5684,5.5684,5.5684,5.5684,5.5684,5.5684,5.5684,5.5684,5.5684,5.5684,5.5684,5.5684,5.5684,5.5684,5.5684,5.5684,5.5684,5.5684,5.5684,5.5684,5.5684,5.5684,5.5684,5.5684,5.5684,5.5684,5.5684,5.5684,5.5684,5.5395,5.4876,5.4337,5.3703,5.3029,5.2049,5.1125,5.0856,5.0683,5.0683,5.0654,5.0577,5.0366,4.9894,4.9375,4.9106,4.824,4.7567,4.6992,4.633,4.5703,4.5265,4.455,4.3679,4.3277,4.2934,4.2521,4.2103,4.1954,4.1769,4.1224,4.0985,6.7263,6.6494,6.609,6.5878,6.5878,6.5878,6.5878,6.5878,6.5878,6.5878,6.5878,6.5878,6.5878,6.5878,6.5878,6.5878,6.5878,6.5878,6.5878,6.5878,6.582,6.5455,6.5089,6.4859,6.4474,6.3628,6.3224,6.2724,6.2204,6.1647,6.1108,6.0819,6.08,6.08,6.08,6.08,6.08,6.08,6.08,6.0762,6.0608,6.0165,5.9723,5.9165,5.8357,5.7426,5.6964,5.6483,5.6099,5.5684,5.5684,5.5684,5.5684,5.5684,5.5684,5.5684,5.5684,5.5684,5.5684,5.5684,5.5684,5.5684,5.5684,5.5684,5.5684,5.5684,5.5684,5.5684,5.5684,5.5684,5.5684,5.5684,5.5684,5.5684,5.5684,5.5684,5.5684,5.5684,5.5684,5.5684,5.5684,5.5684,5.5684,5.5684,5.5376,5.4934,5.4337,5.3664,5.2645,5.151,5.1048,5.0894,5.0741,5.0721,5.0673,5.0539,5.0144,4.9913,4.9644,4.924,4.8509,4.776,4.7031,4.6453,4.5938,4.5247,4.4537,4.4289,4.4024,4.3457,4.2971,4.2787,4.248,4.1917,4.1701,6.9033,6.8109,6.6571,6.5955,6.5917,6.5878,6.5878,6.5878,6.5878,6.5878,6.5878,6.5878,6.5878,6.5878,6.5878,6.5878,6.5878,6.5878,6.5878,6.5878,6.5859,6.5801,6.5628,6.5513,6.5301,6.4609,6.4128,6.3705,6.3205,6.2416,6.1608,6.0935,6.0916,6.0839,6.08,6.08,6.08,6.08,6.08,6.08,6.08,6.0569,6.0281,5.9685,5.9281,5.8646,5.7176,5.6887,5.6522,5.5895,5.5742,5.5684,5.5684,5.5684,5.5684,5.5684,5.5684,5.5684,5.5684,5.5684,5.5684,5.5684,5.5684,5.5684,5.5684,5.5684,5.5684,5.5684,5.5684,5.5684,5.5684,5.5684,5.5684,5.5684,5.5684,5.5684,5.5684,5.5684,5.5684,5.5684,5.5684,5.5684,5.5684,5.5684,5.5684,5.5261,5.4626,5.3953,5.3126,5.2106,5.1471,5.1125,5.0894,5.0779,5.0702,5.0529,5.0394,5.024,5.001,4.976,4.9356,4.8587,4.7818,4.7396,4.6906,4.6153,4.557,4.5504,4.5183,4.4344,4.3779,4.3407,4.321,4.2817,4.28,6.9513,6.909,6.7917,6.7128,6.659,6.6109,6.5878,6.5878,6.5878,6.5878,6.5878,6.5878,6.5878,6.5878,6.5878,6.5878,6.5878,6.5878,6.5878,6.5878,6.5878,6.5878,6.5878,6.5859,6.5705,6.5301,6.4916,6.4532,6.4051,6.3262,6.282,6.2204,6.1416,6.0877,6.08,6.0819,6.08,6.08,6.08,6.08,6.08,6.08,6.0627,6.0358,5.9627,5.9281,5.8492,5.7484,5.6945,5.6453,5.5992,5.5799,5.5684,5.5684,5.5684,5.5684,5.5684,5.5684,5.5684,5.5684,5.5684,5.5684,5.5684,5.5684,5.5684,5.5684,5.5684,5.5684,5.5684,5.5684,5.5684,5.5684,5.5684,5.5684,5.5684,5.5684,5.5684,5.5684,5.5684,5.5684,5.5684,5.5684,5.5684,5.5684,5.5684,5.5588,5.4914,5.4241,5.3491,5.2837,5.226,5.1645,5.1395,5.1029,5.0933,5.0818,5.0702,5.0529,5.0356,5.0164,4.9913,4.9433,4.875,4.8336,4.7932,4.7319,4.6933,4.6863,4.6203,4.5038,4.4296,4.3794,4.364,4.3563,4.3546,7.0052,6.9956,6.9148,6.8282,6.7417,6.659,6.6244,6.6205,6.5994,6.5878,6.5878,6.5878,6.5878,6.5878,6.5878,6.5878,6.5878,6.5878,6.5878,6.5878,6.5878,6.5878,6.5878,6.5878,6.584,6.5724,6.5416,6.4974,6.4936,6.4109,6.3724,6.3205,6.2339,6.1704,6.1166,6.0896,6.08,6.08,6.08,6.08,6.08,6.08,6.08,6.0685,6.0204,5.9723,5.9261,5.8415,5.7599,5.7003,5.6445,5.6002,5.5799,5.5684,5.5684,5.5684,5.5684,5.5684,5.5684,5.5684,5.5684,5.5684,5.5684,5.5684,5.5684,5.5684,5.5684,5.5684,5.5684,5.5684,5.5684,5.5684,5.5684,5.5684,5.5684,5.5684,5.5684,5.5684,5.5684,5.5684,5.5684,5.5684,5.5684,5.5684,5.5684,5.5684,5.5415,5.4818,5.4203,5.3626,5.3203,5.2568,5.1981,5.1587,5.1221,5.0991,5.0789,5.0664,5.0529,5.0587,5.0337,4.9913,4.951,4.899,4.8644,4.8413,4.8039,4.7587,4.6634,4.5518,4.4891,4.4352,4.4031,4.3927,4.3758,7.0841,7.0783,6.9994,6.9186,6.8379,6.7455,6.709,6.6994,6.632,6.5955,6.5897,6.5878,6.5878,6.5878,6.5878,6.5878,6.5878,6.5878,6.5878,6.5878,6.5878,6.5878,6.5878,6.5878,6.5878,6.5878,6.5705,6.5628,6.5743,6.4974,6.4628,6.432,6.3551,6.2647,6.2062,6.1204,6.0819,6.08,6.08,6.08,6.08,6.08,6.08,6.0742,6.0646,6.0223,5.9742,5.9281,5.8454,5.7618,5.7022,5.6503,5.5972,5.578,5.5703,5.5684,5.5684,5.5684,5.5684,5.5684,5.5684,5.5684,5.5684,5.5684,5.5684,5.5684,5.5684,5.5684,5.5684,5.5684,5.5684,5.5684,5.5684,5.5684,5.5684,5.5684,5.5684,5.5684,5.5684,5.5684,5.5684,5.5684,5.5684,5.5684,5.5684,5.5684,5.5684,5.5338,5.4799,5.4472,5.4068,5.351,5.2856,5.2433,5.1972,5.1202,5.0846,5.077,5.0683,5.0683,5.0683,5.0433,5.001,4.9586,4.9433,4.9298,4.8721,4.8125,4.743,4.6778,4.5595,4.4949,4.4616,4.4533,4.4625,7.0898,7.0879,7.0591,7.0341,6.9879,6.8532,6.7955,6.7802,6.7071,6.6417,6.5974,6.5878,6.5878,6.5878,6.5878,6.5878,6.5878,6.5878,6.5878,6.5878,6.5878,6.5878,6.5878,6.5878,6.5878,6.5878,6.5878,6.5878,6.584,6.5455,6.5455,6.5243,6.4416,6.3416,6.2224,6.13,6.08,6.08,6.08,6.08,6.08,6.08,6.08,6.08,6.08,6.0608,6.0262,5.9877,5.9165,5.8396,5.7868,5.7003,5.6472,5.6222,5.5761,5.5722,5.5703,5.5684,5.5684,5.5684,5.5684,5.5684,5.5684,5.5684,5.5684,5.5684,5.5684,5.5684,5.5684,5.5684,5.5684,5.5684,5.5684,5.5684,5.5684,5.5684,5.5684,5.5684,5.5684,5.5684,5.5684,5.5684,5.5684,5.5684,5.5684,5.5684,5.5684,5.5684,5.528,5.5241,5.4991,5.4434,5.3857,5.3395,5.2818,5.2049,5.1587,5.1548,5.1125,5.0683,5.0683,5.076,5.0548,5.0125,5.0173,5.0154,4.9625,4.9144,4.8866,4.8189,4.7209,4.6346,4.6045,4.611,4.6271,7.0898,7.0898,7.0898,7.0898,7.0687,6.9436,6.8692,6.8359,6.7782,6.709,6.6436,6.632,6.6128,6.5974,6.5878,6.5878,6.5878,6.5878,6.5878,6.5878,6.5878,6.5878,6.5878,6.5878,6.5878,6.5878,6.5878,6.5878,6.5878,6.5878,6.584,6.5609,6.5032,6.4089,6.2954,6.2108,6.1108,6.0973,6.08,6.08,6.08,6.08,6.08,6.08,6.08,6.0762,6.0627,6.0281,5.98,5.9281,5.8569,5.7695,5.73,5.6703,5.6203,5.6145,5.5818,5.5761,5.5684,5.5684,5.5684,5.5684,5.5684,5.5684,5.5684,5.5684,5.5684,5.5684,5.5684,5.5684,5.5684,5.5684,5.5684,5.5684,5.5684,5.5684,5.5684,5.5684,5.5684,5.5684,5.5684,5.5684,5.5684,5.5684,5.5684,5.5684,5.5684,5.5684,5.5684,5.5626,5.5568,5.5088,5.4587,5.4087,5.353,5.2895,5.2529,5.2365,5.1798,5.1164,5.0952,5.1048,5.0875,5.0683,5.0558,5.0481,5.05,5.0221,4.9798,4.9538,4.917,4.8384,4.7684,4.7479,4.7517,7.0898,7.0898,7.0898,7.0898,7.0744,7.0033,6.9283,6.8494,6.8456,6.7936,6.716,6.7148,6.6782,6.6109,6.5974,6.5955,6.5878,6.5878,6.5878,6.5878,6.5878,6.5878,6.5878,6.5878,6.5878,6.5878,6.5878,6.5878,6.5878,6.5878,6.5878,6.5743,6.5224,6.4589,6.3878,6.3051,6.1916,6.1377,6.0858,6.0839,6.08,6.08,6.08,6.08,6.08,6.08,6.0742,6.0608,6.0242,5.9838,5.9415,5.8915,5.8319,5.7492,5.7195,5.6753,5.6126,5.5799,5.5684,5.5684,5.5684,5.5684,5.5684,5.5684,5.5684,5.5684,5.5684,5.5684,5.5684,5.5684,5.5684,5.5684,5.5684,5.5684,5.5684,5.5684,5.5684,5.5684,5.5684,5.5684,5.5684,5.5684,5.5684,5.5684,5.5684,5.5684,5.5684,5.5684,5.5684,5.5684,5.5626,5.5568,5.5088,5.4703,5.4184,5.3703,5.3414,5.3241,5.2519,5.1933,5.1683,5.1414,5.1221,5.1048,5.0798,5.0693,5.0635,5.0625,5.0567,5.0346,5.0066,4.9729,4.8813,4.8452,4.8346,7.0898,7.0898,7.0898,7.0898,7.086,7.0648,7.011,6.9379,6.9321,6.884,6.8032,6.8032,6.7552,6.6801,6.6763,6.6397,6.609,6.5878,6.5878,6.5878,6.5878,6.5878,6.5878,6.5878,6.5878,6.5878,6.5878,6.5878,6.5878,6.5878,6.5878,6.5782,6.5551,6.5166,6.4666,6.4109,6.2974,6.1973,6.13,6.0916,6.0819,6.08,6.08,6.08,6.08,6.08,6.08,6.08,6.0531,6.0435,5.98,5.93,5.9165,5.8357,5.778,5.6945,5.6252,5.5684,5.5684,5.5684,5.5684,5.5684,5.5684,5.5684,5.5684,5.5684,5.5684,5.5684,5.5684,5.5684,5.5684,5.5684,5.5684,5.5684,5.5684,5.5684,5.5684,5.5684,5.5684,5.5684,5.5684,5.5684,5.5684,5.5684,5.5684,5.5684,5.5684,5.5684,5.5684,5.5684,5.5684,5.5645,5.553,5.5126,5.4991,5.4587,5.4337,5.403,5.3337,5.2818,5.2626,5.2318,5.1798,5.151,5.1395,5.1048,5.0683,5.076,5.0952,5.0741,5.0481,5.0298,5.0048,4.9584,4.936,7.0898,7.0898,7.0898,7.0898,7.0898,7.0898,7.0591,7.0206,7.0187,6.9687,6.8956,6.8917,6.8436,6.7628,6.7225,6.6833,6.6417,6.6032,6.5878,6.5878,6.5897,6.5878,6.5878,6.5878,6.5878,6.5878,6.5878,6.5878,6.5878,6.5878,6.5878,6.5878,6.5878,6.559,6.5147,6.4666,6.407,6.3012,6.2089,6.13,6.0954,6.0819,6.08,6.08,6.08,6.08,6.08,6.08,6.08,6.08,6.0146,6.0031,5.9858,5.9223,5.8088,5.7272,5.6656,5.6079,5.5818,5.5703,5.5684,5.5684,5.5684,5.5684,5.5684,5.5684,5.5684,5.5684,5.5684,5.5684,5.5684,5.5684,5.5684,5.5684,5.5684,5.5684,5.5684,5.5684,5.5684,5.5684,5.5684,5.5684,5.5684,5.5684,5.5684,5.5684,5.5684,5.5684,5.5684,5.5684,5.5684,5.5665,5.5665,5.5549,5.5434,5.528,5.5068,5.4703,5.4203,5.376,5.3587,5.3145,5.2568,5.2279,5.2106,5.1818,5.1606,5.1298,5.1298,5.1144,5.0971,5.0664,5.0529,5.0356,5.0278,7.0898,7.0898,7.0898,7.0898,7.0898,7.0898,7.0879,7.0898,7.0821,7.0475,6.986,6.9802,6.9302,6.8513,6.7955,6.7513,6.7032,6.6532,6.6186,6.5974,6.5897,6.5897,6.5878,6.5878,6.5878,6.5878,6.5878,6.5878,6.5878,6.5878,6.5878,6.5878,6.5878,6.5763,6.5609,6.5166,6.4628,6.4051,6.3031,6.2127,6.1223,6.0916,6.08,6.08,6.08,6.08,6.08,6.08,6.08,6.08,6.0762,6.0685,6.0416,5.9819,5.8569,5.7868,5.733,5.6695,5.6242,5.603,5.5818,5.5761,5.5684,5.5684,5.5684,5.5684,5.5684,5.5684,5.5684,5.5684,5.5684,5.5684,5.5684,5.5684,5.5684,5.5684,5.5684,5.5684,5.5684,5.5684,5.5684,5.5684,5.5684,5.5684,5.5684,5.5684,5.5684,5.5684,5.5684,5.5684,5.5684,5.5684,5.5684,5.5684,5.5645,5.5549,5.5607,5.5299,5.4857,5.4703,5.4511,5.3972,5.3318,5.2953,5.2626,5.2856,5.2741,5.2356,5.201,5.1952,5.1683,5.1106,5.0914,5.0952,5.075,7.0898,7.0898,7.0898,7.0898,7.0898,7.0898,7.0898,7.0898,7.0898,7.0783,7.0629,7.0533,7.0148,6.9379,6.9033,6.8609,6.7955,6.7244,6.6878,6.6571,6.632,6.609,6.5897,6.5936,6.5897,6.5878,6.5878,6.5878,6.5878,6.5878,6.5878,6.5878,6.5878,6.5878,6.5878,6.5474,6.5224,6.4762,6.4089,6.3051,6.2082,6.1185,6.08,6.08,6.08,6.08,6.08,6.08,6.08,6.08,6.08,6.0781,6.0742,5.9954,5.9377,5.8877,5.8242,5.755,5.6973,5.6646,5.6472,5.5972,5.5799,5.5722,5.5684,5.5684,5.5684,5.5684,5.5684,5.5684,5.5684,5.5684,5.5684,5.5684,5.5684,5.5684,5.5684,5.5684,5.5684,5.5684,5.5684,5.5684,5.5684,5.5684,5.5684,5.5684,5.5684,5.5684,5.5684,5.5684,5.5684,5.5684,5.5684,5.5684,5.5684,5.5684,5.5684,5.5684,5.5338,5.5318,5.5357,5.4761,5.4068,5.3453,5.3126,5.351,5.3606,5.3145,5.2876,5.2818,5.251,5.201,5.1722,5.1702,5.1241,7.0898,7.0898,7.0898,7.0898,7.0898,7.0898,7.0898,7.0898,7.0898,7.0898,7.0898,7.086,7.0629,7.011,6.9898,6.959,6.8859,6.8071,6.7782,6.7436,6.6917,6.6571,6.634,6.609,6.5917,6.5878,6.5878,6.5878,6.5878,6.5878,6.5878,6.5878,6.5878,6.5878,6.5878,6.584,6.5667,6.5205,6.4859,6.407,6.2986,6.2127,6.1146,6.1012,6.08,6.0819,6.08,6.08,6.08,6.08,6.08,6.08,6.0723,6.0377,5.9896,5.9473,5.8973,5.8473,5.7857,5.7473,5.73,5.6857,5.6338,5.6415,5.6252,5.6214,5.5722,5.5684,5.5684,5.5684,5.5684,5.5684,5.5684,5.5684,5.5684,5.5684,5.5684,5.5684,5.5684,5.5684,5.5684,5.5684,5.5684,5.5684,5.5684,5.5684,5.5684,5.5684,5.5684,5.5684,5.5684,5.5684,5.5684,5.5684,5.5684,5.5684,5.5684,5.5684,5.5684,5.5626,5.5491,5.5261,5.4838,5.4357,5.4184,5.4453,5.4395,5.3972,5.3799,5.3741,5.3376,5.2933,5.2702,5.2423,5.201,7.0898,7.0898,7.0898,7.0898,7.0898,7.0898,7.0898,7.0898,7.0898,7.0898,7.0898,7.0898,7.0898,7.0629,7.0244,6.9994,6.959,6.8917,6.8648,6.834,6.7648,6.7167,6.6763,6.6455,6.6186,6.5955,6.5878,6.5878,6.5878,6.5878,6.5878,6.5878,6.5878,6.5878,6.5878,6.5878,6.5763,6.559,6.5263,6.4801,6.3974,6.3108,6.2012,6.13,6.0954,6.0916,6.0858,6.08,6.08,6.08,6.08,6.08,6.08,6.0646,6.0339,5.9935,5.98,5.9223,5.8665,5.8415,5.83,5.805,5.7492,5.7126,5.6983,5.6579,5.6088,5.5857,5.5857,5.5703,5.5703,5.5684,5.5684,5.5684,5.5684,5.5684,5.5684,5.5684,5.5684,5.5684,5.5684,5.5684,5.5684,5.5684,5.5684,5.5684,5.5684,5.5684,5.5684,5.5684,5.5684,5.5684,5.5684,5.5684,5.5684,5.5684,5.5684,5.5684,5.5684,5.5684,5.5645,5.5453,5.5415,5.5491,5.5415,5.5261,5.5184,5.4895,5.4761,5.4568,5.4414,5.403,5.3549,5.326,5.2856,7.0898,7.0898,7.0898,7.0898,7.0898,7.0898,7.0898,7.0898,7.0898,7.0898,7.0898,7.0898,7.0898,7.0898,7.0802,7.061,7.0341,6.9744,6.9533,6.9321,6.8532,6.7821,6.7263,6.6936,6.6474,6.6128,6.5878,6.5878,6.5878,6.5878,6.5878,6.5878,6.5878,6.5878,6.5878,6.5878,6.5859,6.5763,6.5686,6.5301,6.4551,6.3666,6.2762,6.2185,6.1851,6.1389,6.1031,6.0819,6.08,6.08,6.08,6.08,6.08,6.08,6.0589,6.0473,6.0358,5.9992,5.9511,5.9319,5.9184,5.8704,5.8204,5.805,5.7761,5.728,5.6857,5.6503,5.6338,5.5838,5.5742,5.5703,5.5684,5.5684,5.5684,5.5684,5.5684,5.5684,5.5684,5.5684,5.5684,5.5684,5.5684,5.5684,5.5684,5.5684,5.5684,5.5684,5.5684,5.5684,5.5684,5.5684,5.5684,5.5684,5.5684,5.5684,5.5684,5.5684,5.5684,5.5684,5.5684,5.5684,5.5684,5.5684,5.5684,5.5549,5.5511,5.5415,5.5415,5.5241,5.5395,5.5164,5.4587,5.4126,5.376]}]]